Date StartTime U_cm/s V_cm/s W_cm/s Ustd_cm/s Vstd_cm/s Wstd_cm/s Uvar_(cm/s)^2 Vvar_(cm/s)^2 Wvar_(cm/s)^2 KE_(m/s)^2 TurbulentKE_(m/s)^2 HorizWindSpeed_cm/s FrictionSpeec_cm/s DragCoef SpeedOfSound_m/s SonicTemperature_C Pressure_mb 
10/03/2014  00:00:00      -79.555      -53.252      -14.397       19.011       12.553       11.258      361.414      157.570      126.737        0.501        0.032       95.733        5.131        0.003      338.704       11.535      868.993
10/03/2014  00:01:00      -61.510      -49.169       -4.130       20.739       14.816       14.749      430.117      219.501      217.529        0.354        0.043       78.747       13.113        0.028      338.742       11.600      868.988
10/03/2014  00:02:00      -70.967      -38.909       -4.009       25.747       12.403       17.640      662.916      153.834      311.161        0.385        0.056       80.934       18.510        0.052      338.683       11.501      868.984
10/03/2014  00:03:00      -65.226      -39.423      -10.546       16.527       19.239       13.817      273.155      370.137      190.901        0.338        0.042       76.214        8.828        0.013      338.705       11.539      868.984
10/03/2014  00:04:00      -82.568      -45.119      -13.466       17.120       20.116       13.365      293.111      404.654      178.637        0.496        0.044       94.092       11.728        0.016      338.685       11.504      868.984
10/03/2014  00:05:00     -120.518      -41.115      -19.626       18.086       11.415       10.465      327.112      130.299      109.507        0.858        0.028      127.339        6.747        0.003      338.633       11.415      868.969
10/03/2014  00:06:00     -122.976      -28.402      -21.466       13.187       15.989       10.822      173.897      255.663      117.115        0.847        0.027      126.213        8.216        0.004      338.612       11.383      868.952
10/03/2014  00:07:00     -113.513      -24.142      -12.077       17.692       22.314       15.854      312.999      497.933      251.363        0.734        0.053      116.052       11.308        0.009      338.698       11.527      868.935
10/03/2014  00:08:00     -113.172      -34.462      -18.462       15.716       20.524       14.547      246.981      421.221      211.609        0.761        0.044      118.302        8.343        0.005      338.664       11.469      868.928
10/03/2014  00:09:00     -117.005      -34.852      -17.963       16.710       18.955        9.728      279.221      359.289       94.641        0.798        0.037      122.086        6.133        0.003      338.661       11.465      868.917
10/03/2014  00:10:00     -129.986      -28.781      -22.653       13.739       17.399        9.474      188.770      302.732       89.747        0.941        0.029      133.134        5.429        0.002      338.655       11.452      868.904
10/03/2014  00:11:00     -120.836      -39.993      -21.014       15.357       24.468       14.237      235.832      598.682      202.690        0.884        0.052      127.282       10.556        0.007      338.659       11.462      868.904
10/03/2014  00:12:00     -112.085      -41.124      -16.380       12.851       17.097       13.553      165.155      292.314      183.693        0.758        0.032      119.391       11.100        0.009      338.715       11.555      868.934
10/03/2014  00:13:00      -91.159      -33.549      -11.564       20.614       15.786       14.391      424.942      249.213      207.090        0.523        0.044       97.136       11.429        0.014      338.715       11.554      868.952
10/03/2014  00:14:00      -81.472      -41.566       -5.591       17.223       14.703       10.192      296.648      216.166      103.869        0.451        0.031       91.462        3.595        0.002      338.793       11.685      868.962
10/03/2014  00:15:00      -57.829      -44.417       -2.533       29.444       18.375       18.265      866.958      337.634      333.610        0.343        0.077       72.918        8.942        0.015      338.768       11.644      868.966
10/03/2014  00:16:00      -66.285      -60.506        4.603       49.721       40.842       29.791     2472.201     1668.089      887.530        0.655        0.251       89.748       22.254        0.061      338.712       11.551      868.974
10/03/2014  00:17:00     -100.668      -86.516       -5.017       46.837       40.443       23.443     2193.679     1635.660      549.571        1.101        0.219      132.736       21.074        0.025      338.700       11.529      868.971
10/03/2014  00:18:00      -75.501      -55.968        8.823       35.532       41.607       23.811     1262.520     1731.125      566.967        0.624        0.178       93.983       14.752        0.025      338.581       11.330      868.977
10/03/2014  00:19:00      -92.399      -68.023       -4.692       44.627       37.427       28.404     1991.594     1400.801      806.810        0.869        0.210      114.738       28.231        0.061      338.615       11.386      868.989
10/03/2014  00:20:00     -106.563      -76.292       -7.074       36.689       39.311       24.597     1346.089     1545.347      604.994        1.036        0.175      131.058       14.298        0.012      338.602       11.365      869.015
10/03/2014  00:21:00     -110.226      -92.145      -15.897       30.909       50.825       20.318      955.340     2583.217      412.837        1.242        0.198      143.668       10.246        0.005      338.603       11.366      869.016
10/03/2014  00:22:00     -101.036      -85.448       -8.981       48.089       35.460       34.175     2312.590     1257.388     1167.948        1.116        0.237      132.324       31.034        0.055      338.553       11.282      869.021
10/03/2014  00:23:00     -102.698      -62.643       -4.309       53.140       53.736       33.652     2823.839     2887.598     1132.469        1.067        0.342      120.295       26.190        0.047      338.413       11.046      869.042
10/03/2014  00:24:00      -97.962      -49.502      -10.889       42.981       35.181       31.351     1847.347     1237.729      982.884        0.812        0.203      109.759       24.335        0.049      338.342       10.929      869.069
10/03/2014  00:25:00      -70.892      -59.020       -6.867       40.288       36.722       23.025     1623.125     1348.502      530.132        0.603        0.175       92.244       19.175        0.043      338.462       11.129      869.083
10/03/2014  00:26:00      -94.671      -51.996      -11.472       31.454       27.462       21.521      989.338      754.151      463.175        0.700        0.110      108.010       14.812        0.019      338.471       11.146      869.091
10/03/2014  00:27:00      -71.707      -35.213        4.070       23.845       28.319       16.878      568.598      801.978      284.877        0.403        0.083       79.886       11.275        0.020      338.444       11.101      869.091
10/03/2014  00:28:00      -75.876      -53.098       -2.698       31.868       21.472       15.456     1015.570      461.028      238.892        0.515        0.086       92.609       14.047        0.023      338.432       11.081      869.086
10/03/2014  00:29:00     -100.914      -51.653       -6.026       29.086       22.358       17.763      846.011      499.873      315.521        0.727        0.083      113.365       10.712        0.009      338.465       11.135      869.076
10/03/2014  00:30:00     -104.628      -60.308       -5.044       22.170       17.444       17.007      491.530      304.293      289.224        0.785        0.054      120.764        9.298        0.006      338.431       11.078      869.072
10/03/2014  00:31:00      -95.631      -46.633       -3.927       33.376       18.427       16.966     1113.973      339.549      287.845        0.654        0.087      106.395       20.474        0.037      338.364       10.964      869.083
10/03/2014  00:32:00     -106.409      -56.301       -2.123       24.468       18.040       14.329      598.700      325.449      205.334        0.781        0.056      120.386       14.183        0.014      338.326       10.901      869.083
10/03/2014  00:33:00     -105.748      -58.460       -6.321       22.372       19.023       11.715      500.490      361.886      137.243        0.782        0.050      120.831       10.843        0.008      338.345       10.934      869.073
10/03/2014  00:34:00      -90.039      -41.257       -6.801       24.773       28.501       15.424      613.698      812.286      237.894        0.576        0.083       99.041       12.804        0.017      338.340       10.924      869.075
10/03/2014  00:35:00      -97.066      -46.892       -2.555       23.726       17.177       12.028      562.936      295.036      144.681        0.631        0.050      107.799        8.760        0.007      338.362       10.961      869.086
10/03/2014  00:36:00     -104.496      -36.254       -3.692       15.826       22.338       13.861      250.448      499.003      192.123        0.659        0.047      110.606        9.509        0.007      338.308       10.871      869.080
10/03/2014  00:37:00      -90.642      -46.458        0.666       49.957       28.635       21.289     2495.729      819.937      453.239        0.707        0.188      101.855       23.008        0.051      338.306       10.868      869.080
10/03/2014  00:38:00      -88.885      -48.145        1.024       37.370       22.973       20.612     1396.497      527.769      424.835        0.628        0.117      101.087       22.236        0.048      338.233       10.745      869.086
10/03/2014  00:39:00     -109.498      -50.781       -4.406       17.076       17.387       14.927      291.579      302.297      222.823        0.770        0.041      120.700       11.889        0.010      338.239       10.754      869.076
10/03/2014  00:40:00     -127.905      -36.796      -13.251       20.714       19.826       17.100      429.057      393.086      292.408        0.950        0.056      133.092       11.956        0.008      338.261       10.794      869.065
10/03/2014  00:41:00     -113.781      -11.107      -11.471       36.011       20.102       18.610     1296.775      404.071      346.350        0.762        0.102      114.322       18.819        0.027      338.192       10.676      869.070
10/03/2014  00:42:00     -125.316      -16.664       -8.626       28.993       21.498       21.363      840.572      462.151      456.392        0.891        0.088      126.420       18.019        0.020      338.148       10.602      869.063
10/03/2014  00:43:00     -105.880      -36.005      -11.716       28.998       21.163       18.245      840.871      447.885      332.865        0.713        0.081      111.834       13.604        0.015      338.172       10.643      869.066
10/03/2014  00:44:00     -105.970      -27.745       -4.665       31.969       24.165       17.764     1022.006      583.935      315.567        0.697        0.096      109.542       15.344        0.020      338.246       10.766      869.077
10/03/2014  00:45:00      -41.504      -42.321        8.370       44.149       27.640       22.891     1949.173      763.992      524.014        0.341        0.162       59.276       25.909        0.191      338.191       10.675      869.070
10/03/2014  00:46:00      -65.050      -14.667        0.777       31.285       16.680       15.939      978.780      278.219      254.049        0.298        0.076       66.683       14.925        0.050      338.240       10.758      869.070
10/03/2014  00:47:00      -84.597       -8.342      -11.043       18.532       15.091       17.402      343.447      227.736      302.819        0.411        0.044       85.008        6.036        0.005      338.303       10.863      869.085
10/03/2014  00:48:00      -70.389      -37.732       -8.846       24.746       27.667       16.510      612.364      765.453      272.593        0.405        0.083       79.864        6.552        0.007      338.231       10.741      869.094
10/03/2014  00:49:00      -81.368      -42.059      -15.856       17.991       16.888       11.477      323.685      285.192      131.730        0.469        0.037       91.595        6.928        0.006      338.219       10.722      869.108
10/03/2014  00:50:00      -87.779      -47.629      -13.071       13.295       18.046       11.114      176.758      325.672      123.522        0.539        0.031       99.868       10.373        0.011      338.255       10.782      869.111
10/03/2014  00:51:00      -98.598      -29.629      -18.866       17.072       13.601        8.433      291.446      184.990       71.121        0.575        0.027      102.953        2.838        0.001      338.155       10.614      869.112
10/03/2014  00:52:00      -94.131      -33.782      -17.090       14.549       11.133        8.645      211.660      123.945       74.733        0.535        0.021      100.009        6.141        0.004      338.159       10.620      869.111
10/03/2014  00:53:00      -97.628      -58.776      -10.328       23.049       18.741       14.663      531.256      351.210      214.994        0.709        0.055      113.956       12.417        0.012      338.223       10.728      869.114
10/03/2014  00:54:00     -114.320      -51.008      -13.571       19.329       13.367       11.264      373.610      178.671      126.876        0.827        0.034      125.183        4.218        0.001      338.240       10.756      869.125
10/03/2014  00:55:00     -117.693      -54.007       -9.037       20.098       16.700       15.483      403.937      278.889      239.724        0.889        0.046      129.493       10.712        0.007      338.350       10.943      869.118
10/03/2014  00:56:00      -85.732      -66.802       -8.249       42.470       29.906       23.013     1803.710      894.355      529.606        0.755        0.161      108.685       13.168        0.015      338.242       10.761      869.111
10/03/2014  00:57:00      -99.142      -69.355       -3.224       38.214       27.070       21.331     1460.286      732.784      455.011        0.865        0.132      120.993       20.088        0.028      338.163       10.628      869.120
10/03/2014  00:58:00      -90.323      -75.970        0.267       42.560       39.334       30.054     1811.361     1547.178      903.214        0.910        0.213      118.024       27.230        0.053      338.170       10.641      869.112
10/03/2014  00:59:00     -134.519      -72.160      -12.823       16.100       17.707       14.630      259.198      313.547      214.051        1.213        0.039      152.651        8.173        0.003      338.212       10.710      869.107
10/03/2014  01:00:00     -148.196      -73.030      -14.531       16.246       17.731       12.709      263.920      314.376      161.506        1.412        0.037      165.214        4.755        0.001      338.113       10.544      869.111
10/03/2014  01:01:00     -143.029      -45.760      -14.917       20.015       24.357       16.714      400.598      593.274      279.353        1.202        0.064      150.171        7.319        0.002      338.055       10.446      869.120
10/03/2014  01:02:00     -143.775      -45.060      -14.645       23.377       22.115       15.625      546.478      489.054      244.139        1.210        0.064      150.670       12.426        0.007      337.970       10.304      869.118
10/03/2014  01:03:00     -138.936      -56.607       -1.993       31.500       31.134       17.158      992.281      969.318      294.386        1.238        0.113      150.025        6.655        0.002      338.056       10.447      869.136
10/03/2014  01:04:00     -107.677      -58.192       -3.732       26.386       30.490       19.649      696.228      929.644      386.088        0.850        0.101      122.395       15.690        0.016      338.043       10.426      869.153
10/03/2014  01:05:00      -76.467      -48.840       -5.945       31.422       27.032       16.345      987.348      730.703      267.148        0.513        0.099       90.733       13.358        0.022      338.043       10.426      869.172
10/03/2014  01:06:00      -89.072      -75.039      -11.698       18.081       18.903       13.624      326.916      357.312      185.623        0.729        0.043      116.468       10.450        0.008      338.102       10.525      869.175
10/03/2014  01:07:00      -51.391      -59.301       -0.571       23.754       24.157       13.407      564.275      583.578      179.755        0.374        0.066       78.470       11.527        0.022      338.227       10.735      869.189
10/03/2014  01:08:00      -54.847      -33.494        0.398       30.836       19.700       20.425      950.850      388.083      417.185        0.294        0.088       64.266       15.636        0.059      338.163       10.626      869.195
10/03/2014  01:09:00      -56.695      -35.128        2.612       32.161       21.778       14.256     1034.298      474.261      203.243        0.308        0.086       66.696       13.444        0.041      338.233       10.745      869.206
10/03/2014  01:10:00      -68.437      -57.268        3.548       31.197       28.281       16.846      973.240      799.809      283.793        0.502        0.103       89.237       14.456        0.026      338.350       10.942      869.205
10/03/2014  01:11:00      -46.859      -38.860        1.930       42.790       26.776       19.460     1830.994      716.940      378.680        0.332        0.146       60.876       16.855        0.077      338.208       10.703      869.219
10/03/2014  01:12:00      -64.774      -55.695       -3.345       27.930       29.463       18.390      780.061      868.094      338.192        0.465        0.099       85.426       14.948        0.031      338.178       10.652      869.237
10/03/2014  01:13:00      -56.745      -35.019       -0.295       26.832       31.024       16.177      719.961      962.505      261.686        0.319        0.097       66.681        4.801        0.005      338.131       10.573      869.251
10/03/2014  01:14:00      -58.774      -37.983        0.336       33.682       17.027       14.792     1134.470      289.935      218.806        0.327        0.082       69.979       15.553        0.049      338.078       10.486      869.265
10/03/2014  01:15:00      -43.512      -21.686       -0.220       23.951       21.536       16.060      573.659      463.784      257.933        0.183        0.065       48.616       14.823        0.093      338.006       10.364      869.283
10/03/2014  01:16:00      -33.323      -27.325        3.618       20.365       14.068       12.408      414.731      197.899      153.961        0.132        0.038       43.094       12.555        0.085      338.053       10.442      869.287
10/03/2014  01:17:00      -25.244      -16.269        0.037       16.957       10.840        9.231      287.531      117.516       85.203        0.070        0.025       30.032        8.642        0.083      338.104       10.529      869.274
10/03/2014  01:18:00      -16.603      -15.065        5.231       13.724        6.850        7.590      188.355       46.927       57.611        0.041        0.015       22.419        6.092        0.074      338.133       10.576      869.283
10/03/2014  01:19:00      -18.637      -21.748       -2.702        9.095        6.460        6.679       82.711       41.729       44.610        0.050        0.008       28.641        2.268        0.006      338.133       10.576      869.284
10/03/2014  01:20:00      -37.842      -18.320       -5.777        9.568        9.598        8.525       91.553       92.126       72.682        0.103        0.013       42.043        4.586        0.012      338.120       10.554      869.277
10/03/2014  01:21:00      -62.643      -23.504       -7.925       16.854        7.625        8.203      284.069       58.144       67.287        0.247        0.020       66.907        7.682        0.013      338.134       10.579      869.269
10/03/2014  01:22:00      -89.669      -21.724      -16.554        7.549        9.684        8.584       56.993       93.771       73.690        0.451        0.011       92.263        3.948        0.002      338.063       10.459      869.268
10/03/2014  01:23:00      -76.019      -15.161      -15.902        8.980       11.358        7.740       80.632      129.006       59.905        0.327        0.013       77.516        4.551        0.003      338.021       10.389      869.267
10/03/2014  01:24:00      -69.176      -20.176      -12.723       11.816       15.562        9.340      139.607      242.191       87.239        0.291        0.023       72.058        6.396        0.008      338.003       10.358      869.262
10/03/2014  01:25:00      -84.915      -14.159      -15.618       12.337       12.698       11.627      152.210      161.240      135.193        0.405        0.022       86.088        6.960        0.007      337.936       10.246      869.262
10/03/2014  01:26:00      -93.281      -18.279      -17.409       15.278       17.017       11.943      233.407      289.588      142.642        0.500        0.033       95.055        8.298        0.008      337.855       10.111      869.273
10/03/2014  01:27:00      -89.477      -22.427      -12.664       26.135       28.795       17.334      683.020      829.155      300.463        0.524        0.091       92.245       15.674        0.029      337.892       10.173      869.291
10/03/2014  01:28:00     -100.735        2.490       -4.434       41.491       31.442       21.154     1721.474      988.596      447.511        0.667        0.158      100.766       18.069        0.032      337.861       10.121      869.310
10/03/2014  01:29:00      -76.024       -5.607      -13.927       30.694       35.238       16.306      942.110     1241.742      265.874        0.423        0.122       76.231        7.221        0.009      337.852       10.106      869.322
10/03/2014  01:30:00      -89.727        3.389      -13.857       29.497       18.789       13.876      870.102      353.034      192.551        0.483        0.071       89.790        9.749        0.012      337.872       10.139      869.325
10/03/2014  01:31:00      -90.368      -16.948      -10.721       27.848       19.314       18.140      775.521      373.041      329.055        0.502        0.074       91.944       15.413        0.028      337.902       10.190      869.344
10/03/2014  01:32:00      -11.606      -35.308       -2.923       26.991       22.105       13.913      728.533      488.610      193.578        0.140        0.071       37.167        9.363        0.063      337.886       10.162      869.365
10/03/2014  01:33:00      -15.925      -38.773        7.164       17.493       15.801       14.128      306.001      249.686      199.593        0.128        0.038       41.916       10.193        0.059      338.044       10.428      869.387
10/03/2014  01:34:00      -25.481      -36.670       -1.404       16.880       16.998       11.966      284.930      288.941      143.190        0.136        0.036       44.653       11.469        0.066      338.173       10.644      869.402
10/03/2014  01:35:00      -80.447      -30.480       -8.590       12.070       19.549       10.334      145.677      382.179      106.801        0.405        0.032       86.028        2.384        0.001      338.074       10.478      869.405
10/03/2014  01:36:00     -121.168      -60.325       -6.095       26.777       17.737       17.186      717.010      314.604      295.374        0.984        0.066      135.355       14.812        0.012      337.913       10.208      869.399
10/03/2014  01:37:00     -115.682      -58.019       -5.781       59.493       26.782       22.872     3539.401      717.250      523.145        1.078        0.239      129.416       29.368        0.051      337.816       10.046      869.393
10/03/2014  01:38:00      -94.030      -60.428       -0.210       38.199       24.690       20.757     1459.174      609.572      430.853        0.750        0.125      111.773       20.410        0.033      337.736        9.911      869.401
10/03/2014  01:39:00      -72.229      -34.086       -6.398       31.333       21.286       19.464      981.757      453.108      378.866        0.412        0.091       79.868       17.859        0.050      337.826       10.062      869.420
10/03/2014  01:40:00     -105.310      -40.138      -12.523       20.605       12.968       11.738      424.572      168.175      137.777        0.679        0.037      112.700        9.503        0.007      337.837       10.080      869.425
10/03/2014  01:41:00     -112.086      -40.046      -10.753       14.868       13.930        9.555      221.054      194.038       91.303        0.739        0.025      119.025        9.992        0.007      337.854       10.108      869.437
10/03/2014  01:42:00     -105.259      -47.271      -11.420       16.970       13.975        9.762      287.977      195.288       95.295        0.701        0.029      115.386        5.578        0.002      337.907       10.198      869.451
10/03/2014  01:43:00     -111.747      -57.031       -6.366       16.269       14.368       11.107      264.676      206.453      123.368        0.819        0.030      125.459        9.727        0.006      337.927       10.231      869.457
10/03/2014  01:44:00      -67.120      -50.375        3.622       34.467       33.664       18.213     1187.944     1133.278      331.731        0.485        0.133       83.921       18.370        0.048      337.782        9.988      869.467
10/03/2014  01:45:00     -119.059      -64.213       -5.659       30.843       20.128       17.458      951.287      405.146      304.772        1.000        0.083      135.271       15.537        0.013      337.778        9.981      869.469
10/03/2014  01:46:00     -107.500      -64.376       -2.117       35.380       29.445       21.494     1251.714      867.015      461.979        0.914        0.129      125.302       20.953        0.028      337.781        9.986      869.475
10/03/2014  01:47:00     -117.599      -69.496      -11.625       26.793       25.545       19.169      717.876      652.531      367.467        1.027        0.087      136.599       14.281        0.011      337.835       10.078      869.485
10/03/2014  01:48:00     -105.413      -57.674      -11.429       37.459       21.939       15.688     1403.173      481.317      246.106        0.835        0.107      120.159        8.646        0.005      337.823       10.057      869.493
10/03/2014  01:49:00     -109.510      -70.932       -9.052       30.455       28.262       19.840      927.509      798.751      393.644        0.961        0.106      130.475       12.244        0.009      337.785        9.994      869.501
10/03/2014  01:50:00      -86.044      -62.559       -3.481       52.046       30.537       26.764     2708.837      932.484      716.287        0.784        0.218      106.382       21.822        0.042      337.745        9.926      869.504
10/03/2014  01:51:00     -108.265      -67.466        2.531       44.503       31.116       24.443     1980.537      968.199      597.445        0.991        0.177      127.566       22.706        0.032      337.735        9.910      869.506
10/03/2014  01:52:00      -65.400      -40.586        8.868       51.627       29.043       20.643     2665.360      843.519      426.153        0.497        0.197       76.970       24.236        0.099      337.721        9.885      869.518
10/03/2014  01:53:00      -57.226      -45.349        6.896       49.229       28.762       18.981     2423.497      827.233      360.261        0.449        0.181       73.016       20.643        0.080      337.756        9.946      869.537
10/03/2014  01:54:00      -65.862      -51.354        1.431       38.648       23.316       18.868     1493.661      543.654      355.987        0.468        0.120       83.516       14.481        0.030      337.809       10.033      869.550
10/03/2014  01:55:00      -77.085      -52.820        0.153       31.754       22.045       16.705     1008.344      485.966      279.044        0.525        0.089       93.446       13.516        0.021      337.785        9.994      869.556
10/03/2014  01:56:00      -79.464      -54.411       -1.507       30.060       22.563       15.137      903.574      509.106      229.123        0.546        0.082       96.307       12.626        0.017      337.749        9.933      869.566
10/03/2014  01:57:00      -82.366      -53.756       -5.129       38.930       21.665       15.310     1515.540      469.381      234.386        0.596        0.111       98.356       12.809        0.017      337.740        9.917      869.578
10/03/2014  01:58:00      -12.692      -23.579       11.541       23.540       21.220       18.309      554.126      450.290      335.236        0.109        0.067       26.777       11.843        0.196      337.657        9.779      869.585
10/03/2014  01:59:00      -46.267      -53.064       -1.388       29.951       33.245       17.972      897.035     1105.245      323.000        0.364        0.116       70.402       16.523        0.055      337.725        9.893      869.591
10/03/2014  02:00:00      -62.581      -48.693       -0.750       23.244       20.874       14.640      540.266      435.713      214.329        0.374        0.060       79.293       10.161        0.016      337.724        9.893      869.591
10/03/2014  02:01:00      -75.854      -61.590       -5.771       35.779       19.156       15.195     1280.103      366.946      230.878        0.573        0.094       97.710       10.554        0.012      337.681        9.821      869.604
10/03/2014  02:02:00      -86.195      -73.499       -3.887       27.730       27.890       20.882      768.965      777.839      436.076        0.741        0.099      113.277       19.068        0.028      337.636        9.743      869.616
10/03/2014  02:03:00      -65.441      -48.734        4.169       36.628       31.105       15.564     1341.615      967.514      242.224        0.461        0.128       81.594       16.113        0.039      337.550        9.599      869.632
10/03/2014  02:04:00      -75.469      -50.934        8.411       35.129       30.139       20.169     1234.023      908.367      406.807        0.545        0.127       91.049       20.778        0.052      337.576        9.643      869.656
10/03/2014  02:05:00     -103.098      -81.132        1.222       31.954       31.352       20.634     1021.085      982.922      425.769        0.982        0.121      131.192       20.215        0.024      337.559        9.615      869.666
10/03/2014  02:06:00      -83.739      -46.375       -1.226       32.782       34.151       15.388     1074.673     1166.322      236.804        0.582        0.124       95.723       13.121        0.019      337.606        9.693      869.659
10/03/2014  02:07:00     -119.269      -73.257      -10.082       29.386       24.771       18.433      863.511      613.616      339.785        1.075        0.091      139.970       13.590        0.009      337.620        9.717      869.669
10/03/2014  02:08:00      -97.332      -56.819       -4.046       35.815       26.859       13.807     1282.744      721.415      190.628        0.746        0.110      112.703        8.896        0.006      337.638        9.748      869.680
10/03/2014  02:09:00     -105.994      -61.659       -3.758       19.111       20.854       16.073      365.213      434.882      258.345        0.805        0.053      122.624       10.651        0.008      337.614        9.706      869.685
10/03/2014  02:10:00     -130.850      -66.583      -15.792       18.086       17.230       14.745      327.111      296.865      217.410        1.132        0.042      146.816       11.989        0.007      337.666        9.794      869.690
10/03/2014  02:11:00     -127.859      -68.804       -8.906       18.815       14.879       14.752      353.997      221.398      217.609        1.098        0.040      145.197       10.703        0.005      337.592        9.670      869.700
10/03/2014  02:12:00     -105.619      -52.965       -0.669       35.780       22.947       19.543     1280.244      526.582      381.921        0.807        0.109      118.155       15.015        0.016      337.570        9.634      869.708
10/03/2014  02:13:00     -106.093      -34.420       -5.587       16.354       15.995       12.423      267.439      255.847      154.329        0.657        0.034      111.536        4.553        0.002      337.574        9.642      869.716
10/03/2014  02:14:00     -133.999      -47.116      -13.741       19.434       19.360       14.968      377.662      374.820      224.029        1.067        0.049      142.041        4.965        0.001      337.549        9.597      869.724
10/03/2014  02:15:00     -129.789      -51.702      -12.143       19.714       18.207       16.167      388.622      331.491      261.369        1.032        0.049      139.708       12.971        0.009      337.466        9.459      869.724
10/03/2014  02:16:00     -117.296      -47.670       -4.400       21.699       22.583       15.032      470.866      510.011      225.958        0.863        0.060      126.613       12.362        0.010      337.413        9.370      869.727
10/03/2014  02:17:00     -121.180      -38.935       -5.845       18.255       17.648       11.981      333.252      311.438      143.555        0.851        0.039      127.281        7.257        0.003      337.414        9.371      869.724
10/03/2014  02:18:00     -100.858      -46.214       -4.921       10.699       16.623        8.899      114.476      276.323       79.185        0.640        0.023      110.941        3.973        0.001      337.353        9.270      869.725
10/03/2014  02:19:00     -110.211      -40.168      -13.486       15.654       13.397       10.701      245.062      179.476      114.501        0.724        0.027      117.302        4.870        0.002      337.358        9.279      869.730
10/03/2014  02:20:00     -125.773      -46.375      -16.828       15.612       12.948        9.818      243.734      167.642       96.390        0.938        0.025      134.050        7.527        0.003      337.342        9.253      869.737
10/03/2014  02:21:00     -143.887      -56.637      -14.039       12.388       11.178        9.529      153.466      124.945       90.807        1.224        0.018      154.632        6.315        0.002      337.331        9.233      869.744
10/03/2014  02:22:00     -132.590      -44.882       -7.672       18.520       15.780       11.596      343.003      249.010      134.475        1.019        0.036      139.981        9.806        0.005      337.322        9.217      869.745
10/03/2014  02:23:00     -126.667      -32.884       -8.697       24.952       16.137       11.752      622.626      260.415      138.108        0.911        0.051      130.866        8.146        0.004      337.270        9.132      869.752
10/03/2014  02:24:00     -115.819      -41.586       -8.360       15.159       14.708       12.192      229.804      216.339      148.654        0.790        0.030      123.059        7.622        0.004      337.319        9.213      869.768
10/03/2014  02:25:00     -115.650      -52.958      -10.510       14.938       14.480       10.971      223.130      209.660      120.368        0.842        0.028      127.198        5.374        0.002      337.284        9.154      869.770
10/03/2014  02:26:00     -123.838      -59.794      -16.074       13.727       15.681       11.741      188.426      245.899      137.848        0.987        0.029      137.518        6.063        0.002      337.283        9.152      869.761
10/03/2014  02:27:00     -127.600      -55.971      -12.541       14.602       14.021       11.644      213.226      196.597      135.593        1.006        0.027      139.336        7.436        0.003      337.273        9.135      869.764
10/03/2014  02:28:00     -132.863      -45.767       -8.420       14.898       17.701       12.562      221.949      313.328      157.792        1.026        0.035      140.525        9.179        0.004      337.254        9.103      869.761
10/03/2014  02:29:00     -127.422      -59.619       -8.798       15.483       17.638        8.940      239.727      311.095       79.931        1.025        0.032      140.679        7.730        0.003      337.244        9.089      869.754
10/03/2014  02:30:00     -133.638      -76.210       -8.681       20.584       20.137       12.389      423.683      405.516      153.491        1.236        0.049      153.841       11.161        0.005      337.236        9.074      869.745
10/03/2014  02:31:00     -115.980      -56.839       -4.072       36.616       24.081       17.895     1340.708      579.893      320.244        0.947        0.112      129.158       16.592        0.017      337.201        9.015      869.754
10/03/2014  02:32:00     -105.595      -45.712       -4.044       34.292       31.977       17.160     1175.927     1022.516      294.453        0.787        0.125      115.065       13.549        0.014      337.185        8.989      869.757
10/03/2014  02:33:00     -106.769      -18.775       -2.598       36.740       29.134       18.019     1349.840      848.769      324.667        0.714        0.126      108.407       18.448        0.029      337.212        9.035      869.759
10/03/2014  02:34:00      -90.642      -41.184       -0.229       36.957       35.598       20.359     1365.838     1267.236      414.487        0.648        0.152       99.559       17.061        0.029      337.243        9.085      869.754
10/03/2014  02:35:00     -105.445      -47.123       -5.050       39.529       33.612       22.525     1562.505     1129.745      507.387        0.828        0.160      115.496       19.591        0.029      337.241        9.083      869.747
10/03/2014  02:36:00     -112.556      -57.437       -3.166       31.159       31.204       23.585      970.869      973.672      556.267        0.924        0.125      126.364       15.268        0.015      337.250        9.097      869.750
10/03/2014  02:37:00     -131.974      -59.047       -3.229       30.997       34.901       19.030      960.837     1218.072      362.124        1.173        0.127      144.581       16.128        0.012      337.226        9.057      869.739
10/03/2014  02:38:00     -105.031      -51.742        2.623       32.871       30.436       15.529     1080.510      926.326      241.153        0.798        0.112      117.085       11.530        0.010      337.299        9.181      869.734
10/03/2014  02:39:00      -67.678      -57.647        1.887       27.031       22.262       16.497      730.659      495.613      272.144        0.470        0.075       88.902       12.617        0.020      337.276        9.141      869.749
10/03/2014  02:40:00      -83.426      -48.469        0.239       25.008       23.934       14.591      625.409      572.833      212.899        0.536        0.071       96.484       17.484        0.033      337.258        9.110      869.758
10/03/2014  02:41:00      -70.779      -25.409       -0.896       27.721       17.289       12.435      768.481      298.910      154.624        0.344        0.061       75.202       10.077        0.018      337.302        9.185      869.762
10/03/2014  02:42:00      -47.513      -44.996       -4.097       32.329       24.165       18.695     1045.134      583.927      349.488        0.314        0.099       65.438       12.298        0.035      337.354        9.271      869.756
10/03/2014  02:43:00      -78.128      -65.743       -9.972       16.933       16.042       11.715      286.726      257.355      137.233        0.560        0.034      102.109        7.426        0.005      337.379        9.313      869.760
10/03/2014  02:44:00      -82.506      -50.213       -7.757       19.364       17.644       11.920      374.948      311.299      142.096        0.511        0.041       96.584        6.425        0.004      337.409        9.365      869.762
10/03/2014  02:45:00      -66.471      -54.272       -2.619       30.398       19.307       14.462      924.009      372.770      209.151        0.444        0.075       85.813       11.013        0.016      337.380        9.314      869.764
10/03/2014  02:46:00      -82.828      -52.354       -0.775       33.049       23.447       16.839     1092.256      549.761      283.558        0.576        0.096       97.986       13.479        0.019      337.404        9.355      869.760
10/03/2014  02:47:00      -63.486      -46.741        2.005       29.505       26.422       17.302      870.536      698.139      299.351        0.404        0.093       78.836       14.748        0.035      337.381        9.317      869.758
10/03/2014  02:48:00      -59.490      -36.373        0.940       36.032       26.546       20.989     1298.281      704.687      440.517        0.365        0.122       69.729       13.871        0.040      337.406        9.358      869.752
10/03/2014  02:49:00      -87.161      -68.093       -1.622       39.746       35.347       24.093     1579.745     1249.431      580.463        0.782        0.170      110.606       20.236        0.033      337.247        9.094      869.740
10/03/2014  02:50:00      -80.082      -54.224        0.774       45.941       30.910       18.805     2110.563      955.451      353.620        0.639        0.171       96.713       19.253        0.040      337.265        9.123      869.738
10/03/2014  02:51:00      -81.407      -60.928       -5.007       41.220       39.458       24.998     1699.051     1556.959      624.903        0.712        0.194      101.682       20.326        0.040      337.194        9.005      869.734
10/03/2014  02:52:00      -75.988      -61.307       -1.427       43.693       35.188       20.552     1909.081     1238.184      422.378        0.655        0.178       97.636       21.054        0.046      337.180        8.979      869.746
10/03/2014  02:53:00      -92.557      -47.296       -3.772       19.819       18.177       17.557      392.797      330.397      308.232        0.592        0.052      103.941       11.906        0.013      337.189        8.995      869.741
10/03/2014  02:54:00      -95.222      -46.751       -4.220       21.541       14.736       12.733      464.012      217.138      162.133        0.606        0.042      106.080       10.904        0.011      337.178        8.978      869.735
10/03/2014  02:55:00      -77.726      -47.166       -6.392       25.489       16.412       14.466      649.664      269.344      209.258        0.472        0.056       90.918       11.390        0.016      337.158        8.942      869.739
10/03/2014  02:56:00      -80.157      -45.146       -8.087       36.312       17.875       15.909     1318.554      319.521      253.107        0.521        0.095       91.996       14.686        0.025      337.184        8.986      869.742
10/03/2014  02:57:00      -53.549      -41.029        0.497       33.075       21.230       17.860     1093.941      450.702      318.969        0.321        0.093       67.460       13.303        0.039      337.122        8.882      869.739
10/03/2014  02:58:00      -52.674      -32.881        4.239       33.960       22.544       16.255     1153.250      508.245      264.215        0.290        0.096       62.094       14.090        0.051      337.071        8.799      869.740
10/03/2014  02:59:00      -71.565      -42.070        0.180       25.533       18.157       14.663      651.912      329.685      215.014        0.404        0.060       83.015        9.883        0.014      337.104        8.852      869.742
10/03/2014  03:00:00      -78.568      -45.219       -2.959       32.430       21.034       14.088     1051.724      442.433      198.460        0.496        0.085       90.651        3.888        0.002      337.145        8.921      869.756
10/03/2014  03:01:00      -82.854      -53.204       -2.855       32.247       24.070       16.746     1039.843      579.342      280.421        0.580        0.095       98.465       14.344        0.021      337.092        8.832      869.772
10/03/2014  03:02:00      -52.456      -29.144        4.119       37.901       26.402       17.992     1436.516      697.054      323.707        0.304        0.123       60.009       17.927        0.089      337.150        8.928      869.780
10/03/2014  03:03:00      -78.347      -45.343        1.361       40.370       25.379       19.157     1629.720      644.105      367.000        0.542        0.132       90.522       20.372        0.051      337.105        8.855      869.773
10/03/2014  03:04:00      -69.924      -43.525        3.728       49.092       30.296       19.557     2409.994      917.853      382.479        0.525        0.186       82.364       21.169        0.066      337.084        8.818      869.764
10/03/2014  03:05:00      -61.618      -40.451        0.743       41.127       25.289       22.225     1691.456      639.532      493.970        0.413        0.141       73.709       21.331        0.084      337.085        8.820      869.756
10/03/2014  03:06:00      -84.358      -70.676       -4.642       40.260       38.672       19.251     1620.838     1495.494      370.600        0.781        0.174      110.052       16.924        0.024      337.140        8.913      869.739
10/03/2014  03:07:00      -74.089      -57.264        4.752       29.044       36.379       20.196      843.567     1323.397      407.893        0.568        0.129       93.639       18.092        0.037      337.081        8.814      869.720
10/03/2014  03:08:00     -110.886      -54.498       -0.668       30.584       23.674       19.300      935.389      560.472      372.496        0.857        0.093      123.555       17.567        0.020      337.086        8.821      869.691
10/03/2014  03:09:00     -110.287      -45.600       -2.792       13.760       17.649       12.590      189.343      311.477      158.519        0.745        0.033      119.342        7.842        0.004      337.113        8.867      869.667
10/03/2014  03:10:00      -95.111      -52.785       -2.997       28.521       24.603       17.146      813.445      605.300      293.985        0.678        0.086      108.777       14.978        0.019      337.090        8.830      869.658
10/03/2014  03:11:00     -110.872      -48.987        1.327       28.515       21.758       15.806      813.092      473.412      249.836        0.812        0.077      121.212       14.985        0.015      337.051        8.763      869.653
10/03/2014  03:12:00     -104.272      -53.740        5.114       33.277       24.265       18.523     1107.339      588.796      343.120        0.791        0.102      117.306       17.821        0.023      337.011        8.697      869.642
10/03/2014  03:13:00     -130.258      -60.066       -6.894       23.689       17.875       14.903      561.161      319.531      222.086        1.086        0.055      143.440       14.534        0.010      337.063        8.784      869.632
10/03/2014  03:14:00     -116.651      -65.358       -8.228       21.959       18.805       13.422      482.215      353.626      180.163        0.948        0.051      133.712        2.962        0.000      337.024        8.718      869.632
10/03/2014  03:15:00      -56.585      -38.200        0.589       34.843       24.363       19.728     1214.014      593.548      389.178        0.343        0.110       68.272       19.995        0.086      336.940        8.579      869.645
10/03/2014  03:16:00      -53.014      -46.468        3.377       42.091       27.374       20.130     1771.678      749.316      405.203        0.395        0.146       70.497       14.586        0.043      336.970        8.628      869.644
10/03/2014  03:17:00      -78.934      -62.876       -1.754       33.743       22.125       19.816     1138.581      489.502      392.673        0.610        0.101      100.916       13.618        0.018      336.963        8.617      869.634
10/03/2014  03:18:00      -74.237      -48.879        5.783       46.038       32.163       23.608     2119.532     1034.469      557.327        0.582        0.186       88.884       22.256        0.063      336.900        8.512      869.633
10/03/2014  03:19:00      -76.415      -41.757        4.458       40.748       29.211       17.300     1660.412      853.289      299.278        0.521        0.141       87.079       15.706        0.033      336.854        8.434      869.647
10/03/2014  03:20:00      -82.139      -64.992       -0.412       32.590       24.599       15.856     1062.084      605.117      251.406        0.644        0.096      104.742       10.504        0.010      336.918        8.541      869.653
10/03/2014  03:21:00      -56.477      -39.154        2.246       34.258       24.294       17.970     1173.607      590.202      322.921        0.341        0.104       68.721       20.394        0.088      336.893        8.499      869.649
10/03/2014  03:22:00      -60.001      -47.781        1.253       34.469       23.350       18.061     1188.097      545.227      326.198        0.397        0.103       76.701       15.421        0.040      336.931        8.563      869.643
10/03/2014  03:23:00      -66.864      -53.228       -5.394       43.429       24.000       18.396     1886.097      575.992      338.402        0.507        0.140       85.464       16.935        0.039      336.892        8.498      869.639
10/03/2014  03:24:00      -57.854      -40.727        1.784       40.509       18.048       15.910     1641.000      325.726      253.120        0.361        0.111       70.751       15.828        0.050      336.843        8.416      869.635
10/03/2014  03:25:00      -60.399      -41.281        1.396       32.405       19.632       16.635     1050.108      385.428      276.732        0.353        0.086       73.159       14.948        0.042      336.868        8.458      869.629
10/03/2014  03:26:00      -42.577      -35.677        1.588       40.664       29.508       19.883     1653.569      870.733      395.319        0.300        0.146       55.549       17.342        0.097      336.840        8.412      869.627
10/03/2014  03:27:00      -73.933      -64.728        2.826       23.466       24.986       14.469      550.670      624.305      209.359        0.552        0.069       98.264        7.815        0.006      336.893        8.500      869.625
10/03/2014  03:28:00      -74.527      -58.290       -3.737       40.872       25.172       17.958     1670.515      633.626      322.497        0.580        0.131       94.615       18.353        0.038      336.890        8.495      869.638
10/03/2014  03:29:00      -86.532      -60.723       -1.873       37.874       24.590       18.163     1434.410      604.655      329.910        0.677        0.118      105.712       18.660        0.031      336.856        8.439      869.631
10/03/2014  03:30:00      -72.497      -52.988        1.332       40.589       27.950       24.396     1647.436      781.216      595.143        0.554        0.151       89.797       24.763        0.076      336.801        8.346      869.617
10/03/2014  03:31:00     -113.617      -55.150       -2.883       27.284       20.252       15.156      744.432      410.151      229.692        0.867        0.069      126.295       13.369        0.011      336.824        8.386      869.610
10/03/2014  03:32:00     -104.042      -55.223       -5.720       22.914       14.843       14.371      525.072      220.308      206.531        0.743        0.048      117.789       13.889        0.014      336.828        8.393      869.618
10/03/2014  03:33:00      -92.532      -56.161       -7.981       26.709       15.036       18.521      713.350      226.092      343.028        0.653        0.064      108.241       16.166        0.022      336.899        8.508      869.622
10/03/2014  03:34:00      -80.470      -35.422       -4.010       33.037       24.350       16.450     1091.452      592.913      270.611        0.485        0.098       87.922       17.270        0.039      336.880        8.478      869.621
10/03/2014  03:35:00     -110.198      -56.865       -8.325       18.015       14.005        9.854      324.529      196.135       97.111        0.803        0.031      124.005        6.343        0.003      336.913        8.532      869.619
10/03/2014  03:36:00     -104.609      -55.909       -6.200       12.690       13.261       12.739      161.044      175.855      162.286        0.730        0.025      118.612        7.850        0.004      336.875        8.470      869.620
10/03/2014  03:37:00     -109.888      -42.105      -13.242        9.766       14.330        8.363       95.382      205.361       69.939        0.720        0.019      117.678        5.120        0.002      336.881        8.480      869.638
10/03/2014  03:38:00     -105.846      -44.567      -13.783       11.207       14.529        9.828      125.595      211.097       96.587        0.691        0.022      114.845        5.185        0.002      336.850        8.428      869.626
10/03/2014  03:39:00      -91.593      -46.431      -11.666       10.463        9.598        7.427      109.475       92.128       55.158        0.547        0.013      102.690        4.544        0.002      336.823        8.383      869.617
10/03/2014  03:40:00      -99.759      -48.475      -10.381       15.854       13.404       10.709      251.337      179.678      114.674        0.648        0.027      110.913        5.426        0.002      336.841        8.416      869.611
10/03/2014  03:41:00      -91.213      -45.895       -8.082       23.794       14.364       11.164      566.136      206.319      124.637        0.569        0.045      102.109        8.631        0.007      336.886        8.488      869.614
10/03/2014  03:42:00      -65.455      -40.406       -8.698       21.743       11.819       11.213      472.771      139.695      125.740        0.337        0.037       76.922        6.753        0.008      336.904        8.518      869.620
10/03/2014  03:43:00      -58.456      -53.422       -2.251       17.529       18.575       13.031      307.257      345.045      169.810        0.355        0.041       79.190        9.824        0.015      336.961        8.613      869.631
10/03/2014  03:44:00      -70.815      -47.454       -6.600       30.772       22.458       15.774      946.921      504.353      248.835        0.450        0.085       85.245        9.686        0.013      336.962        8.615      869.646
10/03/2014  03:45:00      -92.306      -50.445       -8.349       14.701       17.301       10.958      216.123      299.333      120.088        0.589        0.032      105.191        6.693        0.004      336.936        8.571      869.648
10/03/2014  03:46:00      -92.845      -30.808       -1.909       12.366       18.503       11.608      152.923      342.376      134.749        0.510        0.032       97.823        9.191        0.009      336.857        8.441      869.661
10/03/2014  03:47:00      -62.706      -39.648       -5.237       27.182       14.849       12.032      738.859      220.494      144.759        0.332        0.055       74.189       10.180        0.019      336.779        8.312      869.666
10/03/2014  03:48:00      -76.407      -49.714       -9.650       19.692       14.810       10.519      387.788      219.329      110.647        0.456        0.036       91.156        6.915        0.006      336.793        8.333      869.670
10/03/2014  03:49:00      -88.346      -45.811       -7.221       15.301       19.211       12.816      234.106      369.046      164.246        0.536        0.038       99.517        9.117        0.008      336.697        8.174      869.675
10/03/2014  03:50:00      -88.264      -46.135      -10.899       12.078       11.931       10.966      145.887      142.355      120.258        0.522        0.020       99.594        7.036        0.005      336.630        8.063      869.681
10/03/2014  03:51:00      -86.772      -58.973       -8.531       21.489       19.786       12.683      461.774      391.481      160.848        0.605        0.051      104.915        9.551        0.008      336.682        8.149      869.670
10/03/2014  03:52:00      -89.561      -52.087       -1.225       20.599       27.642       17.280      424.324      764.068      298.586        0.611        0.074      103.606       17.752        0.029      336.654        8.102      869.657
10/03/2014  03:53:00      -82.540      -54.621        0.204       27.401       18.784       12.559      750.815      352.824      157.737        0.553        0.063       98.976        4.057        0.002      336.646        8.088      869.663
10/03/2014  03:54:00      -87.778      -62.734       -8.553       19.967       22.070       11.844      398.690      487.105      140.272        0.637        0.051      107.891        9.887        0.008      336.704        8.187      869.671
10/03/2014  03:55:00      -77.653      -45.855       -6.141       45.045       18.269       12.836     2029.018      333.758      164.752        0.535        0.126       90.181       13.678        0.023      336.655        8.103      869.675
10/03/2014  03:56:00      -56.403      -32.099       10.027       35.795       26.885       18.945     1281.301      722.788      358.899        0.334        0.118       64.897       20.419        0.099      336.607        8.023      869.674
10/03/2014  03:57:00     -116.486      -66.308       -3.403       29.741       26.182       19.917      884.527      685.491      396.700        0.997        0.098      134.037       17.208        0.016      336.623        8.050      869.676
10/03/2014  03:58:00     -108.600      -48.106        0.238       33.852       26.402       20.835     1145.936      697.042      434.103        0.819        0.114      118.778       16.728        0.020      336.625        8.053      869.669
10/03/2014  03:59:00      -80.416      -62.331        4.680       38.649       32.040       22.039     1493.710     1026.534      485.716        0.669        0.150      101.744       17.070        0.028      336.616        8.038      869.674
10/03/2014  04:00:00      -87.594      -54.055        6.122       34.523       29.075       17.454     1191.824      845.346      304.656        0.649        0.117      102.930       17.896        0.030      336.600        8.011      869.690
10/03/2014  04:01:00      -87.301      -39.217        4.205       23.391       20.135       19.198      547.130      405.431      368.561        0.525        0.066       95.705       13.252        0.019      336.503        7.849      869.705
10/03/2014  04:02:00      -84.413      -36.564       -2.335       20.912       16.449       14.358      437.323      270.563      206.145        0.469        0.046       91.992       12.417        0.018      336.597        8.007      869.715
10/03/2014  04:03:00      -49.050      -36.778        7.144       34.766       28.756       23.569     1208.657      826.917      555.514        0.320        0.130       61.307       23.912        0.152      336.570        7.962      869.705
10/03/2014  04:04:00      -53.572      -41.835       -6.364       38.228       29.380       16.095     1461.354      863.177      259.046        0.362        0.129       67.972       15.033        0.049      336.579        7.976      869.710
10/03/2014  04:05:00      -95.982      -56.362       -4.682       29.242       21.254       14.935      855.114      451.738      223.063        0.697        0.076      111.307       11.505        0.011      336.501        7.846      869.717
10/03/2014  04:06:00     -103.932      -43.517       -3.166       21.329       21.523       13.490      454.905      463.244      181.991        0.690        0.055      112.675       10.233        0.008      336.482        7.814      869.713
10/03/2014  04:07:00      -86.727      -46.893       -3.998       23.464       17.723       14.921      550.542      314.113      222.631        0.541        0.054       98.593        5.991        0.004      336.499        7.842      869.715
10/03/2014  04:08:00      -88.216      -41.008        1.807       21.978       17.214       13.647      483.013      296.311      186.228        0.522        0.048       97.281        4.251        0.002      336.487        7.824      869.713
10/03/2014  04:09:00      -90.853      -42.609       -6.117       19.494       19.942       14.013      379.997      397.701      196.351        0.554        0.049      100.348        6.934        0.005      336.529        7.891      869.716
10/03/2014  04:10:00      -99.409      -40.171      -11.449        9.671       15.434        8.609       93.525      238.203       74.110        0.602        0.020      107.218        4.355        0.002      336.497        7.839      869.720
10/03/2014  04:11:00      -88.215      -28.298       -9.324       10.984       12.058        9.238      120.646      145.396       85.332        0.451        0.018       92.642        3.515        0.001      336.527        7.890      869.721
10/03/2014  04:12:00     -106.583      -34.568       -9.542       13.050       15.204       10.450      170.313      231.153      109.203        0.658        0.026      112.049        6.942        0.004      336.556        7.937      869.717
10/03/2014  04:13:00     -114.585      -33.182       -9.646       11.101       14.673        9.490      123.238      215.294       90.052        0.738        0.021      119.293        5.905        0.002      336.540        7.911      869.726
10/03/2014  04:14:00     -104.980      -44.917       -9.236        8.115        9.801        7.854       65.850       96.058       61.688        0.667        0.011      114.186        2.663        0.001      336.521        7.878      869.735
10/03/2014  04:15:00     -101.716      -46.052      -12.898        9.238        8.618        8.587       85.333       74.274       73.730        0.643        0.012      111.655        3.203        0.001      336.495        7.837      869.732
10/03/2014  04:16:00     -105.777      -45.593       -9.977       15.346       13.794       10.035      235.490      190.270      100.696        0.695        0.026      115.185        6.745        0.003      336.500        7.843      869.727
10/03/2014  04:17:00     -112.518      -51.555      -12.891       14.194       12.555        9.312      201.479      157.625       86.718        0.797        0.022      123.767        5.401        0.002      336.483        7.813      869.718
10/03/2014  04:18:00      -98.597      -52.345      -17.518       12.132       10.718        8.871      147.177      114.878       78.687        0.655        0.017      111.631        3.939        0.001      336.424        7.717      869.709
10/03/2014  04:19:00      -92.336      -38.359       -8.289       10.144       10.383        6.830      102.892      107.801       46.653        0.516        0.013       99.987        5.300        0.003      336.466        7.787      869.702
10/03/2014  04:20:00      -82.669      -42.143      -10.102       11.370       12.060        8.159      129.279      145.443       66.570        0.453        0.017       92.791        3.327        0.001      336.529        7.892      869.703
10/03/2014  04:21:00      -91.274      -37.958      -13.346       10.852       13.920       11.028      117.772      193.776      121.623        0.519        0.022       98.852        5.257        0.003      336.601        8.013      869.709
10/03/2014  04:22:00      -94.682      -43.218       -9.711       13.197       15.494       11.873      174.165      240.059      140.972        0.574        0.028      104.079        5.383        0.003      336.606        8.024      869.708
10/03/2014  04:23:00      -85.310      -48.951       -9.718       25.180       16.041       14.057      634.047      257.328      197.599        0.543        0.054       98.356       13.021        0.018      336.612        8.032      869.715
10/03/2014  04:24:00      -69.853      -51.586       -7.860       20.593       15.142       12.449      424.072      229.283      154.975        0.421        0.040       86.837        8.213        0.009      336.554        7.935      869.717
10/03/2014  04:25:00      -68.423      -50.350      -10.147       23.076       13.302       14.353      532.499      176.936      206.012        0.412        0.046       84.952        6.745        0.006      336.585        7.986      869.727
10/03/2014  04:26:00      -83.997      -47.181       -7.906       15.176       11.639       11.827      230.301      135.469      139.867        0.492        0.025       96.341        7.674        0.006      336.523        7.881      869.739
10/03/2014  04:27:00      -79.279      -44.050       -4.497       21.691       13.974       13.482      470.493      195.259      181.762        0.455        0.042       90.695       11.001        0.015      336.480        7.810      869.741
10/03/2014  04:28:00      -73.824      -49.921      -12.296       19.928       10.623        9.674      397.108      112.840       93.581        0.435        0.030       89.118        6.283        0.005      336.491        7.830      869.737
10/03/2014  04:29:00      -93.183      -49.788       -6.297       12.313       10.999       10.511      151.600      120.970      110.489        0.579        0.019      105.650        5.135        0.002      336.445        7.753      869.732
10/03/2014  04:30:00      -93.479      -55.786       -3.415       18.465       19.693       11.132      340.967      387.808      123.913        0.636        0.043      108.859       10.976        0.010      336.464        7.783      869.734
10/03/2014  04:31:00      -92.294      -56.896       -5.944       28.091       18.832        9.540      789.082      354.650       91.006        0.651        0.062      108.422        2.489        0.001      336.488        7.824      869.733
10/03/2014  04:32:00      -65.622      -50.789       -2.139       26.821       20.230       15.813      719.366      409.246      250.065        0.413        0.069       82.981       13.064        0.025      336.446        7.753      869.732
10/03/2014  04:33:00      -94.565      -54.008       -3.059       24.361       16.434       14.879      593.447      270.083      221.389        0.648        0.054      108.901       11.077        0.010      336.372        7.629      869.729
10/03/2014  04:34:00      -98.378      -46.481        2.338       22.012       20.069       13.006      484.531      402.748      169.161        0.645        0.053      108.805       11.495        0.011      336.338        7.573      869.729
10/03/2014  04:35:00      -98.518      -51.899       -4.727       28.969       18.131       13.779      839.226      328.730      189.858        0.689        0.068      111.352       12.988        0.014      336.373        7.632      869.730
10/03/2014  04:36:00      -96.669      -47.166        0.625       20.509       18.049       14.109      420.617      325.782      199.062        0.626        0.047      107.562       12.258        0.013      336.409        7.690      869.731
10/03/2014  04:37:00      -95.184      -43.711       -8.328       16.299       22.947       12.862      265.641      526.571      165.424        0.600        0.048      104.740        6.599        0.004      336.436        7.737      869.743
10/03/2014  04:38:00     -100.062      -27.118       -8.539       12.014       16.937        8.003      144.347      286.856       64.046        0.566        0.025      103.672        3.054        0.001      336.430        7.726      869.753
10/03/2014  04:39:00      -96.877      -38.495      -10.718       12.562       12.041        7.767      157.796      144.988       60.325        0.567        0.018      104.245        4.608        0.002      336.386        7.652      869.758
10/03/2014  04:40:00     -106.027      -27.544       -9.552       11.172       12.114        9.616      124.810      146.750       92.472        0.623        0.018      109.547        4.511        0.002      336.399        7.675      869.767
10/03/2014  04:41:00      -86.002      -30.761       -5.933       14.945       14.598        8.265      223.340      213.092       68.318        0.444        0.025       91.338        6.675        0.005      336.420        7.711      869.788
10/03/2014  04:42:00      -69.748      -36.134       -0.396       15.907       15.012       10.561      253.030      225.372      111.533        0.338        0.029       78.552        8.161        0.011      336.408        7.689      869.799
10/03/2014  04:43:00      -65.810      -38.316       -3.555       16.556       11.961       10.800      274.094      143.072      116.639        0.317        0.027       76.152        7.682        0.010      336.414        7.700      869.805
10/03/2014  04:44:00      -49.281      -26.688        4.306       24.462       17.985       16.574      598.402      323.466      274.696        0.218        0.060       56.043       14.317        0.065      336.319        7.541      869.801
10/03/2014  04:45:00      -45.142      -26.971        5.193       28.018       21.116       18.742      784.987      445.874      351.271        0.219        0.079       52.585       18.578        0.125      336.303        7.515      869.813
10/03/2014  04:46:00      -76.959      -44.355       -0.323       20.196       17.402       14.565      407.889      302.839      212.135        0.441        0.046       88.826       10.265        0.013      336.355        7.601      869.828
10/03/2014  04:47:00      -59.364      -39.415        3.004       25.076       20.147       17.833      628.803      405.911      318.017        0.322        0.068       71.258       16.428        0.053      336.330        7.558      869.822
10/03/2014  04:48:00      -62.111      -43.005       -3.784       22.575       11.128       15.636      509.646      123.842      244.492        0.330        0.044       75.547       14.193        0.035      336.330        7.560      869.824
10/03/2014  04:49:00      -90.965      -42.285       -9.429       11.340       15.677       10.530      128.589      245.779      110.881        0.532        0.024      100.313        7.913        0.006      336.355        7.601      869.830
10/03/2014  04:50:00      -90.562      -53.274       -9.601       13.620       11.458       11.356      185.512      131.291      128.966        0.579        0.022      105.069        6.362        0.004      336.381        7.645      869.835
10/03/2014  04:51:00      -89.417      -45.167       -9.118       15.056       15.782       10.716      226.673      249.085      114.825        0.535        0.030      100.177        7.047        0.005      336.423        7.715      869.847
10/03/2014  04:52:00     -104.020      -50.128       -8.688       11.239       13.130       10.264      126.309      172.394      105.349        0.691        0.020      115.469        6.953        0.004      336.431        7.728      869.853
10/03/2014  04:53:00      -95.977      -54.693      -13.956       13.193       10.090        8.054      174.046      101.803       64.865        0.637        0.017      110.467        3.854        0.001      336.388        7.655      869.866
10/03/2014  04:54:00     -112.142      -52.894       -7.183        9.023       17.548        8.324       81.419      307.926       69.295        0.794        0.023      123.990        5.543        0.002      336.354        7.599      869.872
10/03/2014  04:55:00     -108.318      -46.087      -12.378       13.941       14.095       11.450      194.359      198.677      131.109        0.727        0.026      117.715        6.170        0.003      336.279        7.474      869.872
10/03/2014  04:56:00     -114.665      -34.820       -8.382       13.203       12.716       10.379      174.321      161.699      107.723        0.744        0.022      119.835        6.465        0.003      336.311        7.527      869.881
10/03/2014  04:57:00     -109.010      -42.651      -13.634       10.876       11.598        9.002      118.279      134.521       81.040        0.711        0.017      117.057        3.778        0.001      336.302        7.512      869.889
10/03/2014  04:58:00     -115.597      -48.789      -12.479       10.268       11.472        8.156      105.434      131.598       66.522        0.810        0.015      125.472        4.605        0.001      336.329        7.557      869.888
10/03/2014  04:59:00     -104.955      -51.408       -9.324       13.523       12.888       10.818      182.872      166.089      117.024        0.711        0.023      116.869        7.094        0.004      336.303        7.513      869.888
10/03/2014  05:00:00     -117.794      -52.536       -9.007       12.700       14.325        8.224      161.278      205.198       67.630        0.858        0.022      128.978        6.320        0.002      336.308        7.523      869.890
10/03/2014  05:01:00     -111.177      -53.361       -3.369       28.634       15.464       15.265      819.908      239.148      233.024        0.826        0.065      123.320       14.989        0.015      336.254        7.431      869.900
10/03/2014  05:02:00     -120.447      -59.874       -4.541       20.942       17.642       11.519      438.571      311.234      132.677        0.950        0.044      134.508       10.591        0.006      336.227        7.386      869.919
10/03/2014  05:03:00      -85.061      -49.276       -0.317       29.045       18.021       18.204      843.593      324.743      331.397        0.558        0.075       98.303        8.889        0.008      336.144        7.248      869.927
10/03/2014  05:04:00      -86.716      -52.242        2.851       26.729       23.469       21.626      714.464      550.773      467.679        0.599        0.087      101.237       19.575        0.037      336.101        7.175      869.945
10/03/2014  05:05:00      -66.096      -39.140        8.749       40.681       28.593       23.959     1654.921      817.553      574.052        0.451        0.152       76.815       20.337        0.070      336.081        7.142      869.962
10/03/2014  05:06:00      -95.442      -58.335        2.756       43.814       29.204       24.895     1919.633      852.879      619.737        0.796        0.170      111.858       22.548        0.041      336.149        7.256      869.978
10/03/2014  05:07:00      -60.046      -51.760       -1.111       38.822       28.062       20.802     1507.162      787.501      432.729        0.451        0.136       79.276       16.700        0.044      336.138        7.238      869.996
10/03/2014  05:08:00      -76.232      -43.150        3.105       31.797       24.446       17.328     1011.066      597.611      300.251        0.480        0.095       87.597       17.625        0.040      336.162        7.279      870.002
10/03/2014  05:09:00      -89.558      -57.808       -6.122       29.175       26.506       15.794      851.175      702.559      249.461        0.660        0.090      106.595       14.792        0.019      336.176        7.302      870.009
10/03/2014  05:10:00      -98.325      -64.101       -9.450       21.019       22.761       16.776      441.796      518.042      281.440        0.755        0.062      117.374        8.511        0.005      336.191        7.327      870.016
10/03/2014  05:11:00      -80.127      -73.158      -11.104       24.792       21.878       12.406      614.651      478.649      153.916        0.657        0.062      108.501        9.411        0.008      336.247        7.418      870.022
10/03/2014  05:12:00      -85.782      -36.827       -5.720       22.005       22.153       15.778      484.233      490.749      248.939        0.499        0.061       93.353       10.004        0.011      336.196        7.336      870.026
10/03/2014  05:13:00      -69.567      -60.487       -4.242       33.198       28.442       17.531     1102.135      808.965      307.339        0.537        0.111       92.186       14.405        0.024      336.227        7.387      870.021
10/03/2014  05:14:00      -87.179      -46.545       -2.474       38.444       26.172       17.978     1477.923      684.977      323.203        0.613        0.124       98.826       17.890        0.033      336.209        7.357      870.013
10/03/2014  05:15:00      -94.160      -53.535       -1.709       29.969       26.742       20.924      898.148      715.152      437.832        0.689        0.103      108.315       14.810        0.019      336.173        7.296      870.012
10/03/2014  05:16:00     -100.385      -47.476        2.353       39.278       26.504       18.058     1542.783      702.461      326.096        0.745        0.129      111.046       17.407        0.025      336.179        7.307      870.019
10/03/2014  05:17:00      -65.068      -46.180        3.731       43.362       31.398       25.132     1880.302      985.834      631.601        0.494        0.175       79.789       26.877        0.113      336.125        7.216      870.019
10/03/2014  05:18:00      -70.956      -31.882        7.503       45.383       30.688       25.028     2059.604      941.731      626.394        0.487        0.181       77.790       26.415        0.115      336.067        7.120      870.015
10/03/2014  05:19:00      -71.209      -43.643        6.226       31.753       27.836       22.313     1008.224      774.839      497.890        0.465        0.114       83.519       19.126        0.052      336.054        7.097      870.020
10/03/2014  05:20:00      -42.616      -36.287        2.156       40.152       26.283       18.986     1612.204      690.788      360.454        0.290        0.133       55.972       16.958        0.092      336.062        7.110      870.037
10/03/2014  05:21:00      -87.626      -56.327        0.799       33.545       31.006       24.531     1125.253      961.362      601.788        0.677        0.134      104.169       15.359        0.022      336.073        7.130      870.031
10/03/2014  05:22:00      -83.453      -55.946        3.562       35.548       25.451       19.423     1263.628      647.733      377.263        0.620        0.114      100.471       16.111        0.026      336.051        7.094      870.024
10/03/2014  05:23:00     -117.948      -61.550       -0.371       25.259       24.900       19.782      638.027      620.015      391.319        0.967        0.082      133.042       13.755        0.011      336.013        7.029      870.015
10/03/2014  05:24:00      -61.023      -26.526        3.801       43.954       22.639       17.423     1931.918      512.503      303.575        0.359        0.137       66.539       16.816        0.064      336.000        7.008      870.015
10/03/2014  05:25:00      -57.618      -41.140        6.801       46.578       32.704       23.619     2169.502     1069.536      557.868        0.443        0.190       70.798       25.402        0.129      336.037        7.070      870.008
10/03/2014  05:26:00      -84.270      -62.293        1.468       31.146       24.540       20.003      970.096      602.224      400.106        0.648        0.099      104.794       17.247        0.027      336.072        7.128      869.995
10/03/2014  05:27:00      -96.853      -40.469       -5.818       24.423       27.565       15.647      596.461      759.830      244.821        0.633        0.080      104.968       13.185        0.016      336.084        7.148      869.984
10/03/2014  05:28:00     -114.918      -62.795       -6.357       17.993       17.117       13.016      323.746      292.977      169.407        0.899        0.039      130.956        9.126        0.005      336.097        7.168      869.977
10/03/2014  05:29:00     -104.688      -65.354       -3.347       23.836       19.398       15.247      568.155      376.272      232.474        0.821        0.059      123.413       14.842        0.014      336.089        7.157      869.994
10/03/2014  05:30:00      -96.128      -40.599       -4.805       18.362       23.820       11.558      337.167      567.414      133.590        0.597        0.052      104.350        9.675        0.009      336.152        7.262      870.006
10/03/2014  05:31:00      -68.085      -32.442        3.833       24.260       18.015       15.207      588.539      324.547      231.263        0.342        0.057       75.419       13.466        0.032      336.090        7.157      870.013
10/03/2014  05:32:00      -72.083      -23.883       -0.981       27.480       19.330       15.203      755.142      373.637      231.132        0.356        0.068       75.936       13.109        0.030      336.066        7.118      870.013
10/03/2014  05:33:00      -82.624      -25.647       -5.202       25.192       22.206       12.319      634.650      493.093      151.751        0.440        0.064       86.513        6.809        0.006      336.070        7.124      870.031
10/03/2014  05:34:00     -102.295      -17.578       -5.075       26.823       18.254       14.381      719.493      333.209      206.811        0.603        0.063      103.795       14.352        0.019      336.024        7.047      870.047
10/03/2014  05:35:00      -95.706       -5.150       -8.475       22.491       13.157       11.935      505.867      173.110      142.445        0.504        0.041       95.844        8.140        0.007      335.939        6.907      870.052
10/03/2014  05:36:00     -109.220      -22.557       -5.451       20.202       14.093       13.461      408.114      198.600      181.203        0.663        0.039      111.525       11.349        0.010      335.968        6.954      870.056
10/03/2014  05:37:00      -90.061      -15.128       -4.124       28.886       19.013       16.566      834.415      361.483      274.433        0.491        0.074       91.323       13.416        0.022      335.914        6.866      870.062
10/03/2014  05:38:00      -98.517      -29.274       -6.106       25.381       18.767       16.691      644.195      352.205      278.591        0.594        0.064      102.775       13.237        0.017      335.905        6.851      870.074
10/03/2014  05:39:00      -86.142      -43.898        0.717       28.447       26.874       15.514      809.239      722.231      240.675        0.556        0.089       96.682       14.883        0.024      335.962        6.944      870.073
10/03/2014  05:40:00      -97.989      -28.154       -2.123       25.959       21.421       13.499      673.848      458.879      182.228        0.586        0.066      101.953       10.533        0.011      335.965        6.950      870.077
10/03/2014  05:41:00      -92.659      -23.936       -2.493       21.395       18.546       13.810      457.759      343.966      190.725        0.508        0.050       95.701       11.702        0.015      335.939        6.906      870.086
10/03/2014  05:42:00      -79.878      -19.158       -5.542       29.549       17.536       16.484      873.172      307.527      271.712        0.412        0.073       82.143       15.539        0.036      335.904        6.847      870.101
10/03/2014  05:43:00      -94.391      -52.041       -3.332       14.936       19.757       13.159      223.077      390.353      173.148        0.621        0.039      107.786       10.005        0.009      335.897        6.837      870.116
10/03/2014  05:44:00      -94.284      -42.621       -8.600       30.150       30.212       14.554      909.023      912.740      211.818        0.641        0.102      103.470       16.076        0.024      335.853        6.764      870.132
10/03/2014  05:45:00     -115.741      -33.255       -5.558       19.724       17.367       15.241      389.055      301.597      232.279        0.773        0.046      120.424       13.112        0.012      335.848        6.755      870.146
10/03/2014  05:46:00     -114.043      -34.091       -6.052       15.562       14.099       11.434      242.172      198.775      130.747        0.739        0.029      119.029        6.243        0.003      335.954        6.932      870.149
10/03/2014  05:47:00      -79.804      -34.386       -4.318       21.854       22.050       14.734      477.608      486.215      217.079        0.438        0.059       86.897       11.988        0.019      336.050        7.091      870.154
10/03/2014  05:48:00      -98.501      -19.670       -9.571       18.950       16.105       14.543      359.089      259.368      211.493        0.551        0.041      100.446       10.353        0.011      336.026        7.052      870.164
10/03/2014  05:49:00     -102.196      -36.906      -10.498       15.381       17.487       13.498      236.586      305.793      182.209        0.632        0.036      108.655        9.916        0.008      336.100        7.175      870.178
10/03/2014  05:50:00     -101.768      -29.710       -7.375       21.243       16.983       11.970      451.253      288.435      143.272        0.609        0.044      106.016       12.403        0.014      336.092        7.161      870.180
10/03/2014  05:51:00      -86.319      -23.581       -5.922       23.224       17.839       17.290      539.371      318.227      298.954        0.460        0.058       89.482       12.884        0.021      336.040        7.074      870.186
10/03/2014  05:52:00      -89.136      -15.009       -1.818       29.536       20.738       15.357      872.349      430.072      235.845        0.486        0.077       90.391       13.763        0.023      335.969        6.956      870.193
10/03/2014  05:53:00      -92.253      -35.460       -3.782       22.837       15.370       10.494      521.506      236.230      110.130        0.532        0.043       98.833        9.989        0.010      336.005        7.016      870.199
10/03/2014  05:54:00      -86.628      -46.935       -2.990       23.169       18.360       10.722      536.801      337.083      114.954        0.535        0.049       98.525        8.432        0.007      335.973        6.963      870.203
10/03/2014  05:55:00      -88.303      -39.672       -2.224       23.063       19.627       13.857      531.908      385.238      192.026        0.524        0.055       96.806       12.044        0.015      335.942        6.911      870.216
10/03/2014  05:56:00      -84.766      -51.941       -6.753       17.773       18.852        9.769      315.895      355.379       95.438        0.535        0.038       99.414        8.159        0.007      336.015        7.033      870.217
10/03/2014  05:57:00      -66.870      -46.358       -0.758       33.699       20.343       13.957     1135.628      413.850      194.808        0.418        0.087       81.367       11.835        0.021      335.980        6.975      870.219
10/03/2014  05:58:00      -68.115      -38.386        1.556       26.425       21.789       14.509      698.301      474.769      210.525        0.375        0.069       78.187       12.102        0.024      335.966        6.951      870.220
10/03/2014  05:59:00      -62.722      -59.503       -2.499       31.219       26.349       14.985      974.625      694.274      224.557        0.469        0.095       86.456       10.671        0.015      336.038        7.070      870.230
10/03/2014  06:00:00      -67.643      -59.330       -1.030       30.319       28.800       18.315      919.245      829.458      335.428        0.509        0.104       89.976       15.689        0.030      336.036        7.067      870.232
10/03/2014  06:01:00      -56.703      -58.349       -3.179       37.604       34.875       21.895     1414.095     1216.265      479.390        0.487        0.155       81.362       23.602        0.084      335.984        6.982      870.235
10/03/2014  06:02:00      -93.243      -53.977       -4.611       18.084       24.767       14.870      327.026      613.382      221.110        0.640        0.058      107.740       10.456        0.009      336.009        7.022      870.242
10/03/2014  06:03:00      -85.190      -46.511       -4.329       25.788       20.159       16.168      665.004      406.397      261.401        0.539        0.067       97.060       13.672        0.020      335.972        6.961      870.261
10/03/2014  06:04:00     -108.365      -51.904       -8.938       14.498       12.308        9.032      210.193      151.493       81.569        0.748        0.022      120.154        4.466        0.001      335.970        6.957      870.279
10/03/2014  06:05:00      -88.246      -63.967       -3.012       30.273       17.627       15.971      916.451      310.697      255.067        0.669        0.074      108.992       11.965        0.012      335.923        6.879      870.284
10/03/2014  06:06:00      -99.575      -48.707       -4.314       19.963       19.387       13.405      398.529      375.854      179.689        0.663        0.048      110.850        8.397        0.006      335.915        6.866      870.287
10/03/2014  06:07:00      -80.479      -45.385       -0.022       26.181       20.511       19.774      685.466      420.684      391.003        0.502        0.075       92.394       17.075        0.034      335.859        6.774      870.283
10/03/2014  06:08:00      -66.726      -40.285        3.844       26.001       23.880       20.416      676.051      570.249      416.808        0.388        0.083       77.944       18.745        0.058      335.903        6.845      870.279
10/03/2014  06:09:00      -76.477      -46.966       -2.598       25.381       14.917       13.264      644.220      222.508      175.940        0.455        0.052       89.747        9.302        0.011      335.923        6.880      870.272
10/03/2014  06:10:00      -36.550      -35.273        5.563       35.491       21.537       17.628     1259.594      463.826      310.763        0.232        0.102       50.794       17.718        0.122      335.943        6.914      870.273
10/03/2014  06:11:00      -55.644      -35.094        2.881       32.702       14.946       14.220     1069.436      223.391      202.218        0.292        0.075       65.786       15.525        0.056      335.914        6.865      870.276
10/03/2014  06:12:00      -96.582      -38.070       -2.306       16.419       14.120        9.209      269.593      199.381       84.810        0.567        0.028      103.815        9.482        0.008      335.935        6.900      870.290
10/03/2014  06:13:00      -98.941      -35.701       -7.308       12.565       15.050        9.130      157.869      226.511       83.365        0.579        0.023      105.185        7.623        0.005      335.944        6.915      870.292
10/03/2014  06:14:00      -76.789      -29.472       -3.182       19.782       16.666       10.232      391.328      277.742      104.692        0.377        0.039       82.251        8.898        0.012      335.945        6.916      870.308
10/03/2014  06:15:00      -87.396      -33.866       -5.201       13.645       16.405       11.839      186.190      269.117      140.171        0.470        0.030       93.728        7.701        0.007      335.937        6.902      870.312
10/03/2014  06:16:00      -85.025      -27.647       -7.628       13.688       15.254       11.330      187.360      232.691      128.380        0.430        0.027       89.407        6.690        0.006      335.903        6.847      870.316
10/03/2014  06:17:00      -88.107      -41.450       -6.830       13.820       11.798        9.246      190.990      139.203       85.493        0.497        0.021       97.370        6.975        0.005      335.892        6.829      870.317
10/03/2014  06:18:00      -78.150      -34.503       -5.946       16.683       16.308        8.878      278.319      265.950       78.819        0.398        0.031       85.428        3.137        0.001      335.902        6.844      870.319
10/03/2014  06:19:00      -81.804      -36.360       -4.323       19.163       11.964       13.824      367.232      143.139      191.090        0.437        0.035       89.520        9.740        0.012      335.896        6.836      870.320
10/03/2014  06:20:00      -76.950      -24.937       -4.853       19.270       13.577       13.436      371.346      184.329      180.513        0.365        0.037       80.890       12.870        0.025      335.887        6.820      870.320
10/03/2014  06:21:00      -94.561      -50.394       -7.377       13.428       17.075       12.581      180.303      291.556      158.286        0.608        0.032      107.151        8.233        0.006      335.869        6.789      870.317
10/03/2014  06:22:00      -96.131      -53.468       -4.835       17.445       18.455       10.731      304.336      340.570      115.154        0.644        0.038      110.000        5.263        0.002      335.873        6.797      870.312
10/03/2014  06:23:00     -101.572      -35.708       -6.917       14.715       15.527       11.891      216.541      241.089      141.398        0.612        0.030      107.666        3.976        0.001      335.832        6.729      870.309
10/03/2014  06:24:00      -79.113      -46.651       -3.989       19.771       12.867       10.364      390.875      165.551      107.410        0.456        0.033       91.843        8.717        0.009      335.861        6.777      870.303
10/03/2014  06:25:00      -80.450      -38.124       -9.006       15.632       11.693       10.402      244.347      136.733      108.197        0.425        0.024       89.026        3.700        0.002      335.886        6.818      870.303
10/03/2014  06:26:00      -89.609      -30.672      -12.219       10.123        9.573        7.607      102.480       91.648       57.865        0.469        0.013       94.713        6.077        0.004      335.850        6.759      870.297
10/03/2014  06:27:00      -69.707      -38.630       -3.630       15.916       13.369       11.571      253.311      178.737      133.878        0.347        0.028       79.695        9.170        0.013      335.857        6.770      870.296
10/03/2014  06:28:00      -62.151      -40.899       -2.494       16.822       15.298       12.055      282.978      234.019      145.331        0.310        0.033       74.401        7.015        0.009      335.894        6.831      870.292
10/03/2014  06:29:00      -39.260      -32.435        7.643       27.262       18.341       17.232      743.196      336.381      296.936        0.201        0.069       50.926       17.109        0.113      335.839        6.739      870.295
10/03/2014  06:30:00      -35.826      -30.264       -0.076       31.444       14.890       17.706      988.698      221.713      313.506        0.186        0.076       46.898       18.333        0.153      335.813        6.696      870.301
10/03/2014  06:31:00      -56.979      -27.233        0.816       16.264       13.152       10.635      264.512      172.977      113.097        0.227        0.028       63.153        5.081        0.006      335.772        6.629      870.306
10/03/2014  06:32:00      -69.251      -39.008       -4.146       16.565       11.428       11.991      274.384      130.596      143.777        0.344        0.027       79.482        9.503        0.014      335.794        6.665      870.309
10/03/2014  06:33:00      -58.158      -33.249        0.904       27.232       17.122       15.081      741.604      293.146      227.422        0.288        0.063       66.991       14.816        0.049      335.688        6.489      870.312
10/03/2014  06:34:00      -47.916      -38.743       -3.183       21.911       17.207       15.435      480.107      296.087      238.224        0.241        0.051       61.620        7.304        0.014      335.755        6.600      870.322
10/03/2014  06:35:00      -46.658      -35.218       -0.304       26.602       17.949       13.346      707.677      322.164      178.104        0.231        0.060       58.458        9.768        0.028      335.809        6.690      870.337
10/03/2014  06:36:00      -37.024      -28.138        5.060       29.010       15.750       15.591      841.553      248.060      243.087        0.176        0.067       46.503       12.739        0.075      335.831        6.728      870.353
10/03/2014  06:37:00      -55.723      -37.142        5.248       41.436       24.732       19.763     1716.976      611.650      390.586        0.362        0.136       66.967       16.557        0.061      335.782        6.647      870.357
10/03/2014  06:38:00      -65.406      -50.188       -3.238       29.931       24.535       11.637      895.867      601.959      135.425        0.422        0.082       82.442        9.825        0.014      335.851        6.761      870.356
10/03/2014  06:39:00      -84.644      -50.692       -7.495       28.754       21.870       14.303      826.784      478.300      204.565        0.565        0.075       98.663       14.038        0.020      335.795        6.666      870.363
10/03/2014  06:40:00      -70.950      -37.336       -3.897       25.313       19.579       15.826      640.744      383.326      250.461        0.386        0.064       80.174        9.984        0.016      335.718        6.538      870.372
10/03/2014  06:41:00      -79.204      -35.860       -0.160       33.661       22.049       14.533     1133.037      486.165      211.215        0.469        0.092       86.944       11.121        0.016      335.738        6.573      870.389
10/03/2014  06:42:00      -79.935      -53.176        0.307       39.864       20.464       17.770     1589.153      418.758      315.768        0.577        0.116       96.007       18.338        0.036      335.659        6.442      870.401
10/03/2014  06:43:00      -74.098      -48.456        4.120       33.396       24.264       19.779     1115.299      588.764      391.198        0.498        0.105       88.535       17.594        0.039      335.659        6.441      870.418
10/03/2014  06:44:00      -58.303      -45.204        3.225       33.278       28.178       18.193     1107.445      793.974      331.002        0.384        0.112       73.774       15.912        0.047      335.707        6.521      870.437
10/03/2014  06:45:00      -55.875      -43.347        3.439       31.850       27.111       14.606     1014.432      735.000      213.344        0.349        0.098       70.718       16.331        0.053      335.762        6.611      870.449
10/03/2014  06:46:00      -85.390      -43.243       -0.020       25.722       20.648       16.704      661.602      426.330      279.017        0.526        0.068       95.715       15.815        0.027      335.744        6.582      870.458
10/03/2014  06:47:00      -78.209      -48.969       -0.469       22.655       18.247       13.789      513.241      332.969      190.145        0.478        0.052       92.275       11.222        0.015      335.751        6.594      870.466
10/03/2014  06:48:00      -67.032      -47.409       -0.328       36.762       19.951       15.466     1351.415      398.023      239.200        0.436        0.099       82.103       17.108        0.043      335.772        6.628      870.472
10/03/2014  06:49:00      -87.405      -20.990       -2.768       19.237       16.806       13.671      370.060      282.431      186.906        0.446        0.042       89.890       10.328        0.013      335.786        6.653      870.479
10/03/2014  06:50:00      -58.212      -10.666        1.631       24.205       13.039       16.048      585.890      170.018      257.525        0.226        0.051       59.181       14.722        0.062      335.627        6.385      870.482
10/03/2014  06:51:00      -85.360      -11.865       -7.075       15.955       13.765       12.844      254.551      189.480      164.975        0.404        0.030       86.181        8.652        0.010      335.604        6.347      870.492
10/03/2014  06:52:00      -73.377      -21.169       -4.720       26.329       17.100       13.244      693.204      292.417      175.402        0.351        0.058       76.369       10.496        0.019      335.662        6.445      870.506
10/03/2014  06:53:00      -86.039      -16.609       -5.823       25.968       17.481       13.165      674.320      305.581      173.315        0.443        0.058       87.627       12.405        0.020      335.558        6.272      870.511
10/03/2014  06:54:00      -90.762      -14.915      -10.939       17.850       16.324       13.735      318.636      266.473      188.641        0.468        0.039       91.980        9.266        0.010      335.597        6.337      870.522
10/03/2014  06:55:00      -90.628      -20.302       -5.646       20.086       19.315       15.013      403.432      373.066      225.390        0.483        0.050       92.874        9.393        0.010      335.561        6.277      870.525
10/03/2014  06:56:00      -81.609      -18.683       -0.383       26.691       24.044       15.993      712.406      578.117      255.777        0.428        0.077       83.721       12.389        0.022      335.562        6.278      870.536
10/03/2014  06:57:00      -80.922      -14.107       -0.571       35.109       22.374       16.428     1232.651      500.596      269.889        0.438        0.100       82.142       15.522        0.036      335.404        6.016      870.551
10/03/2014  06:58:00     -101.919      -17.003       -8.738       22.158       21.166       12.604      490.988      447.982      158.873        0.593        0.055      103.327       11.212        0.012      335.464        6.114      870.563
10/03/2014  06:59:00     -126.514       -9.741      -14.742       18.216       12.739       10.963      331.833      162.292      120.187        0.847        0.031      126.888        7.075        0.003      335.465        6.117      870.577
10/03/2014  07:00:00      -92.103      -23.198       -4.350       23.366       17.249       15.595      545.964      297.518      243.199        0.506        0.054       94.979       11.333        0.014      335.502        6.180      870.593
10/03/2014  07:01:00      -87.566      -26.219       -7.149       24.706       18.300       13.564      610.393      334.893      183.988        0.477        0.056       91.407       11.966        0.017      335.566        6.285      870.613
10/03/2014  07:02:00     -104.976      -23.974       -2.285       31.304       18.940       19.484      979.968      358.742      379.616        0.666        0.086      107.678       19.711        0.034      335.511        6.193      870.626
10/03/2014  07:03:00     -111.930      -31.737       -7.431       23.327       18.757       13.954      544.169      351.817      194.702        0.734        0.055      116.343       11.780        0.010      335.500        6.173      870.636
10/03/2014  07:04:00     -101.410      -38.112       -9.613       29.508       22.124       14.679      870.732      489.493      215.482        0.670        0.079      108.335       13.445        0.015      335.523        6.215      870.646
10/03/2014  07:05:00      -99.733      -32.008       -6.320       26.009       25.300       16.682      676.467      640.102      278.303        0.630        0.080      104.744       15.348        0.021      335.542        6.245      870.651
10/03/2014  07:06:00      -81.086      -48.400        1.140       25.434       24.344       16.512      646.892      592.641      272.631        0.522        0.076       94.432        8.128        0.007      335.598        6.339      870.651
10/03/2014  07:07:00      -84.362      -41.355        0.450       29.945       20.835       14.344      896.720      434.111      205.745        0.518        0.077       93.953       15.039        0.026      335.599        6.339      870.657
10/03/2014  07:08:00      -83.263      -25.663       -5.885       31.950       19.188       14.081     1020.831      368.198      198.261        0.461        0.079       87.128       16.028        0.034      335.546        6.251      870.667
10/03/2014  07:09:00      -94.806      -15.854      -12.154       19.229       16.480       10.246      369.762      271.585      104.971        0.507        0.037       96.122        8.777        0.008      335.589        6.324      870.668
10/03/2014  07:10:00     -105.209      -45.232       -8.798       19.743       14.907       11.624      389.805      222.229      135.119        0.697        0.037      114.520       10.476        0.008      335.631        6.393      870.665
10/03/2014  07:11:00     -129.082      -42.329      -15.863       13.962       15.581       10.797      194.939      242.758      116.585        0.963        0.028      135.845        5.855        0.002      335.643        6.415      870.658
10/03/2014  07:12:00     -104.510      -39.862       -6.053       24.361       19.507       13.651      593.459      380.531      186.351        0.685        0.058      111.854       12.086        0.012      335.629        6.391      870.648
10/03/2014  07:13:00     -111.767      -46.978      -11.150       14.248       18.425        9.792      202.998      339.472       95.889        0.773        0.032      121.239        7.078        0.003      335.650        6.426      870.640
10/03/2014  07:14:00      -83.823      -42.685       -0.227       43.975       26.718       16.088     1933.815      713.878      258.816        0.588        0.145       94.065       19.274        0.042      335.637        6.405      870.642
10/03/2014  07:15:00      -72.863      -40.322       -3.527       32.328       24.953       18.787     1045.107      622.631      352.949        0.448        0.101       83.276       20.227        0.059      335.669        6.459      870.646
10/03/2014  07:16:00      -93.514      -40.146       -7.305       16.030       12.185       10.368      256.947      148.468      107.492        0.546        0.026      101.767        6.850        0.005      335.685        6.485      870.653
10/03/2014  07:17:00      -90.150      -29.858       -6.129       12.006       11.784       10.338      144.140      138.861      106.864        0.472        0.019       94.966        2.950        0.001      335.670        6.459      870.660
10/03/2014  07:18:00      -78.257      -41.426       -8.579       13.727       11.839       10.854      188.421      140.150      117.811        0.418        0.022       88.546        5.712        0.004      335.718        6.539      870.661
10/03/2014  07:19:00      -74.886      -40.195       -9.807       24.935       12.998       10.082      621.732      168.943      101.640        0.411        0.045       84.991        9.962        0.014      335.707        6.520      870.658
10/03/2014  07:20:00      -66.800      -41.666        1.070       28.671       16.509       16.086      822.012      272.560      258.748        0.378        0.068       78.729       13.499        0.029      335.672        6.462      870.665
10/03/2014  07:21:00      -73.309      -53.926       -0.505       27.829       25.378       18.637      774.445      644.021      347.354        0.502        0.088       91.007       15.695        0.030      335.685        6.485      870.678
10/03/2014  07:22:00      -61.208      -42.451       -2.291       31.286       22.682       17.758      978.843      514.474      315.342        0.368        0.090       74.489       18.121        0.059      335.674        6.467      870.694
10/03/2014  07:23:00      -96.919      -69.105       -5.513       25.366       30.588       17.187      643.459      935.637      295.381        0.804        0.094      119.033       12.260        0.011      335.776        6.634      870.707
10/03/2014  07:24:00     -103.750      -29.174       -5.376       26.296       18.707       18.486      691.464      349.956      341.719        0.651        0.069      107.774        9.354        0.008      335.803        6.680      870.724
10/03/2014  07:25:00      -94.985      -38.107        3.140       37.335       23.877       18.558     1393.866      570.122      344.387        0.640        0.115      102.344       17.695        0.030      335.834        6.731      870.743
10/03/2014  07:26:00      -97.754      -39.944      -12.455       20.119       17.719       12.775      404.755      313.973      163.196        0.609        0.044      105.600       10.338        0.010      335.882        6.810      870.759
10/03/2014  07:27:00      -65.280      -24.912       -8.662       21.953       14.426       13.195      481.946      208.109      174.098        0.291        0.043       69.872       11.603        0.028      335.905        6.849      870.758
10/03/2014  07:28:00      -54.045      -35.773       -0.999       40.439       24.260       19.403     1635.336      588.525      376.458        0.340        0.130       64.812       23.446        0.131      335.912        6.861      870.769
10/03/2014  07:29:00      -68.653      -44.590       -7.533       13.086       13.706       11.904      171.256      187.865      141.695        0.363        0.025       81.863        5.760        0.005      335.916        6.867      870.773
10/03/2014  07:30:00      -87.062      -34.549       -2.654       14.582       22.137        9.251      212.635      490.067       85.575        0.478        0.039       93.666        6.790        0.005      335.924        6.882      870.772
10/03/2014  07:31:00      -81.409      -49.698       -4.502       19.897       16.630       13.944      395.878      276.543      194.429        0.499        0.043       95.380       12.545        0.017      335.861        6.776      870.764
10/03/2014  07:32:00      -92.091      -36.832       -5.038       13.047       18.649       12.615      170.224      347.774      159.133        0.527        0.034       99.183       11.138        0.013      335.907        6.854      870.765
10/03/2014  07:33:00      -80.509      -42.042       -5.893       24.920       20.871       13.867      621.003      435.598      192.300        0.477        0.062       90.825       11.774        0.017      336.010        7.025      870.775
10/03/2014  07:34:00      -56.397       -0.578       -4.919       25.407       13.034       12.635      645.509      169.887      159.656        0.209        0.049       56.400       10.628        0.036      336.029        7.055      870.795
10/03/2014  07:35:00      -74.938      -30.720       -0.741       14.271       17.126        9.610      203.664      293.316       92.346        0.357        0.029       80.990        7.975        0.010      336.087        7.152      870.803
10/03/2014  07:36:00      -57.044      -26.467        1.060       30.874       13.636       11.065      953.204      185.927      122.432        0.261        0.063       62.885       12.756        0.041      336.145        7.250      870.819
10/03/2014  07:37:00      -87.266      -35.552       -6.043       13.571       19.243       11.292      184.184      370.297      127.506        0.480        0.034       94.229        7.613        0.007      336.191        7.326      870.816
10/03/2014  07:38:00      -48.141      -30.460        6.038       35.699       18.449       14.452     1274.438      340.364      208.863        0.255        0.091       56.968       11.606        0.042      336.294        7.500      870.824
10/03/2014  07:39:00      -84.253      -40.626       -2.553       24.814       16.748       14.280      615.743      280.497      203.915        0.493        0.055       93.537       11.458        0.015      336.231        7.393      870.820
10/03/2014  07:40:00      -70.966      -20.659       -5.317       16.163       13.984        9.147      261.245      195.553       83.672        0.302        0.027       73.912        5.745        0.006      336.276        7.468      870.826
10/03/2014  07:41:00      -74.039      -26.423        0.648       19.734       11.965       12.345      389.417      143.157      152.399        0.343        0.034       78.613        9.118        0.013      336.335        7.568      870.834
10/03/2014  07:42:00      -62.819      -24.234       -1.841       16.054       17.759       13.137      257.723      315.377      172.574        0.264        0.037       67.331       11.482        0.029      336.377        7.637      870.842
10/03/2014  07:43:00      -70.482      -24.996       -6.002       13.020       11.967        7.339      169.533      143.199       53.854        0.300        0.018       74.783        3.719        0.002      336.389        7.658      870.862
10/03/2014  07:44:00      -64.455      -13.923       -7.774       11.377        9.457        8.997      129.433       89.432       80.954        0.235        0.015       65.942        6.993        0.011      336.392        7.664      870.879
10/03/2014  07:45:00      -51.070      -18.400       -7.636       14.713        9.390        9.181      216.472       88.178       84.289        0.170        0.019       54.284        6.951        0.016      336.464        7.784      870.881
10/03/2014  07:46:00      -55.022      -21.159       -9.982       11.635        9.865        8.135      135.368       97.310       66.184        0.194        0.015       58.950        5.052        0.007      336.492        7.830      870.886
10/03/2014  07:47:00      -51.519      -13.482       -6.459       12.402        9.188        6.531      153.801       84.419       42.657        0.158        0.014       53.254        7.084        0.018      336.560        7.943      870.884
10/03/2014  07:48:00      -46.322      -20.870       -4.613        9.757        5.405        6.879       95.195       29.212       47.316        0.139        0.009       50.806        2.754        0.003      336.576        7.971      870.881
10/03/2014  07:49:00      -28.065      -10.597       -3.926       16.169       11.400        8.117      261.445      129.951       65.890        0.069        0.023       29.999        8.765        0.085      336.633        8.066      870.883
10/03/2014  07:50:00      -16.112      -19.332        2.625       10.881       11.614        8.930      118.400      134.891       79.752        0.049        0.017       25.166        5.633        0.050      336.691        8.165      870.888
10/03/2014  07:51:00      -25.773      -12.215        1.599       10.432        5.525        7.288      108.821       30.522       53.120        0.050        0.010       28.521        6.933        0.059      336.688        8.159      870.888
10/03/2014  07:52:00      -41.689       -7.613       -2.914        7.374        6.218        3.703       54.369       38.660       13.713        0.096        0.005       42.379        2.141        0.003      336.601        8.013      870.898
10/03/2014  07:53:00      -35.201      -12.139       -3.219        7.685        7.051        4.652       59.066       49.722       21.645        0.076        0.007       37.235        4.374        0.014      336.743        8.251      870.914
10/03/2014  07:54:00      -30.919      -10.929       -2.488       15.054        6.960        6.465      226.630       48.435       41.794        0.070        0.016       32.793        4.803        0.021      336.748        8.259      870.928
10/03/2014  07:55:00      -29.712      -20.668        0.693       25.161       15.434        9.752      633.094      238.219       95.104        0.114        0.048       36.194       10.865        0.090      336.843        8.416      870.947
10/03/2014  07:56:00      -53.595      -28.977       -7.243       12.352       12.467        8.837      152.572      155.435       78.091        0.208        0.019       60.927        1.900        0.001      336.872        8.465      870.960
10/03/2014  07:57:00      -34.638      -31.632        0.631       22.676       21.344       10.308      514.201      455.558      106.248        0.164        0.054       46.908        8.614        0.034      336.883        8.485      870.971
10/03/2014  07:58:00      -29.749      -21.351        3.277       17.322       13.399       10.536      300.039      179.542      111.003        0.097        0.030       36.618        8.702        0.056      336.905        8.522      870.978
10/03/2014  07:59:00      -39.349      -29.136        1.164       18.180       11.655        7.760      330.510      135.850       60.212        0.146        0.026       48.962        6.616        0.018      336.919        8.543      870.981
10/03/2014  08:00:00      -29.918      -26.831        0.656       19.014       12.741       11.649      361.551      162.334      135.706        0.114        0.033       40.187        9.995        0.062      336.985        8.652      870.994
10/03/2014  08:01:00      -32.013      -15.754       -0.418       14.346       13.325        8.738      205.810      177.544       76.348        0.087        0.023       35.679        5.974        0.028      336.979        8.641      871.005
10/03/2014  08:02:00      -18.338      -17.333       -0.437       18.596       15.006       12.807      345.800      225.191      164.024        0.069        0.037       25.233        9.636        0.146      337.096        8.839      871.012
10/03/2014  08:03:00      -54.050      -28.924       -8.897       10.875        9.725        8.277      118.255       94.582       68.506        0.206        0.014       61.303        4.570        0.006      337.042        8.749      871.031
10/03/2014  08:04:00      -33.752      -54.173       -5.731       16.962       31.304       10.763      287.712      979.963      115.843        0.274        0.069       63.827        5.824        0.008      337.047        8.756      871.062
10/03/2014  08:05:00      -28.605      -38.671        1.797       17.876       23.649       13.062      319.566      559.273      170.618        0.168        0.052       48.101        9.386        0.038      337.098        8.842      871.074
10/03/2014  08:06:00      -33.708      -20.699       -3.043       25.598       20.682       13.297      655.255      427.734      176.822        0.142        0.063       39.556       13.859        0.123      337.128        8.891      871.084
10/03/2014  08:07:00      -54.924      -34.319       -7.680       28.986       14.685       11.203      840.214      215.651      125.517        0.272        0.059       64.764        8.579        0.018      337.041        8.745      871.092
10/03/2014  08:08:00      -46.526      -30.399        0.615       20.753       24.445       14.029      430.681      597.557      196.824        0.216        0.061       55.577       12.237        0.048      337.077        8.807      871.103
10/03/2014  08:09:00      -31.989      -39.919        2.397       19.265       18.101       11.675      371.148      327.642      136.308        0.173        0.042       51.155       12.433        0.059      337.122        8.882      871.116
10/03/2014  08:10:00      -33.864      -31.717       -3.770       12.620       15.136       10.125      159.272      229.099      102.508        0.133        0.025       46.397        4.952        0.011      337.129        8.893      871.121
10/03/2014  08:11:00      -12.157      -19.378       -0.915       10.420       17.556        8.833      108.576      308.198       78.018        0.051        0.025       22.876        6.541        0.082      337.308        9.196      871.130
10/03/2014  08:12:00       -8.751       -3.426        4.648       11.713       10.073       10.054      137.192      101.459      101.090        0.022        0.017        9.398        7.779        0.685      337.611        9.702      871.135
10/03/2014  08:13:00      -14.217      -18.331        6.690       12.409       16.152        9.662      153.985      260.877       93.355        0.055        0.025       23.198        3.359        0.021      337.443        9.419      871.147
10/03/2014  08:14:00        1.042      -13.707       23.080       16.930       21.596       17.270      286.631      466.374      298.239        0.089        0.053       13.747       13.126        0.912      337.728        9.898      871.152
10/03/2014  08:15:00       -9.218      -10.701       17.798       11.809       22.915       12.701      139.447      525.115      161.319        0.067        0.041       14.124        6.872        0.237      337.856       10.113      871.150
10/03/2014  08:16:00      -27.440       -1.380        8.263       10.590       10.935       11.884      112.151      119.568      141.237        0.060        0.019       27.474        6.311        0.053      337.454        9.438      871.151
10/03/2014  08:17:00      -34.953      -19.699      -10.334       14.552       17.330       10.370      211.775      300.341      107.540        0.117        0.031       40.122        5.187        0.017      337.524        9.555      871.163
10/03/2014  08:18:00      -16.750      -11.115       -2.636       15.389       10.622       10.203      236.807      112.818      104.103        0.043        0.023       20.102        4.808        0.057      337.554        9.607      871.171
10/03/2014  08:19:00       -5.750        0.491       12.011       18.756       16.009       18.431      351.782      256.274      339.712        0.056        0.047        5.771       10.541        3.337      337.928       10.235      871.177
10/03/2014  08:20:00      -37.004      -13.142       -3.624       14.603       15.323        9.256      213.236      234.798       85.665        0.104        0.027       39.268        8.261        0.044      337.430        9.399      871.184
10/03/2014  08:21:00      -37.943      -18.818       -2.424       17.484       10.503        8.362      305.698      110.311       69.927        0.114        0.024       42.353        5.798        0.019      337.421        9.382      871.189
10/03/2014  08:22:00      -39.029      -31.391       -4.179       21.773        9.564        9.875      474.051       91.479       97.516        0.159        0.033       50.087        9.620        0.037      337.439        9.412      871.200
10/03/2014  08:23:00      -40.825       -7.916       -1.854       13.025       13.451       11.552      169.642      180.923      133.449        0.111        0.024       41.586        9.343        0.050      337.545        9.590      871.213
10/03/2014  08:24:00      -35.686        5.148        4.843       11.100        7.827        6.700      123.220       61.267       44.891        0.078        0.011       36.056        3.187        0.008      337.544        9.588      871.225
10/03/2014  08:25:00      -12.881       24.523       34.866       11.773       14.223       14.360      138.595      202.292      206.215        0.126        0.027       27.700       10.290        0.138      338.193       10.677      871.233
10/03/2014  08:26:00       50.117       42.571       33.316       17.170       14.084       15.470      294.812      198.351      239.322        0.308        0.037       65.757        8.348        0.016      337.706        9.860      871.234
10/03/2014  08:27:00       39.025       46.392       26.037       19.076       12.629       17.871      363.881      159.482      319.386        0.260        0.042       60.623        8.403        0.019      337.609        9.698      871.239
10/03/2014  08:28:00        2.271       37.235       29.579       19.328       21.417       16.220      373.589      458.696      263.086        0.168        0.055       37.304        9.984        0.072      338.177       10.651      871.239
10/03/2014  08:29:00       10.578       18.408       26.047       28.026       26.970       19.919      785.464      727.391      396.769        0.152        0.095       21.231       13.982        0.434      338.237       10.751      871.240
10/03/2014  08:30:00       29.394      -37.373        2.406       40.754       35.202       23.160     1660.923     1239.155      536.380        0.285        0.172       47.547       20.281        0.182      337.855       10.110      871.241
10/03/2014  08:31:00       24.873       29.256      -13.907       20.655       24.094       15.292      426.614      580.511      233.847        0.145        0.062       38.400        6.634        0.030      337.857       10.116      871.250
10/03/2014  08:32:00       38.051       36.142        8.721       37.580       24.523       21.319     1412.242      601.393      454.480        0.265        0.123       52.480       19.584        0.139      338.146       10.599      871.251
10/03/2014  08:33:00        4.061       -3.812       29.744       16.540       17.958        8.542      273.559      322.489       72.967        0.079        0.033        5.570        4.096        0.541      338.528       11.240      871.254
10/03/2014  08:34:00       -0.649       12.478       10.948       19.070       24.046       21.797      363.667      578.189      475.102        0.085        0.071       12.495       16.253        1.692      338.120       10.555      871.255
10/03/2014  08:35:00       -7.332       28.390       30.452       16.737       17.718       18.964      280.141      313.937      359.629        0.137        0.048       29.322       11.103        0.143      338.338       10.922      871.260
10/03/2014  08:36:00       18.300       33.576       45.975       29.953       25.181       21.249      897.177      634.071      451.517        0.278        0.099       38.239       20.037        0.275      338.449       11.108      871.272
10/03/2014  08:37:00       79.162       32.698       10.641       34.657       25.541       28.824     1201.093      652.362      830.804        0.507        0.134       85.649       22.083        0.066      338.113       10.544      871.271
10/03/2014  08:38:00       64.142       53.270       18.346       25.185       26.178       21.065      634.268      685.302      443.748        0.453        0.088       83.378       13.704        0.027      338.029       10.402      871.279
10/03/2014  08:39:00       63.775       52.548       20.116       34.061       29.622       28.186     1160.144      877.474      794.423        0.503        0.142       82.635       12.128        0.022      338.013       10.375      871.280
10/03/2014  08:40:00      116.879       59.268      -11.066       31.816       32.392       29.800     1012.274     1049.267      888.021        1.012        0.147      131.047       12.024        0.008      337.857       10.115      871.283
10/03/2014  08:41:00       89.368       40.670        7.725       50.746       37.494       32.303     2575.197     1405.776     1043.456        0.736        0.251       98.186       23.902        0.059      338.095       10.512      871.291
10/03/2014  08:42:00       89.732       71.163       14.714       31.622       22.908       20.218      999.973      524.782      408.781        0.763        0.097      114.525        6.754        0.003      338.084       10.495      871.288
10/03/2014  08:43:00       58.195       62.045       35.377       47.724       34.768       33.718     2277.618     1208.804     1136.911        0.655        0.231       85.066       29.525        0.120      338.415       11.050      871.295
10/03/2014  08:44:00       38.059       41.630       24.804       34.482       31.378       29.218     1189.018      984.594      853.663        0.341        0.151       56.405       16.661        0.087      338.380       10.993      871.298
10/03/2014  08:45:00       49.822       53.078       38.919       44.499       36.434       34.281     1980.151     1327.429     1175.172        0.565        0.224       72.797       21.783        0.090      338.415       11.052      871.307
10/03/2014  08:46:00       62.286       31.573       -0.003       41.434       34.004       18.371     1716.811     1156.272      337.499        0.404        0.161       69.831       16.019        0.053      338.051       10.440      871.319
10/03/2014  08:47:00       68.171       52.045       23.033       55.502       30.918       40.702     3080.475      955.928     1656.616        0.679        0.285       85.767       26.471        0.095      338.191       10.675      871.327
10/03/2014  08:48:00       79.033       64.661       30.886       43.826       29.963       25.709     1920.741      897.784      660.934        0.743        0.174      102.114       19.327        0.036      338.094       10.513      871.335
10/03/2014  08:49:00       75.363       57.275       10.844       38.252       24.478       26.677     1463.208      599.163      711.652        0.593        0.139       94.657       16.214        0.029      338.014       10.379      871.342
10/03/2014  08:50:00       35.108       37.869       42.541       33.266       46.060       29.713     1106.648     2121.560      882.880        0.429        0.206       51.640       29.958        0.337      338.417       11.054      871.345
10/03/2014  08:51:00       42.541       28.921       14.211       35.646       31.313       19.750     1270.661      980.535      390.052        0.274        0.132       51.441       17.818        0.120      338.530       11.245      871.340
10/03/2014  08:52:00       79.439       62.261       16.850       35.535       36.826       27.289     1262.735     1356.128      744.713        0.692        0.168      100.931       13.450        0.018      338.298       10.855      871.341
10/03/2014  08:53:00       82.426       67.785        0.778       21.068       22.409       17.751      443.857      502.161      315.082        0.633        0.063      106.719       11.645        0.012      338.017       10.383      871.340
10/03/2014  08:54:00       16.027       38.258       10.036       21.864       28.427       22.760      478.018      808.119      518.009        0.181        0.090       41.480       17.444        0.177      338.386       11.002      871.337
10/03/2014  08:55:00       33.025       53.693        2.581       19.496       29.045       27.065      380.099      843.638      732.537        0.297        0.098       63.036       22.983        0.133      338.354       10.947      871.332
10/03/2014  08:56:00       27.593       58.368       -0.962       37.851       24.764       24.332     1432.716      613.249      592.026        0.340        0.132       64.562       16.969        0.069      338.434       11.084      871.326
10/03/2014  08:57:00       20.742       88.791      -11.645       20.758       27.120       20.054      430.913      735.518      402.157        0.501        0.078       91.182       12.864        0.020      338.348       10.939      871.323
10/03/2014  08:58:00       33.316       61.036       -4.839       23.456       28.863       21.248      550.180      833.045      451.463        0.335        0.092       69.536       12.644        0.033      338.364       10.965      871.335
10/03/2014  08:59:00       36.544       21.189        0.116       14.139       23.105       20.821      199.901      533.829      433.511        0.148        0.058       42.243        6.219        0.022      338.292       10.844      871.331
10/03/2014  09:00:00       13.748       16.885       12.898        9.237       11.128       11.650       85.328      123.832      135.729        0.049        0.017       21.774        6.200        0.081      338.376       10.985      871.344
10/03/2014  09:01:00       14.185       31.295        9.224       10.645       14.683       19.762      113.326      215.586      390.549        0.099        0.036       34.360       12.563        0.134      338.377       10.987      871.340
10/03/2014  09:02:00       15.321       22.462       26.400       14.662       17.336        9.954      214.972      300.550       99.080        0.103        0.031       27.189        5.921        0.047      338.637       11.425      871.343
10/03/2014  09:03:00       19.704       21.308       15.512       13.347       19.569       16.386      178.146      382.958      268.509        0.096        0.041       29.022       11.370        0.153      338.613       11.384      871.344
10/03/2014  09:04:00       11.691       32.683        8.336       23.613       17.851       22.639      557.596      318.642      512.537        0.133        0.069       34.711       13.839        0.159      338.727       11.574      871.339
10/03/2014  09:05:00        2.898       14.187       29.380       18.012       16.108       13.724      324.442      259.474      188.338        0.092        0.039       14.480        9.053        0.391      339.253       12.460      871.331
10/03/2014  09:06:00       -0.506        1.822       26.099       10.120       10.849        9.749      102.405      117.692       95.033        0.050        0.016        1.891        5.179        7.501      339.616       13.072      871.337
10/03/2014  09:07:00       14.862       27.001       46.855       23.946       29.488       19.895      573.396      869.529      395.804        0.249        0.092       30.821       20.265        0.432      339.212       12.390      871.344
10/03/2014  09:08:00       35.108       11.134       25.408       31.430       34.018       28.453      987.868     1157.255      809.594        0.248        0.148       36.831       22.844        0.385      338.873       11.819      871.348
10/03/2014  09:09:00       97.339       86.197        9.549       34.304       40.541       35.228     1176.774     1643.598     1241.042        1.053        0.203      130.019       26.115        0.040      338.735       11.590      871.343
10/03/2014  09:10:00      122.353       85.126        0.473       16.410       20.110       23.481      269.288      404.411      551.358        1.172        0.061      149.053        7.096        0.002      338.530       11.245      871.340
10/03/2014  09:11:00       85.341       67.479       -4.594       17.432       23.459       20.847      303.872      550.333      434.577        0.657        0.064      108.796       11.568        0.011      338.531       11.248      871.347
10/03/2014  09:12:00       42.410       31.778        7.247       22.375       19.225       25.943      500.650      369.599      673.041        0.220        0.077       52.995       16.869        0.101      338.774       11.653      871.338
10/03/2014  09:13:00       72.107       60.717       -0.581       19.697       18.750       31.099      387.980      351.545      967.177        0.530        0.085       94.265       15.622        0.027      338.641       11.432      871.321
10/03/2014  09:14:00       70.335       45.880       -8.881       23.036       17.691       20.227      530.637      312.969      409.148        0.419        0.063       83.976       10.773        0.016      338.794       11.688      871.320
10/03/2014  09:15:00       25.511       30.988        9.523       32.387       28.977       18.943     1048.942      839.676      358.821        0.197        0.112       40.138       13.269        0.109      339.260       12.472      871.323
10/03/2014  09:16:00      -17.124       83.246       -4.456       20.360       22.496       22.807      414.514      506.063      520.176        0.434        0.072       84.989       13.334        0.025      338.996       12.028      871.312
10/03/2014  09:17:00       39.136       19.415       25.890       29.098       23.982       21.848      846.692      575.137      477.335        0.224        0.095       43.687       14.421        0.109      339.289       12.522      871.313
10/03/2014  09:18:00      -41.241       18.436       11.335       27.217       26.403       20.201      740.743      697.141      408.084        0.201        0.092       45.174       20.590        0.208      339.211       12.391      871.313
10/03/2014  09:19:00      -53.647       10.339      -12.088       18.322       13.667        9.048      335.709      186.777       81.870        0.187        0.030       54.634        6.203        0.013      338.812       11.718      871.314
10/03/2014  09:20:00      -50.288       25.155      -14.460       12.386       13.526       10.290      153.415      182.943      105.881        0.191        0.022       56.229        3.746        0.004      338.850       11.781      871.320
10/03/2014  09:21:00      -52.923        8.993      -14.112       14.847       12.875       11.856      220.442      165.778      140.556        0.180        0.026       53.682        7.237        0.018      338.871       11.817      871.320
10/03/2014  09:22:00      -48.702       32.354      -11.323       17.212       27.597       13.975      296.269      761.586      195.312        0.240        0.063       58.469        8.630        0.022      339.003       12.038      871.315
10/03/2014  09:23:00      -21.182       26.047        4.687       18.019       14.133       19.078      324.698      199.743      363.962        0.102        0.044       33.573       12.486        0.138      339.582       13.014      871.306
10/03/2014  09:24:00      -35.336      -11.593      -10.657        9.716       19.960       10.726       94.397      398.418      115.058        0.105        0.030       37.190       10.943        0.087      338.945       11.940      871.309
10/03/2014  09:25:00      -25.868      -25.866        7.530       22.160       18.879       13.468      491.073      356.431      181.383        0.121        0.051       36.581       13.151        0.129      339.026       12.077      871.306
10/03/2014  09:26:00      -18.609       -4.178       -0.340       26.149       11.008       12.953      683.796      121.175      167.776        0.067        0.049       19.072       15.853        0.691      339.287       12.518      871.305
10/03/2014  09:27:00      -39.799       13.566      -10.953       13.328       22.967       12.983      177.636      527.463      168.550        0.138        0.044       42.047       10.622        0.064      339.024       12.074      871.309
10/03/2014  09:28:00      -42.091       26.032       -9.334       18.227       15.294       15.422      332.221      233.914      237.846        0.167        0.040       49.491        6.247        0.016      339.308       12.553      871.309
10/03/2014  09:29:00      -15.460       25.410       13.700       26.163       18.320       20.574      684.479      335.620      423.288        0.126        0.072       29.743       16.871        0.322      339.637       13.107      871.313
10/03/2014  09:30:00      -53.274       16.913      -14.067        9.068       14.619       10.258       82.232      213.710      105.236        0.186        0.020       55.894        4.135        0.005      339.104       12.209      871.316
10/03/2014  09:31:00      -38.414       -1.827      -11.129        7.623       12.211        8.111       58.109      149.117       65.793        0.094        0.014       38.457        6.275        0.027      339.075       12.160      871.314
10/03/2014  09:32:00      -29.415       27.475       -8.880       21.787       20.966       14.775      474.680      439.566      218.292        0.142        0.057       40.251       13.244        0.108      339.632       13.098      871.312
10/03/2014  09:33:00      -34.180       38.848       -6.523       20.251       22.436       15.025      410.109      503.365      225.746        0.193        0.057       51.744        6.748        0.017      339.598       13.042      871.314
10/03/2014  09:34:00      -48.931        1.965       -6.455       12.751       11.996       10.739      162.584      143.897      115.316        0.143        0.021       48.970        3.689        0.006      339.271       12.491      871.317
10/03/2014  09:35:00      -43.115       -6.137      -10.335        6.131        6.914        5.517       37.595       47.798       30.437        0.106        0.006       43.550        2.108        0.002      339.279       12.503      871.311
10/03/2014  09:36:00      -20.214       -0.301       -1.624        9.816        6.972       10.990       96.345       48.612      120.784        0.034        0.013       20.216        7.474        0.137      339.586       13.020      871.307
10/03/2014  09:37:00      -16.803       -5.481        5.771       12.789       12.035       11.823      163.551      144.845      139.794        0.040        0.022       17.674        7.997        0.205      339.878       13.514      871.301
10/03/2014  09:38:00      -11.141       31.945       18.238       14.419       19.421       17.612      207.919      377.181      310.177        0.119        0.045       33.832       12.989        0.147      340.432       14.449      871.292
10/03/2014  09:39:00      -27.552       39.205      -10.454       17.164       19.265       16.746      294.612      371.141      280.417        0.168        0.047       47.918       12.410        0.067      339.858       13.480      871.291
10/03/2014  09:40:00      -21.768       55.474      -11.494       23.193       21.555       16.402      537.918      464.601      269.016        0.248        0.064       59.592        9.814        0.027      339.737       13.277      871.289
10/03/2014  09:41:00       -3.683       32.942        4.158       18.139       29.505       24.431      329.011      870.554      596.868        0.146        0.090       33.147       18.385        0.308      340.343       14.298      871.281
10/03/2014  09:42:00       -8.000       18.817        9.319       22.865       33.618       26.095      522.786     1130.151      680.973        0.142        0.117       20.447       12.849        0.395      340.144       13.963      871.277
10/03/2014  09:43:00       30.069       73.044       -4.021       32.262       28.830       26.443     1040.827      831.191      699.226        0.441        0.129       78.991       15.216        0.037      340.063       13.827      871.273
10/03/2014  09:44:00        8.623       90.783       -3.961       14.423       50.528       27.360      208.026     2553.056      748.587        0.592        0.175       91.191       29.732        0.106      340.226       14.101      871.265
10/03/2014  09:45:00       40.776       49.324       15.184       36.980       22.358       31.627     1367.503      499.887     1000.248        0.360        0.143       63.997       13.039        0.042      340.216       14.084      871.256
10/03/2014  09:46:00       69.705       51.976       -5.657       19.535       21.907       17.676      381.621      479.912      312.451        0.438        0.059       86.950       14.976        0.030      339.878       13.513      871.253
10/03/2014  09:47:00       15.301       22.907      -14.620       27.870       17.066       13.428      776.718      291.235      180.313        0.111        0.062       27.547       14.334        0.271      339.948       13.631      871.252
10/03/2014  09:48:00       -8.139       20.698       15.419       25.826       30.656       25.087      667.005      939.783      629.375        0.148        0.112       22.240       18.070        0.660      340.436       14.456      871.247
10/03/2014  09:49:00      -18.286       34.612       10.623       27.548       24.086       27.414      758.869      580.134      751.511        0.187        0.105       39.145       12.897        0.109      340.409       14.409      871.245
10/03/2014  09:50:00       -8.334       58.536      -21.846       17.396       27.054       17.369      302.628      731.927      301.690        0.265        0.067       59.127       15.084        0.065      340.042       13.790      871.249
10/03/2014  09:51:00       18.556       26.110       -9.277       18.570       17.528       15.659      344.840      307.243      245.218        0.100        0.045       32.032        6.681        0.043      340.168       14.002      871.249
10/03/2014  09:52:00       16.217        0.205       14.049       15.140       16.701       21.649      229.223      278.938      468.670        0.072        0.049       16.219       11.427        0.496      340.314       14.249      871.249
10/03/2014  09:53:00      -14.782      -17.700       10.749       14.361       14.189       13.281      206.239      201.331      176.388        0.062        0.029       23.061        5.129        0.049      340.221       14.091      871.232
10/03/2014  09:54:00      -65.925       45.179       -2.611       21.060       25.041       18.202      443.544      627.047      331.303        0.390        0.070       79.920       12.260        0.024      340.095       13.879      871.221
10/03/2014  09:55:00      -62.249       27.316      -16.675       18.138       14.025        7.409      328.978      196.696       54.895        0.274        0.029       67.979        4.846        0.005      339.983       13.691      871.217
10/03/2014  09:56:00      -31.589       -6.272      -17.356       12.328       11.798        6.875      151.984      139.202       47.262        0.084        0.017       32.206        5.047        0.025      340.093       13.876      871.209
10/03/2014  09:57:00      -41.874        3.924      -20.236       10.629       11.608       10.970      112.966      134.746      120.347        0.127        0.018       42.058        8.349        0.039      340.117       13.917      871.199
10/03/2014  09:58:00      -55.154        8.978      -11.514        7.126       14.025        9.113       50.786      196.712       83.045        0.179        0.017       55.880        4.199        0.006      340.012       13.740      871.188
10/03/2014  09:59:00      -12.596       13.796       -4.036       19.840       26.073       17.898      393.629      679.790      320.335        0.088        0.070       18.681       19.196        1.056      340.552       14.653      871.192
10/03/2014  10:00:00      -32.175       20.472       14.310       20.581       14.220       23.211      423.588      202.195      538.771        0.141        0.058       38.136       16.203        0.181      340.692       14.887      871.197
10/03/2014  10:01:00      -35.299        6.741      -10.022        8.109        9.705       10.007       65.752       94.178      100.147        0.083        0.013       35.937        6.572        0.033      340.259       14.157      871.198
10/03/2014  10:02:00      -37.927        2.726      -13.551        5.950        5.021        5.823       35.404       25.209       33.903        0.086        0.005       38.025        2.307        0.004      340.263       14.162      871.200
10/03/2014  10:03:00      -47.797      -10.337       -3.831       10.272       18.566       12.226      105.513      344.678      149.472        0.150        0.030       48.902        8.622        0.031      340.270       14.175      871.205
10/03/2014  10:04:00      -30.813      -22.780       -2.010       13.917        9.707        9.343      193.688       94.232       87.296        0.092        0.019       38.319        5.331        0.019      340.269       14.171      871.202
10/03/2014  10:05:00      -24.274       -7.249       -8.247       22.719       27.171       15.005      516.139      738.267      225.161        0.109        0.074       25.333        8.693        0.118      340.262       14.160      871.198
10/03/2014  10:06:00       -1.413      -20.248        5.996       14.613       28.055       27.779      213.548      787.070      771.688        0.111        0.089       20.297       18.482        0.829      340.891       15.225      871.198
10/03/2014  10:07:00        6.626       27.911       33.257       29.296       24.848       15.536      858.245      617.445      241.377        0.182        0.086       28.687       12.654        0.195      340.931       15.292      871.200
10/03/2014  10:08:00       29.272       14.049       51.113       28.952       35.302       22.257      838.212     1246.210      495.356        0.312        0.129       32.469       13.969        0.185      341.049       15.492      871.203
10/03/2014  10:09:00       21.003        3.280       20.415       30.857       37.816       29.012      952.149     1430.061      841.713        0.205        0.161       21.258       23.016        1.172      340.916       15.266      871.209
10/03/2014  10:10:00        8.655       18.788       41.923       33.347       38.932       25.786     1112.055     1515.665      664.930        0.274        0.165       20.686       26.322        1.619      340.992       15.396      871.204
10/03/2014  10:11:00       22.224        2.865       19.190       34.874       32.720       27.601     1216.162     1070.604      761.794        0.196        0.152       22.408       27.455        1.501      341.046       15.488      871.195
10/03/2014  10:12:00       24.639       47.114       60.272       51.210       33.869       24.928     2622.493     1147.088      621.418        0.542        0.220       53.167       28.206        0.281      341.010       15.426      871.193
10/03/2014  10:13:00       18.054       15.690       29.709       32.224       28.232       25.355     1038.404      797.072      642.899        0.197        0.124       23.919       12.995        0.295      341.145       15.655      871.198
10/03/2014  10:14:00       40.048       20.322       39.298       31.974       35.464       34.844     1022.343     1257.702     1214.120        0.353        0.175       44.909       31.383        0.488      340.981       15.378      871.204
10/03/2014  10:15:00       46.911      -49.649       -5.874       35.146       40.006       34.419     1235.220     1600.512     1184.671        0.436        0.201       68.306       26.085        0.146      340.644       14.807      871.202
10/03/2014  10:16:00       17.949       51.649       63.321       58.923       38.156       37.155     3471.978     1455.908     1380.488        0.665        0.315       54.679       29.212        0.285      341.307       15.929      871.195
10/03/2014  10:17:00      121.250       95.619       28.224       30.600       22.327       27.635      936.376      498.497      763.713        1.342        0.110      154.417       16.540        0.011      340.584       14.705      871.197
10/03/2014  10:18:00       97.823       63.926       10.880       48.321       35.285       31.218     2334.962     1245.010      974.557        0.916        0.228      116.858       26.735        0.052      340.704       14.908      871.187
10/03/2014  10:19:00       57.572       52.684       37.449       58.453       34.751       36.381     3416.784     1207.653     1323.603        0.672        0.297       78.039       33.723        0.187      340.888       15.220      871.179
10/03/2014  10:20:00       80.382       40.306       10.008       49.028       32.033       32.304     2403.762     1026.089     1043.554        0.633        0.224       89.921       32.014        0.127      341.120       15.612      871.176
10/03/2014  10:21:00       52.480       28.664       25.618       44.283       32.043       32.953     1960.955     1026.725     1085.890        0.415        0.204       59.798       22.228        0.138      341.486       16.233      871.168
10/03/2014  10:22:00       51.193       49.456       52.685       41.665       42.496       39.638     1736.007     1805.894     1571.148        0.648        0.256       71.180       22.206        0.097      341.420       16.122      871.169
10/03/2014  10:23:00       22.784       19.019       22.964       53.916       48.031       26.737     2906.913     2306.953      714.854        0.367        0.296       29.679       25.695        0.750      341.620       16.460      871.168
10/03/2014  10:24:00       69.417       74.558       50.721       45.862       51.743       30.243     2103.318     2677.374      914.656        0.932        0.285      101.871       23.097        0.051      341.129       15.628      871.163
10/03/2014  10:25:00       10.822      -24.586       20.475       40.202       44.048       18.842     1616.208     1940.267      355.015        0.253        0.196       26.862       12.829        0.228      341.369       16.035      871.160
10/03/2014  10:26:00       19.343       -5.976        9.594       43.747       24.739       31.201     1913.810      612.016      973.528        0.200        0.175       20.246       21.861        1.166      341.150       15.663      871.144
10/03/2014  10:27:00       31.403       53.358       45.596       35.049       26.845       23.861     1228.421      720.666      569.362        0.421        0.126       61.913        6.047        0.010      341.121       15.615      871.133
10/03/2014  10:28:00       12.677        6.630       44.363       34.588       55.874       25.459     1196.335     3121.878      648.143        0.357        0.248       14.306       19.364        1.832      341.394       16.077      871.129
10/03/2014  10:29:00       -1.058       40.134       60.611       23.729       37.099       24.522      563.075     1376.335      601.311        0.391        0.127       40.148       21.216        0.279      341.967       17.047      871.133
10/03/2014  10:30:00       -1.917       30.344       13.151       21.378       46.755       27.108      457.006     2186.039      734.863        0.224        0.169       30.404        6.284        0.043      341.921       16.970      871.133
10/03/2014  10:31:00       15.111       58.965       -3.340       23.054       33.333       26.484      531.471     1111.102      701.387        0.303        0.117       60.871       21.366        0.123      341.705       16.604      871.133
10/03/2014  10:32:00       10.374       34.399      -17.830       40.175       32.640       26.961     1614.065     1065.395      726.912        0.251        0.170       35.930       15.564        0.188      341.445       16.162      871.132
10/03/2014  10:33:00      -10.299       12.464        9.793       28.793       52.421       25.225      829.041     2747.938      636.307        0.228        0.211       16.169       13.760        0.724      341.686       16.572      871.129
10/03/2014  10:34:00      -46.272      -15.689        8.098       37.653       23.904       21.064     1417.750      571.405      443.699        0.244        0.122       48.860       22.953        0.221      341.428       16.134      871.132
10/03/2014  10:35:00       30.601       29.371       31.131       40.844       34.477       40.361     1668.235     1188.694     1628.989        0.363        0.224       42.415       27.839        0.431      341.716       16.623      871.131
10/03/2014  10:36:00       -4.674        2.423       42.163       23.702       47.055       20.552      561.808     2214.135      422.366        0.250        0.160        5.265       18.804       12.758      341.961       17.037      871.145
10/03/2014  10:37:00       23.270      -13.187       12.314       25.442       30.769       22.139      647.306      946.704      490.130        0.148        0.104       26.747       20.359        0.579      341.541       16.325      871.149
10/03/2014  10:38:00       22.238      -16.424       -6.787       18.845       39.777       19.814      355.140     1582.206      392.606        0.157        0.116       27.646       19.790        0.512      341.285       15.893      871.149
10/03/2014  10:39:00       23.847      -36.823       -0.830       48.457       45.066       31.058     2348.084     2030.908      964.587        0.363        0.267       43.870       29.154        0.442      340.907       15.253      871.142
10/03/2014  10:40:00        4.349      -20.470       28.006       33.074       29.055       24.851     1093.897      844.201      617.555        0.189        0.128       20.927       13.208        0.398      341.527       16.302      871.135
10/03/2014  10:41:00       27.540       14.130       64.295       33.040       65.989       38.109     1091.663     4354.517     1452.298        0.599        0.345       30.953       43.025        1.932      341.393       16.073      871.123
10/03/2014  10:42:00       80.540      -89.776      -18.271       37.064       39.804       30.886     1373.773     1584.387      953.955        0.940        0.196      120.608       28.297        0.055      340.805       15.079      871.118
10/03/2014  10:43:00       32.866       23.640       36.696       31.300       33.891       25.912      979.708     1148.608      671.414        0.289        0.140       40.485        6.555        0.026      341.530       16.309      871.124
10/03/2014  10:44:00       60.023       73.287       47.032       38.103       34.852       29.586     1451.868     1214.651      875.344        0.736        0.177       94.730       13.805        0.021      341.353       16.007      871.109
10/03/2014  10:45:00        6.032       48.373       62.361       27.550       38.442       28.610      759.017     1477.820      818.558        0.466        0.153       48.748       23.498        0.232      341.931       16.987      871.111
10/03/2014  10:46:00       73.460       72.138       28.794       62.072       28.633       45.021     3852.950      819.856     2026.919        0.906        0.335      102.957       36.648        0.127      341.725       16.637      871.098
10/03/2014  10:47:00       73.267       60.175        9.079       44.029       43.187       29.499     1938.592     1865.093      870.184        0.687        0.234       94.811       15.382        0.026      341.756       16.691      871.103
10/03/2014  10:48:00       40.128       33.610        1.015       48.257       43.563       28.913     2328.739     1897.701      835.965        0.390        0.253       52.344       26.814        0.262      341.938       16.999      871.100
10/03/2014  10:49:00       17.349       53.962       -0.313       35.199       36.408       23.869     1238.959     1325.547      569.727        0.317        0.157       56.682       16.745        0.087      341.742       16.667      871.105
10/03/2014  10:50:00       10.861       93.713        8.364       35.448       36.946       27.663     1256.545     1365.032      765.228        0.618        0.169       94.341       17.540        0.035      341.827       16.809      871.093
10/03/2014  10:51:00      -22.088       87.167      -12.045       17.584       22.265       20.071      309.184      495.717      402.833        0.472        0.060       89.922       10.269        0.013      341.743       16.668      871.090
10/03/2014  10:52:00       -3.127       22.792       22.582       19.686       25.907       25.532      387.550      671.154      651.862        0.137        0.086       23.005       12.506        0.296      342.655       18.218      871.067
10/03/2014  10:53:00       -4.963       -6.288       19.406       14.936       32.922       21.298      223.072     1083.833      453.615        0.110        0.088        8.010       18.898        5.566      342.419       17.816      871.061
10/03/2014  10:54:00        1.287       47.530       -1.577       26.139       25.885       19.208      683.257      670.045      368.955        0.199        0.086       47.547       15.888        0.112      342.332       17.668      871.043
10/03/2014  10:55:00        0.180       15.666       17.793       21.652       23.441       21.403      468.823      549.483      458.094        0.102        0.074       15.667       14.290        0.832      342.925       18.675      871.046
10/03/2014  10:56:00       -6.292        9.444       23.793       26.149       22.300       16.427      683.789      497.304      269.861        0.107        0.073       11.348       11.021        0.943      342.781       18.433      871.028
10/03/2014  10:57:00       21.050       50.885       57.671       41.860       42.239       37.372     1752.258     1784.153     1396.685        0.564        0.247       55.067       30.782        0.312      342.208       17.457      871.021
10/03/2014  10:58:00       45.419       66.034       31.807       62.936       41.411       37.971     3960.936     1714.838     1441.834        0.728        0.356       80.146       29.083        0.132      342.106       17.284      871.015
10/03/2014  10:59:00        0.256       16.832       14.378       23.034       43.208       21.280      530.562     1866.898      452.845        0.167        0.143       16.834        8.021        0.227      342.476       17.913      871.011
10/03/2014  11:00:00       13.902       59.446        4.992       38.905       81.785       27.405     1513.581     6688.800      751.039        0.635        0.448       61.049       22.833        0.140      342.246       17.521      871.000
10/03/2014  11:01:00       66.396      106.830       -6.796       52.374       41.779       36.476     2742.997     1745.498     1330.502        1.084        0.291      125.782       30.208        0.058      342.213       17.466      870.988
10/03/2014  11:02:00       77.457       87.932        0.399       42.495       29.905       30.662     1805.815      894.298      940.144        0.869        0.182      117.182       21.264        0.033      341.995       17.096      870.989
10/03/2014  11:03:00       26.391       55.525        1.136       25.648       28.013       26.497      657.833      784.702      702.079        0.296        0.107       61.478       18.048        0.086      342.236       17.505      870.984
10/03/2014  11:04:00        9.057       16.318       16.699       20.985       20.814       20.985      440.375      433.235      440.389        0.097        0.066       18.663       15.671        0.705      342.547       18.032      870.981
10/03/2014  11:05:00        4.418       17.536       -2.556       17.086       24.909       19.466      291.941      620.441      378.919        0.081        0.065       18.084       14.747        0.665      342.391       17.768      870.958
10/03/2014  11:06:00       35.439       46.325        3.563       31.726       21.256       27.643     1006.527      451.835      764.121        0.282        0.111       58.326       21.683        0.138      342.185       17.417      870.944
10/03/2014  11:07:00       32.740       51.542       11.477       36.295       28.225       29.382     1317.300      796.637      863.326        0.342        0.149       61.061       17.559        0.083      342.552       18.042      870.924
10/03/2014  11:08:00       20.474       31.612       -7.609       19.661       30.074       19.439      386.539      904.451      377.877        0.157        0.083       37.663       10.447        0.077      342.297       17.609      870.924
10/03/2014  11:09:00       -1.040      -28.247        6.258       17.096       15.088       17.484      292.260      227.635      305.691        0.083        0.041       28.266       12.398        0.192      342.194       17.432      870.910
10/03/2014  11:10:00       49.394        9.466        6.932       58.028       38.938       28.959     3367.302     1516.163      838.650        0.415        0.286       50.293       24.856        0.244      342.667       18.237      870.912
10/03/2014  11:11:00       14.609       51.382       13.636       45.792       50.043       26.291     2096.876     2504.327      691.202        0.417        0.265       53.418       28.631        0.287      342.500       17.953      870.902
10/03/2014  11:12:00        1.364      107.152      -25.248       33.698       29.930       17.801     1135.583      895.817      316.880        0.723        0.117      107.161        6.473        0.004      342.198       17.438      870.902
10/03/2014  11:13:00       34.501       73.433      -20.907       37.156       35.464       26.922     1380.591     1257.693      724.801        0.519        0.168       81.134       22.734        0.079      342.242       17.515      870.891
10/03/2014  11:14:00        6.535       33.674        8.767       27.947       20.943       23.456      781.047      438.607      550.164        0.151        0.088       34.302       11.277        0.108      342.587       18.102      870.898
10/03/2014  11:15:00      -28.792       17.016       12.666       20.590       15.902       16.036      423.947      252.871      257.150        0.111        0.047       33.444        8.513        0.065      342.720       18.328      870.891
10/03/2014  11:16:00       23.044      -24.215       13.365       41.196       31.070       22.292     1697.119      965.339      496.938        0.223        0.158       33.428       12.686        0.144      342.586       18.099      870.892
10/03/2014  11:17:00       -3.312      -26.251       17.137       11.394       28.171       14.175      129.827      793.627      200.928        0.106        0.056       26.459       15.448        0.341      342.859       18.564      870.885
10/03/2014  11:18:00       18.888       29.395       12.707       24.473       31.438       24.962      598.938      988.344      623.107        0.180        0.111       34.941       17.488        0.251      343.039       18.870      870.888
10/03/2014  11:19:00       22.704       58.201        3.744       41.129       52.715       24.283     1691.635     2778.916      589.684        0.449        0.253       62.473       28.099        0.202      342.843       18.535      870.879
10/03/2014  11:20:00        4.250       93.953       -8.803       32.969       42.674       34.107     1086.978     1821.051     1163.310        0.650        0.204       94.049       30.212        0.103      342.575       18.080      870.884
10/03/2014  11:21:00       19.225       21.792       29.535       36.335       21.000       18.441     1320.249      440.982      340.079        0.191        0.105       29.060       15.898        0.299      343.154       19.065      870.881
10/03/2014  11:22:00      -27.577       79.524        3.593       22.397       54.223       26.352      501.618     2940.110      694.447        0.562        0.207       84.170       26.429        0.099      342.872       18.587      870.893
10/03/2014  11:23:00       15.711       55.021        0.150       27.286       38.336       20.879      744.523     1469.667      435.949        0.296        0.133       57.220       16.596        0.084      343.111       18.992      870.887
10/03/2014  11:24:00      -26.292       45.323      -18.243       21.744       35.322       22.182      472.801     1247.656      492.048        0.265        0.111       52.397       13.006        0.062      342.673       18.247      870.895
10/03/2014  11:25:00      -56.202       84.232      -13.888       29.756       36.836       29.260      885.405     1356.921      856.134        0.677        0.155      101.261        9.071        0.008      342.664       18.234      870.881
10/03/2014  11:26:00      -27.447       61.577      -31.048       25.216       27.244       15.638      635.843      742.236      244.534        0.357        0.081       67.417        9.917        0.022      342.532       18.007      870.883
10/03/2014  11:27:00      -52.615       23.024      -21.920       25.291       26.519       14.461      639.613      703.259      209.129        0.267        0.078       57.432       10.925        0.036      342.568       18.069      870.869
10/03/2014  11:28:00       -3.209       17.062       -8.405       32.636       19.060       23.359     1065.103      363.293      545.624        0.117        0.099       17.361       17.514        1.018      342.993       18.792      870.862
10/03/2014  11:29:00       34.364       29.332       21.839       37.004       27.322       24.462     1369.319      746.481      598.405        0.262        0.136       45.180       15.202        0.113      343.201       19.146      870.850
10/03/2014  11:30:00       -3.702       71.110      -11.621       42.531       33.604       29.479     1808.862     1129.231      869.029        0.451        0.190       71.206       23.982        0.113      342.916       18.661      870.845
10/03/2014  11:31:00       -9.074       96.511      -18.168       26.297       26.638       23.539      691.516      709.566      554.103        0.584        0.098       96.937       14.503        0.022      342.851       18.552      870.844
10/03/2014  11:32:00      -20.049       37.624      -16.969       23.567       50.473       19.783      555.381     2547.507      391.369        0.280        0.175       42.632       21.091        0.245      342.757       18.389      870.852
10/03/2014  11:33:00       -4.456       61.582        5.125       20.119       36.523       30.412      404.793     1333.931      924.902        0.325        0.133       61.743       29.835        0.233      343.096       18.968      870.843
10/03/2014  11:34:00      -27.492       54.737       -7.437       25.015       42.692       22.025      625.745     1822.626      485.121        0.337        0.147       61.254       23.820        0.151      342.963       18.740      870.845
10/03/2014  11:35:00      -56.651       42.521      -18.780       21.926       44.586       27.386      480.745     1987.935      750.004        0.429        0.161       70.833       26.950        0.145      342.864       18.572      870.831
10/03/2014  11:36:00       22.796        1.002       12.040       56.913       27.849       26.713     3239.063      775.580      713.602        0.270        0.236       22.818       12.475        0.299      343.225       19.187      870.830
10/03/2014  11:37:00       22.696       23.040       16.405       41.498       22.439       27.291     1722.058      503.513      744.774        0.214        0.149       32.342       25.952        0.644      343.681       19.965      870.816
10/03/2014  11:38:00      100.942       80.904        7.499       50.901       41.313       43.456     2590.937     1706.784     1888.425        1.149        0.309      129.363       24.181        0.035      343.273       19.269      870.807
10/03/2014  11:39:00       99.538       82.932       25.654       35.628       22.785       27.999     1269.356      519.160      783.946        1.001        0.129      129.560       12.225        0.009      342.861       18.567      870.801
10/03/2014  11:40:00       59.604       64.650       13.029       45.960       39.792       40.009     2112.308     1583.392     1600.743        0.660        0.265       87.933       18.382        0.044      343.132       19.030      870.790
10/03/2014  11:41:00       45.241       99.329        3.505       56.250       45.424       38.137     3164.117     2063.333     1454.410        0.930        0.334      109.146       30.537        0.078      343.093       18.961      870.776
10/03/2014  11:42:00       46.373       62.814       55.645       50.249       43.540       48.131     2524.979     1895.729     2316.567        0.796        0.337       78.077       44.904        0.331      343.171       19.095      870.759
10/03/2014  11:43:00       43.297       18.702       44.288       48.378       43.816       40.259     2340.388     1919.832     1620.768        0.503        0.294       47.164       41.651        0.780      343.093       18.963      870.750
10/03/2014  11:44:00       44.526       39.477       -2.077       33.424       36.291       28.992     1117.141     1317.045      840.515        0.341        0.164       59.506       18.991        0.102      343.152       19.063      870.721
10/03/2014  11:45:00       24.935       38.691       47.135       39.057       64.308       42.590     1525.416     4135.456     1813.897        0.591        0.374       46.030       38.474        0.699      343.294       19.304      870.714
10/03/2014  11:46:00       44.632       38.776       57.722       47.685       45.068       34.676     2273.891     2031.141     1202.445        0.617        0.275       59.123       21.269        0.129      343.088       18.954      870.702
10/03/2014  11:47:00       16.932        2.783       47.808       42.007       44.779       26.089     1764.554     2005.193      680.648        0.351        0.223       17.160       19.835        1.336      343.334       19.373      870.698
10/03/2014  11:48:00       94.575       49.911       26.679       53.464       55.865       37.814     2858.452     3120.925     1429.920        0.978        0.370      106.937       14.841        0.019      343.333       19.370      870.699
10/03/2014  11:49:00       45.970       34.508        4.432       34.180       41.005       28.052     1168.258     1681.415      786.894        0.348        0.182       57.481       20.093        0.122      343.445       19.562      870.697
10/03/2014  11:50:00       -8.622        6.815       23.133       14.457       29.103       22.384      208.997      846.981      501.055        0.111        0.078       10.990       10.022        0.832      344.347       21.102      870.689
10/03/2014  11:51:00        4.145      -14.393       33.155       39.607       37.611       25.853     1568.692     1414.580      668.387        0.249        0.183       14.978        6.144        0.168      343.868       20.283      870.683
10/03/2014  11:52:00        8.823      -48.803       -7.058       36.874       55.543       41.651     1359.707     3085.074     1734.780        0.434        0.309       49.595       38.544        0.604      343.681       19.966      870.678
10/03/2014  11:53:00      -64.450      -83.344        2.558       48.685       37.546       23.579     2370.196     1409.696      555.964        0.772        0.217      105.357       23.778        0.051      343.388       19.464      870.673
10/03/2014  11:54:00      -95.136     -101.188      -14.069       41.032       43.131       27.961     1683.596     1860.248      781.828        1.191        0.216      138.888       20.971        0.023      343.186       19.120      870.680
10/03/2014  11:55:00     -141.428      -78.626        3.852       67.321       52.907       35.119     4532.171     2799.159     1233.326        1.738        0.428      161.815       41.826        0.067      343.378       19.447      870.660
10/03/2014  11:56:00      -19.470      -61.883       -5.513       52.857       49.264       38.600     2793.858     2426.931     1489.979        0.547        0.336       64.874       35.598        0.301      343.382       19.455      870.656
10/03/2014  11:57:00      -26.491      -29.743        1.122       55.734       24.403       19.224     3106.318      595.500      369.555        0.283        0.204       39.830       16.116        0.164      343.256       19.240      870.658
10/03/2014  11:58:00      -28.108      -22.818       11.157       26.237       28.496       20.706      688.371      812.023      428.731        0.168        0.096       36.204       21.183        0.342      343.844       20.242      870.641
10/03/2014  11:59:00      -98.183      -35.122       -4.233       41.480       43.841       21.171     1720.568     1922.025      448.202        0.749        0.205      104.276       18.634        0.032      343.483       19.627      870.620
10/03/2014  12:00:00      -50.136        9.544        7.406       55.958       17.668       29.783     3131.288      312.149      887.002        0.349        0.217       51.037       33.910        0.441      343.696       19.990      870.616
10/03/2014  12:01:00      -65.036       32.259       -2.879       19.236       16.633       23.562      370.015      276.673      555.183        0.324        0.060       72.597       17.352        0.057      343.541       19.724      870.593
10/03/2014  12:02:00      -27.765       14.447       30.888       23.034       13.357       22.438      530.583      178.417      503.473        0.157        0.061       31.299       19.813        0.401      344.215       20.878      870.583
10/03/2014  12:03:00      -23.706       -5.121       20.007       24.264       21.542       13.794      588.727      464.040      190.273        0.112        0.062       24.253        6.756        0.078      344.005       20.517      870.566
10/03/2014  12:04:00        0.957       -1.392       18.171       38.613       23.776       25.737     1490.947      565.279      662.382        0.153        0.136        1.689       15.857       88.100      343.810       20.185      870.543
10/03/2014  12:05:00        9.698       50.324       20.843       35.152       61.534       36.534     1235.665     3786.435     1334.718        0.471        0.318       51.250       27.609        0.290      344.095       20.671      870.529
10/03/2014  12:06:00      -14.104      -38.215        5.154       39.951       47.361       36.300     1596.047     2243.108     1317.723        0.342        0.258       40.735       21.098        0.268      344.269       20.969      870.500
10/03/2014  12:07:00      -29.856      -22.013        8.211       37.572       42.732       24.314     1411.619     1826.003      591.178        0.264        0.191       37.094       19.733        0.283      344.034       20.566      870.486
10/03/2014  12:08:00       12.632       -9.121       46.860       31.058       41.024       30.728      964.575     1682.930      944.221        0.301        0.180       15.581       25.709        2.723      344.088       20.658      870.480
10/03/2014  12:09:00       37.504       10.872       31.433       38.671       27.882       29.311     1495.455      777.391      859.145        0.282        0.157       39.049       25.741        0.435      343.755       20.090      870.465
10/03/2014  12:10:00        3.641        7.412       -8.888       26.368       23.792       20.910      695.248      566.069      437.210        0.092        0.085        8.258       16.737        4.107      343.505       19.665      870.457
10/03/2014  12:11:00       16.162        1.111       24.635       18.252       33.348       25.270      333.148     1112.094      638.569        0.148        0.104       16.200       18.018        1.237      344.235       20.911      870.436
10/03/2014  12:12:00       11.970       30.005       28.129       15.961       22.585       20.283      254.756      510.067      411.407        0.151        0.059       32.304       15.306        0.224      344.133       20.736      870.439
10/03/2014  12:13:00       62.038       54.526       10.757       49.811       45.139       33.752     2481.162     2037.530     1139.181        0.630        0.283       82.594       25.688        0.097      343.914       20.362      870.431
10/03/2014  12:14:00       93.238       69.854       -6.379       58.938       40.182       29.021     3473.664     1614.605      842.214        0.977        0.297      116.503       20.139        0.030      343.686       19.972      870.422
10/03/2014  12:15:00      126.071       45.340       39.526       91.575      114.175       52.975     8385.956    13035.935     2806.298        2.187        1.211      133.976       45.995        0.118      343.805       20.173      870.414
10/03/2014  12:16:00      157.273       91.620       11.852       66.930       45.107       42.711     4479.572     2034.674     1824.256        2.080        0.417      182.013        9.802        0.003      343.865       20.276      870.409
10/03/2014  12:17:00      150.103       97.864       43.923       69.703       55.415       50.133     4858.501     3070.837     2513.314        2.224        0.522      179.188       33.073        0.034      343.568       19.770      870.407
10/03/2014  12:18:00      139.106       95.214       12.950       57.010       44.607       42.772     3250.121     1989.761     1829.463        1.783        0.353      168.570       17.974        0.011      343.808       20.179      870.395
10/03/2014  12:19:00       84.471       47.666        3.352       53.502       40.577       28.209     2862.416     1646.512      795.773        0.736        0.265       96.992       16.370        0.028      343.816       20.195      870.390
10/03/2014  12:20:00       69.736       59.813       12.475       40.564       35.489       33.723     1645.439     1259.499     1137.215        0.632        0.202       91.873       23.511        0.065      343.941       20.409      870.363
10/03/2014  12:21:00        3.231      -10.078       -6.729       36.485       22.047       28.517     1331.175      486.067      813.194        0.139        0.132       10.583       15.229        2.070      344.422       21.230      870.347
10/03/2014  12:22:00       17.734       -3.846        3.108       29.131       35.850       31.513      848.615     1285.226      993.073        0.173        0.156       18.146       24.417        1.811      344.088       20.660      870.339
10/03/2014  12:23:00       79.819       66.276       -1.268       38.491       34.667       35.051     1481.568     1201.824     1228.585        0.734        0.196      103.748       22.491        0.047      344.011       20.526      870.325
10/03/2014  12:24:00       38.654       55.232        3.207       33.859       45.007       34.397     1146.451     2025.587     1183.148        0.445        0.218       67.415       21.070        0.098      344.124       20.719      870.311
10/03/2014  12:25:00       74.329       55.439        7.401       27.984       32.093       25.449      783.089     1029.959      647.659        0.556        0.123       92.727       12.280        0.018      343.931       20.392      870.291
10/03/2014  12:26:00        9.540       34.795       50.491       27.832       46.643       47.739      774.597     2175.615     2279.033        0.454        0.261       36.079       36.794        1.040      344.655       21.628      870.281
10/03/2014  12:27:00       76.013      -10.390       24.993       55.605       59.903       33.991     3091.861     3588.394     1155.360        0.717        0.392       76.720       39.683        0.268      343.812       20.188      870.283
10/03/2014  12:28:00       47.151      -98.715       11.001       39.697       66.996       31.908     1575.855     4488.427     1018.137        0.958        0.354      109.397       24.549        0.050      343.787       20.144      870.269
10/03/2014  12:29:00       31.769        9.249       30.862       31.924       27.604       24.557     1019.172      761.973      603.028        0.222        0.119       33.088       21.059        0.405      344.255       20.945      870.258
10/03/2014  12:30:00       30.983      -12.373       16.272       32.519       25.657       23.456     1057.483      658.276      550.175        0.182        0.113       33.362       22.516        0.455      343.879       20.302      870.259
10/03/2014  12:31:00       24.007       -6.269       16.356       20.610       20.279       18.752      424.778      411.234      351.630        0.104        0.059       24.812       13.153        0.281      343.951       20.425      870.257
10/03/2014  12:32:00        9.988       36.698       69.927       39.755       90.794       56.505     1580.453     8243.590     3192.769        0.967        0.651       38.033       65.484        2.964      344.107       20.691      870.255
10/03/2014  12:33:00       59.844       81.547       78.289       60.527       40.198       34.097     3663.553     1615.877     1162.575        1.140        0.322      101.150       25.493        0.064      343.885       20.313      870.232
10/03/2014  12:34:00       31.379       50.455       83.635       63.461       61.865       55.379     4027.289     3827.284     3066.882        1.072        0.546       59.417       57.113        0.924      344.088       20.658      870.234
10/03/2014  12:35:00       93.613      123.374       87.486       60.214       52.188       61.925     3625.697     2723.637     3834.707        2.091        0.509      154.870       50.424        0.106      343.913       20.359      870.233
10/03/2014  12:36:00       38.666       20.931        7.408       32.984       53.912       29.155     1087.962     2906.492      850.005        0.342        0.242       43.968       18.310        0.173      344.164       20.788      870.224
10/03/2014  12:37:00       14.216        6.893       41.111       23.801       22.945       15.814      566.486      526.484      250.086        0.164        0.067       15.799        9.252        0.343      344.466       21.306      870.228
10/03/2014  12:38:00      119.053       83.910       56.736       79.813       53.954       53.618     6370.050     2911.064     2874.865        1.829        0.608      145.652       36.849        0.064      344.344       21.095      870.214
10/03/2014  12:39:00       32.263       12.741       18.005       40.934       33.995       31.173     1675.571     1155.693      971.752        0.266        0.190       34.688       26.558        0.586      344.189       20.832      870.218
10/03/2014  12:40:00       17.326      -29.800        6.699       34.150       33.032       25.046     1166.256     1091.090      627.314        0.206        0.144       34.471       15.722        0.208      344.201       20.852      870.218
10/03/2014  12:41:00        2.880      -25.484       11.943       18.375       23.012       25.789      337.634      529.560      665.061        0.117        0.077       25.646        9.577        0.139      344.478       21.325      870.193
10/03/2014  12:42:00       82.376      -17.085       22.128       35.073       19.910       25.251     1230.104      396.389      637.600        0.492        0.113       84.129       13.352        0.025      344.050       20.595      870.183
10/03/2014  12:43:00       19.015      -34.558       13.261       29.933       30.350       27.115      895.978      921.151      735.234        0.214        0.128       39.444       21.078        0.286      344.423       21.231      870.169
10/03/2014  12:44:00       52.805      -68.197       -7.287       33.039       28.695       29.715     1091.574      823.412      882.990        0.514        0.140       86.250       19.684        0.052      343.866       20.280      870.149
10/03/2014  12:45:00       27.896      -37.843       -3.279       22.980       24.126       20.482      528.085      582.053      419.506        0.188        0.076       47.013       13.655        0.084      344.488       21.343      870.132
10/03/2014  12:46:00       49.381      -26.677       32.188       26.936       28.983       23.924      725.559      839.990      572.336        0.316        0.107       56.126       14.474        0.067      344.653       21.625      870.123
10/03/2014  12:47:00      -23.866       -3.438        1.148       46.927       31.718       27.851     2202.139     1006.033      775.673        0.228        0.199       24.113       27.555        1.306      344.558       21.461      870.095
10/03/2014  12:48:00      -93.400      -10.918      -14.776       26.044       28.178       19.716      678.284      793.988      388.720        0.546        0.093       94.036       11.733        0.016      344.305       21.030      870.079
10/03/2014  12:49:00      -44.387       11.241       -8.891       20.838       24.161       19.030      434.215      583.730      362.143        0.178        0.069       45.789       17.588        0.148      344.627       21.579      870.072
10/03/2014  12:50:00       72.525      -63.876      -10.961       31.686       35.459       26.870     1003.974     1257.352      722.003        0.622        0.149       96.644       16.360        0.029      343.761       20.100      870.068
10/03/2014  12:51:00      113.153       40.026       29.274       60.895       64.270       34.823     3708.165     4130.606     1212.614        1.216        0.453      120.024       24.718        0.042      344.192       20.836      870.059
10/03/2014  12:52:00      117.117       40.349       21.102       47.634       41.802       36.013     2269.024     1747.425     1296.955        1.055        0.266      123.873       31.903        0.066      344.410       21.209      870.042
10/03/2014  12:53:00      110.112       50.580       23.069       43.821       42.881       41.202     1920.294     1838.817     1697.596        1.033        0.273      121.173       17.864        0.022      344.262       20.956      870.035
10/03/2014  12:54:00       85.149       67.014       47.779       77.909       58.591       30.175     6069.761     3432.904      910.543        1.222        0.521      108.357       21.584        0.040      344.691       21.689      870.015
10/03/2014  12:55:00       84.328        5.045       21.477       64.723       54.627       61.127     4189.129     2984.065     3736.563        0.925        0.545       84.479       41.976        0.247      344.547       21.444      869.994
10/03/2014  12:56:00       24.228      -11.661       37.531       40.078       72.601       43.737     1606.218     5270.866     1912.889        0.546        0.439       26.888       50.074        3.468      344.993       22.205      869.991
10/03/2014  12:57:00       71.968       -0.637       36.640       56.459       40.322       37.741     3187.575     1625.874     1424.357        0.638        0.312       71.971       35.379        0.242      344.687       21.682      869.979
10/03/2014  12:58:00       37.207       11.575       46.031       25.047       22.633       18.822      627.367      512.238      354.266        0.257        0.075       38.966       13.511        0.120      344.704       21.711      869.956
10/03/2014  12:59:00       34.448       19.021       26.916       48.885       44.800       26.226     2389.707     2007.012      687.792        0.368        0.254       39.350       29.419        0.559      344.681       21.672      869.943
10/03/2014  13:00:00       84.770       68.787       25.677       43.604       41.202       40.724     1901.322     1697.568     1658.412        0.892        0.263      109.168       18.669        0.029      344.556       21.458      869.923
10/03/2014  13:01:00       77.743       49.186       -5.762       84.973       45.248       28.994     7220.443     2047.351      840.670        0.930        0.505       91.996       19.402        0.044      344.672       21.658      869.904
10/03/2014  13:02:00      -85.243       49.852      -13.501       31.654       34.613       19.209     1002.002     1198.056      369.001        0.625        0.128       98.751       10.539        0.011      344.691       21.691      869.881
10/03/2014  13:03:00      -42.418       14.884       20.414       68.100       45.677       26.670     4637.560     2086.364      711.272        0.494        0.372       44.954       34.145        0.577      345.463       23.012      869.839
10/03/2014  13:04:00      -26.023      -33.393       17.173       63.491       65.645       44.580     4031.133     4309.284     1987.380        0.621        0.516       42.335       44.466        1.103      345.194       22.551      869.830
10/03/2014  13:05:00        2.673       14.430       28.086       17.546       43.771       26.381      307.875     1915.890      695.948        0.196        0.146       14.676       24.415        2.768      344.808       21.890      869.825
10/03/2014  13:06:00        5.289       -8.610       14.985       13.889       30.088       16.997      192.916      905.287      288.888        0.086        0.069       10.105       13.759        1.854      345.164       22.500      869.807
10/03/2014  13:07:00       17.801       93.441        0.774       56.391       94.938       40.275     3179.961     9013.278     1622.057        1.143        0.691       95.122       42.813        0.203      345.112       22.409      869.794
10/03/2014  13:08:00       82.543       69.452       30.967       92.681       98.187       65.330     8589.713     9640.691     4268.072        1.754        1.125      107.874       35.852        0.110      345.272       22.682      869.760
10/03/2014  13:09:00      181.175      100.467        7.889       52.121       54.235       41.928     2716.620     2941.433     1757.948        2.520        0.371      207.167       20.149        0.009      344.916       22.072      869.764
10/03/2014  13:10:00       60.397       49.701        2.065       59.241       40.714       25.770     3509.536     1657.593      664.087        0.598        0.292       78.218       17.088        0.048      344.928       22.095      869.753
10/03/2014  13:11:00       82.218       48.774       29.901       64.022       68.007       60.470     4098.776     4624.972     3656.613        1.120        0.619       95.597       34.297        0.129      344.931       22.100      869.750
10/03/2014  13:12:00       62.815       68.273       11.820       81.333       71.374       62.256     6615.089     5094.300     3875.757        1.216        0.779       92.774       37.275        0.161      345.203       22.563      869.725
10/03/2014  13:13:00       17.759       16.615       20.877       45.795       43.135       28.708     2097.141     1860.632      824.153        0.290        0.239       24.320       31.005        1.625      345.726       23.463      869.729
10/03/2014  13:14:00       92.096       73.095       20.206       54.472       35.474       39.409     2967.161     1258.370     1553.082        1.000        0.289      117.578       25.053        0.045      345.482       23.044      869.720
10/03/2014  13:15:00      135.650      110.758       15.874       85.634       62.773       53.424     7333.182     3940.492     2854.160        2.252        0.706      175.124       27.156        0.024      345.333       22.788      869.704
10/03/2014  13:16:00       81.608       96.807       50.576       65.468       49.012       42.018     4286.072     2402.138     1765.554        1.352        0.423      126.616       25.078        0.039      345.238       22.625      869.693
10/03/2014  13:17:00      189.069      117.947       34.143      118.586       71.560       50.259    14062.621     5120.856     2525.959        3.626        1.085      222.842       47.503        0.045      345.193       22.545      869.699
10/03/2014  13:18:00      167.477      117.105       30.210       63.443       44.173       54.882     4024.987     1951.277     3012.046        2.583        0.449      204.358       16.224        0.006      344.943       22.118      869.702
10/03/2014  13:19:00       74.048       69.334       28.806       39.829       22.180       28.656     1586.341      491.962      821.190        0.701        0.145      101.441       20.382        0.040      345.014       22.242      869.693
10/03/2014  13:20:00      161.493       73.801       32.734       71.878       63.514       40.177     5166.495     4034.086     1614.203        2.170        0.541      177.557       30.070        0.029      345.007       22.230      869.677
10/03/2014  13:21:00       93.890       56.380       40.060       45.754       39.527       38.122     2093.421     1562.346     1453.309        0.935        0.255      109.517       22.958        0.044      345.080       22.354      869.657
10/03/2014  13:22:00       70.194       51.561       25.349       48.115       34.650       37.116     2315.077     1200.603     1377.584        0.656        0.245       87.096       30.230        0.120      345.038       22.284      869.649
10/03/2014  13:23:00      186.616       90.740       51.048       94.820       74.339       51.812     8990.766     5526.354     2684.477        3.143        0.860      207.507       35.011        0.028      345.042       22.288      869.625
10/03/2014  13:24:00      127.744       76.610       34.070       76.205       45.870       41.357     5807.143     2104.085     1710.413        1.648        0.481      148.955       22.698        0.023      345.018       22.247      869.630
10/03/2014  13:25:00       57.570       49.345       11.352       59.352       47.499       38.142     3522.708     2256.144     1454.837        0.655        0.362       75.824       20.164        0.071      345.264       22.669      869.621
10/03/2014  13:26:00       38.493        0.333       10.805       40.663       52.563       33.104     1653.448     2762.828     1095.846        0.355        0.276       38.495       28.201        0.537      345.213       22.583      869.612
10/03/2014  13:27:00       38.216      -10.759       11.060       23.413       19.644       20.878      548.161      385.872      435.906        0.153        0.068       39.702       10.720        0.073      344.717       21.734      869.582
10/03/2014  13:28:00       26.275       15.688       38.394       55.328       50.779       26.855     3061.146     2578.472      721.198        0.438        0.318       30.602       24.570        0.645      344.751       21.792      869.563
10/03/2014  13:29:00      168.491      131.255       19.682       75.886       53.577       47.237     5758.749     2870.459     2231.288        2.843        0.543      213.582       33.691        0.025      345.199       22.555      869.541
10/03/2014  13:30:00      102.947       41.790       13.334       62.078       45.610       35.393     3853.713     2080.306     1252.645        0.985        0.359      111.106        6.098        0.003      345.064       22.328      869.523
10/03/2014  13:31:00      120.763       87.904       31.039       89.442       61.913       50.008     7999.842     3833.183     2500.770        1.880        0.717      149.369       28.784        0.037      345.389       22.881      869.499
10/03/2014  13:32:00      142.947      108.395       54.103      104.582       71.304       54.405    10937.490     5084.198     2959.916        2.704        0.949      179.397       35.329        0.039      345.581       23.213      869.492
10/03/2014  13:33:00       58.096       54.803       33.586       91.365       66.085       50.081     8347.636     4367.167     2508.142        1.136        0.761       79.866       34.453        0.186      345.622       23.284      869.467
10/03/2014  13:34:00      148.411      101.229       22.537       67.575       51.304       50.617     4566.323     2632.131     2562.076        2.127        0.488      179.647       27.476        0.023      345.460       23.005      869.457
10/03/2014  13:35:00       68.184       73.070       16.785       59.143       55.448       42.219     3497.949     3074.433     1782.419        0.931        0.418       99.942       40.034        0.160      345.502       23.078      869.448
10/03/2014  13:36:00      199.818      127.858       31.617       78.185       81.370       58.844     6112.837     6621.094     3462.580        3.673        0.810      237.223       45.393        0.037      345.329       22.778      869.414
10/03/2014  13:37:00      113.674      124.121       98.105      111.026       73.704       73.384    12326.863     5432.292     5385.276        3.054        1.157      168.309       69.108        0.169      345.253       22.650      869.404
10/03/2014  13:38:00       65.777        1.930       12.626       47.275       50.655       46.435     2234.904     2565.961     2156.175        0.572        0.348       65.806       42.458        0.416      344.913       22.069      869.415
10/03/2014  13:39:00       83.852      -54.218        9.600       70.788       65.475       34.195     5010.971     4286.928     1169.303        1.026        0.523       99.854       29.846        0.089      344.833       21.932      869.394
10/03/2014  13:40:00       82.229      -15.325       57.645       74.073       82.423       58.867     5486.834     6793.534     3465.296        1.303        0.787       83.645       64.853        0.601      345.390       22.885      869.371
10/03/2014  13:41:00       61.495       19.463       49.721       58.597       78.983       43.256     3433.630     6238.379     1871.052        0.909        0.577       64.502       44.492        0.476      345.380       22.869      869.357
10/03/2014  13:42:00       88.590       14.858       24.703       53.752      110.882       42.592     2889.230    12294.774     1814.065        1.284        0.850       89.827       55.323        0.379      345.104       22.396      869.343
10/03/2014  13:43:00       67.934       43.817       54.738       58.091       70.792       50.755     3374.534     5011.523     2576.042        1.024        0.548       80.839       45.548        0.317      345.308       22.745      869.333
10/03/2014  13:44:00       58.623       42.057       14.430       38.219       35.851       39.223     1460.712     1285.277     1538.457        0.485        0.214       72.149       21.630        0.090      345.370       22.852      869.316
10/03/2014  13:45:00      102.673       44.113       16.261       59.634       34.816       33.907     3556.205     1212.156     1149.705        0.933        0.296      111.749       18.322        0.027      345.601       23.249      869.300
10/03/2014  13:46:00      161.366       88.199       32.924       62.908       61.887       43.751     3957.466     3829.951     1914.163        2.230        0.485      183.897       28.469        0.024      345.425       22.944      869.283
10/03/2014  13:47:00       75.512      102.986        4.616       87.769       73.029       51.558     7703.441     5333.250     2658.275        1.601        0.785      127.703       31.163        0.060      345.590       23.228      869.245
10/03/2014  13:48:00       29.090      130.532      -19.050       55.195       77.491       45.553     3046.475     6004.911     2075.069        1.469        0.556      133.735       36.811        0.076      345.536       23.135      869.228
10/03/2014  13:49:00      127.433       82.229       24.161       79.934       43.933       39.232     6389.421     1930.134     1539.184        1.672        0.493      151.660       21.912        0.021      345.677       23.377      869.214
10/03/2014  13:50:00       94.285      105.457       80.465       78.545       83.389       76.759     6169.311     6953.782     5891.946        2.275        0.951      141.460       67.657        0.229      345.736       23.477      869.194
10/03/2014  13:51:00      112.580       96.500       49.879       89.715       69.766       69.437     8048.769     4867.345     4821.491        2.110        0.887      148.278       60.919        0.169      345.985       23.905      869.173
10/03/2014  13:52:00      139.393      138.635      111.994       79.684       62.973       58.560     6349.604     3965.652     3429.302        3.247        0.687      196.596       40.370        0.042      345.538       23.136      869.180
10/03/2014  13:53:00       85.415       23.296       40.008       52.294       49.908       43.015     2734.683     2490.830     1850.255        0.826        0.354       88.535       35.641        0.162      345.708       23.430      869.164
10/03/2014  13:54:00       21.300      -15.244       36.697       31.490       54.646       30.428      991.651     2986.199      925.861        0.347        0.245       26.193       32.551        1.544      345.919       23.793      869.136
10/03/2014  13:55:00       41.153       89.450      105.407       59.394       75.942       70.452     3527.669     5767.141     4963.541        1.753        0.713       98.462       63.325        0.414      346.129       24.152      869.114
10/03/2014  13:56:00      142.107      123.267       93.319       85.080       59.484       77.497     7238.555     3538.306     6005.787        3.044        0.839      188.119       64.671        0.118      345.619       23.276      869.108
10/03/2014  13:57:00      109.637       66.904       39.012       43.669       37.058       39.243     1906.963     1373.314     1540.005        1.142        0.241      128.438       24.739        0.037      345.527       23.119      869.100
10/03/2014  13:58:00      142.197      103.105       30.527       79.935       55.577       54.148     6389.621     3088.833     2931.962        2.209        0.621      175.643       39.709        0.051      345.720       23.450      869.080
10/03/2014  13:59:00      114.157       55.794       11.473      103.504       92.830       51.766    10713.006     8617.342     2679.722        1.914        1.101      127.062       33.326        0.069      345.915       23.785      869.052
10/03/2014  14:00:00      -11.011       15.652       34.019       47.655       61.916       46.630     2271.039     3833.551     2174.328        0.490        0.414       19.136       49.173        6.603      346.385       24.594      869.056
10/03/2014  14:01:00      121.429      108.179       73.171       77.906       66.527       66.640     6069.271     4425.886     4440.883        2.337        0.747      162.628       50.970        0.098      345.733       23.471      869.060
10/03/2014  14:02:00       57.049       98.351       94.622       68.783       66.480       71.201     4731.155     4419.543     5069.576        1.805        0.711      113.700       63.384        0.311      345.768       23.533      869.051
10/03/2014  14:03:00       46.552       19.163       79.755       54.686       78.359       43.303     2990.577     6140.161     1875.189        0.995        0.550       50.342       49.279        0.958      345.946       23.841      869.036
10/03/2014  14:04:00      115.932       62.253       17.681       52.490       45.229       46.429     2755.218     2045.672     2155.656        1.229        0.348      131.589       30.799        0.055      345.718       23.449      869.025
10/03/2014  14:05:00       46.144       64.955       20.405       41.656       35.262       41.665     1735.210     1243.398     1735.980        0.574        0.236       79.677       20.474        0.066      345.721       23.452      869.012
10/03/2014  14:06:00      163.674       83.087       17.891       76.484       82.454       50.211     5849.826     6798.660     2521.186        2.459        0.758      183.555       25.680        0.020      345.857       23.686      868.999
10/03/2014  14:07:00      170.305      128.461       28.474       92.775       58.115       65.700     8607.236     3377.326     4316.464        3.131        0.815      213.321       27.366        0.016      345.711       23.431      868.969
10/03/2014  14:08:00      161.944       78.931       29.833      112.759       66.688       59.822    12714.595     4447.234     3578.702        2.704        1.037      180.155       54.570        0.092      346.182       24.244      868.951
10/03/2014  14:09:00      179.988      130.233       48.894       70.582       52.787       64.819     4981.812     2786.482     4201.474        3.186        0.598      222.163       34.682        0.024      346.115       24.128      868.947
10/03/2014  14:10:00      143.984      109.718       28.473       79.320       55.021       65.813     6291.683     3027.359     4331.288        2.361        0.683      181.023       50.534        0.078      345.855       23.682      868.944
10/03/2014  14:11:00      123.494       93.284       67.888       72.985       64.331       51.952     5326.806     4138.510     2699.035        2.036        0.608      154.766       46.694        0.091      346.059       24.034      868.931
10/03/2014  14:12:00      152.283      120.549      113.799      113.137       85.072       82.946    12799.941     7237.256     6880.121        3.879        1.346      194.222       66.867        0.119      345.940       23.826      868.915
10/03/2014  14:13:00      135.707       87.093       23.005       63.983       65.291       47.322     4093.805     4262.887     2239.350        1.856        0.530      161.250       21.343        0.018      345.861       23.695      868.909
10/03/2014  14:14:00       66.596       65.619       77.096       68.944       53.927       45.580     4753.306     2908.077     2077.523        1.221        0.487       93.493       38.616        0.171      346.349       24.532      868.899
10/03/2014  14:15:00       53.914      -27.450       30.938       52.827       69.050       40.109     2790.700     4767.961     1608.706        0.689        0.458       60.500       39.134        0.418      345.866       23.704      868.901
10/03/2014  14:16:00       82.542       74.712       20.275       32.123       29.998       33.712     1031.900      899.851     1136.491        0.794        0.153      111.333        7.893        0.005      345.866       23.704      868.893
10/03/2014  14:17:00       63.523       41.212       16.668       30.046       18.392       22.341      902.748      338.269      499.111        0.388        0.087       75.720        9.441        0.016      345.845       23.668      868.887
10/03/2014  14:18:00       27.941        2.933       23.361       45.199       39.987       25.730     2042.909     1598.978      662.044        0.282        0.215       28.095       30.201        1.156      346.262       24.384      868.864
10/03/2014  14:19:00       23.892       34.771       54.087       43.241       55.592       41.304     1869.785     3090.486     1705.995        0.568        0.333       42.188       39.445        0.874      346.543       24.866      868.852
10/03/2014  14:20:00      100.466       82.335       21.338       54.797       43.344       32.294     3002.700     1878.738     1042.885        1.163        0.296      129.894       27.979        0.046      346.102       24.107      868.846
10/03/2014  14:21:00       39.404       85.648       -3.451       43.172       54.324       29.569     1863.839     2951.096      874.351        0.729        0.284       94.278       32.796        0.121      345.908       23.773      868.847
10/03/2014  14:22:00       28.680       92.795       -1.169       48.983       64.417       34.438     2399.313     4149.557     1186.002        0.858        0.387       97.126       33.483        0.119      345.989       23.914      868.826
10/03/2014  14:23:00       28.998      154.902      -17.088       43.951       95.069       40.441     1931.733     9038.029     1635.455        1.886        0.630      157.593       49.413        0.098      346.006       23.942      868.797
10/03/2014  14:24:00      121.457       84.380       16.185       82.248       74.249       56.360     6764.807     5512.876     3176.395        1.879        0.773      147.891       51.114        0.119      346.224       24.316      868.788
10/03/2014  14:25:00      181.181       97.415       35.197       55.806       45.228       36.941     3114.344     2045.557     1364.673        2.504        0.326      205.709        8.336        0.002      346.117       24.131      868.780
10/03/2014  14:26:00      104.484       78.073        4.674       74.775       73.648       42.360     5591.276     5423.999     1794.368        1.492        0.640      130.431       39.744        0.093      345.870       23.709      868.769
10/03/2014  14:27:00       78.290       86.868       -2.914       75.963       69.291       50.156     5770.388     4801.231     2515.651        1.338        0.654      116.942       33.932        0.084      346.029       23.983      868.744
10/03/2014  14:28:00      106.985      104.555       -2.874       58.398       48.940       45.678     3410.329     2395.116     2086.518        1.514        0.395      149.591       32.606        0.048      345.940       23.829      868.746
10/03/2014  14:29:00       29.661        2.559       21.451       55.072       55.585       25.432     3032.934     3089.657      646.812        0.406        0.338       29.771       23.894        0.644      346.252       24.366      868.734
10/03/2014  14:30:00       33.571       -2.725       22.290       46.167       57.689       38.126     2131.403     3328.034     1453.621        0.427        0.346       33.681       35.088        1.085      346.292       24.433      868.721
10/03/2014  14:31:00       79.970       63.251       23.377       53.743       40.803       31.552     2888.321     1664.850      995.545        0.824        0.277      101.961       17.864        0.031      346.113       24.128      868.689
10/03/2014  14:32:00      -17.473      -24.915        1.152       53.253       70.953       31.266     2835.898     5034.282      977.575        0.489        0.442       30.431       23.037        0.573      346.519       24.826      868.689
10/03/2014  14:33:00       -1.394       19.073       45.688       50.849       63.014       57.866     2585.658     3970.789     3348.461        0.618        0.495       19.124       47.806        6.249      346.553       24.884      868.694
10/03/2014  14:34:00       81.604      -73.337        3.341       40.148       53.708       38.690     1611.880     2884.501     1496.926        0.902        0.300      109.716       38.390        0.122      346.299       24.447      868.685
10/03/2014  14:35:00       80.526     -105.516        7.477       59.885      105.659       45.731     3586.174    11163.805     2091.295        1.725        0.842      132.733       52.325        0.155      346.251       24.363      868.673
10/03/2014  14:36:00       27.069       -7.204       28.334       52.445       60.591       42.790     2750.429     3671.289     1831.012        0.492        0.413       28.011       44.383        2.511      346.209       24.292      868.665
10/03/2014  14:37:00       37.362      -81.484        4.760       63.862       71.990       43.301     4078.321     5182.628     1874.937        0.960        0.557       89.641       38.948        0.189      346.308       24.461      868.656
10/03/2014  14:38:00       10.053       28.042       57.121       35.303       45.256       28.604     1246.282     2048.093      818.208        0.413        0.206       29.790       26.640        0.800      346.556       24.888      868.625
10/03/2014  14:39:00      -76.354      -53.913       11.960       53.635       43.262       32.651     2876.665     1871.568     1066.114        0.735        0.291       93.470       20.502        0.048      346.535       24.851      868.611
10/03/2014  14:40:00       -1.817      -32.113        7.451       37.105       40.167       27.646     1376.753     1613.399      764.291        0.242        0.188       32.164       27.310        0.721      346.638       25.029      868.620
10/03/2014  14:41:00        5.728      -48.393       11.441       35.217       50.757       25.316     1240.259     2576.229      640.918        0.348        0.223       48.731       14.947        0.094      346.603       24.969      868.611
10/03/2014  14:42:00        6.224       -8.942       45.691       35.065       65.715       33.712     1229.524     4318.454     1136.522        0.444        0.334       10.895       36.370       11.144      346.603       24.969      868.598
10/03/2014  14:43:00       38.212       -2.313       32.761       44.625       63.203       39.210     1991.399     3994.562     1537.442        0.503        0.376       38.282       46.835        1.497      346.437       24.684      868.591
10/03/2014  14:44:00       93.498       28.831        7.171       44.978       56.775       31.149     2022.999     3223.350      970.240        0.792        0.311       97.842       33.943        0.120      346.165       24.216      868.590
10/03/2014  14:45:00       22.991       13.725        5.177       24.622       35.550       23.311      606.235     1263.774      543.388        0.158        0.121       26.776       15.453        0.333      346.665       25.077      868.579
10/03/2014  14:46:00       97.921       83.604       29.708       99.859       68.251       43.272     9971.897     4658.141     1872.431        1.698        0.825      128.756       39.781        0.095      346.443       24.692      868.572
10/03/2014  14:47:00       86.047       50.601       31.998       63.897       43.078       39.056     4082.824     1855.678     1525.409        0.922        0.373       99.822       24.829        0.062      346.563       24.900      868.570
10/03/2014  14:48:00       91.745       76.409       49.530       45.538       43.254       36.993     2073.711     1870.870     1368.448        1.101        0.266      119.396       23.619        0.039      346.636       25.026      868.562
10/03/2014  14:49:00       62.845       -7.599       21.291       71.576      101.149       50.494     5123.189    10231.172     2549.671        1.118        0.895       63.303       49.851        0.620      346.719       25.168      868.561
10/03/2014  14:50:00       35.074      -41.881       25.395       50.233       91.025       49.090     2523.319     8285.491     2409.821        0.842        0.661       54.629       34.939        0.409      346.776       25.267      868.540
10/03/2014  14:51:00      107.551       66.233       58.114       86.397       52.339       47.977     7464.431     2739.350     2301.758        1.592        0.625      126.309       42.090        0.111      346.681       25.103      868.535
10/03/2014  14:52:00       -0.122      -29.487       39.247       40.000       93.567       28.648     1599.963     8754.714      820.730        0.679        0.559       29.488       16.074        0.297      346.656       25.058      868.545
10/03/2014  14:53:00       28.703      -63.241       19.965       35.762       59.680       35.271     1278.914     3561.725     1244.046        0.565        0.304       69.450       33.292        0.230      346.484       24.765      868.541
10/03/2014  14:54:00       22.795      -17.504       11.755       19.987       29.669       21.057      399.491      880.238      443.383        0.134        0.086       28.740       16.570        0.332      346.645       25.041      868.532
10/03/2014  14:55:00       13.684       11.757       36.599       42.022       41.288       30.686     1765.833     1704.685      941.605        0.304        0.221       18.041       27.648        2.349      346.702       25.141      868.531
10/03/2014  14:56:00       37.718      -25.233       -6.025       39.015       28.774       35.657     1522.205      827.928     1271.447        0.286        0.181       45.380       29.665        0.427      346.239       24.344      868.529
10/03/2014  14:57:00       12.905       35.270      -18.448       24.455       24.699       11.316      598.024      610.058      128.043        0.154        0.067       37.556        8.123        0.047      346.244       24.352      868.518
10/03/2014  14:58:00      -52.366       12.512      -14.828       12.767       12.603       16.399      162.988      158.837      268.933        0.185        0.030       53.840        9.116        0.029      346.225       24.320      868.505
10/03/2014  14:59:00       14.249       30.253       -1.336       27.825       20.227       19.854      774.249      409.120      394.176        0.135        0.079       33.440        6.254        0.035      346.411       24.639      868.501
10/03/2014  15:00:00       49.301       32.522        5.866       49.374       38.113       22.501     2437.835     1452.563      506.307        0.396        0.220       59.062       25.763        0.190      346.308       24.461      868.494
10/03/2014  15:01:00       92.941       79.616       11.937       89.408       69.956       35.020     7993.835     4893.904     1226.391        1.461        0.706      122.380       29.198        0.057      346.443       24.692      868.476
10/03/2014  15:02:00       64.079      -18.488       16.211       62.455       74.581       34.302     3900.623     5562.386     1176.608        0.767        0.532       66.693       40.158        0.363      346.681       25.104      868.462
10/03/2014  15:03:00       37.283       -7.422       33.859       58.164       78.889       53.397     3383.036     6223.512     2851.237        0.752        0.623       38.015       59.327        2.436      346.728       25.185      868.448
10/03/2014  15:04:00       33.931       74.495       85.941       52.920       64.563       43.322     2800.515     4168.382     1876.767        1.146        0.442       81.859       36.362        0.197      346.925       25.523      868.419
10/03/2014  15:05:00       97.730       77.913       36.427       82.775       60.754       60.176     6851.759     3691.068     3621.135        1.555        0.708      124.987       56.480        0.204      346.737       25.199      868.419
10/03/2014  15:06:00       90.398       92.401       21.115       60.350       84.245       43.500     3642.156     7097.243     1892.233        1.489        0.632      129.266       26.309        0.041      346.757       25.234      868.417
10/03/2014  15:07:00       21.556      220.047      -39.829       39.942       65.376       31.020     1595.397     4274.028      962.234        2.865        0.342      221.101       31.485        0.020      346.293       24.432      868.390
10/03/2014  15:08:00      -80.815      103.321      -28.948       38.830       35.197       23.939     1507.768     1238.855      573.078        1.068        0.166      131.173       16.133        0.015      346.500       24.792      868.373
10/03/2014  15:09:00       -8.083       39.662        5.039       42.146       38.381       30.162     1776.318     1473.092      909.733        0.291        0.208       40.477       29.490        0.531      346.618       24.995      868.373
10/03/2014  15:10:00       30.601       13.962       22.485       33.841       17.660       17.068     1145.192      311.868      291.329        0.169        0.087       33.636       13.045        0.150      346.796       25.302      868.368
10/03/2014  15:11:00       45.939      -55.251       -4.318       33.226       49.191       32.190     1103.970     2419.755     1036.180        0.487        0.228       71.855       26.621        0.137      346.697       25.131      868.344
10/03/2014  15:12:00       54.639      -84.751       27.501       58.724       71.871       47.831     3448.529     5165.456     2287.807        1.091        0.545      100.837       28.594        0.080      346.675       25.091      868.317
10/03/2014  15:13:00      124.838       49.929       47.865       84.854       62.023       58.357     7200.122     3846.896     3405.548        1.741        0.723      134.452       41.280        0.094      346.663       25.071      868.297
10/03/2014  15:14:00      134.404       58.651       14.847       73.903       77.245       62.273     5461.642     5966.748     3877.931        1.851        0.765      146.643       26.693        0.033      346.503       24.795      868.302
10/03/2014  15:15:00      219.634      149.454       41.899       87.785       74.961       64.023     7706.140     5619.208     4098.995        4.487        0.871      265.660       41.624        0.025      346.375       24.574      868.291
10/03/2014  15:16:00      207.023       93.367       25.338       77.154       65.231       64.841     5952.687     4255.132     4204.408        3.331        0.721      227.103       39.422        0.030      346.405       24.625      868.290
10/03/2014  15:17:00      115.262       86.616       36.503       45.474       34.600       34.920     2067.912     1197.133     1219.413        1.330        0.224      144.179        9.430        0.004      346.395       24.612      868.302
10/03/2014  15:18:00      108.256       79.395       47.373       78.415       44.220       43.794     6148.889     1955.372     1917.940        1.514        0.501      134.249       31.029        0.053      346.425       24.662      868.289
10/03/2014  15:19:00       10.565       76.537       -9.971       35.103       16.331       15.562     1232.210      266.700      242.182        0.390        0.087       77.263        9.270        0.014      346.352       24.538      868.272
10/03/2014  15:20:00        3.175       60.585       -7.733       28.596       32.989       19.322      817.716     1088.307      373.356        0.301        0.114       60.668       19.810        0.107      346.489       24.773      868.262
10/03/2014  15:21:00       30.972       30.858       42.169       33.855       41.531       42.052     1146.170     1724.820     1768.375        0.416        0.232       43.720       39.160        0.802      346.620       24.999      868.260
10/03/2014  15:22:00       20.290        6.899       16.226       38.669       22.823       19.173     1495.305      520.882      367.606        0.155        0.119       21.430       14.409        0.452      346.785       25.282      868.236
10/03/2014  15:23:00       96.505       76.119       10.553       62.767       53.393       34.330     3939.747     2850.767     1178.540        1.159        0.398      122.912       21.605        0.031      346.542       24.864      868.218
10/03/2014  15:24:00       70.036       62.618       31.748       91.565       50.741       46.189     8384.149     2574.670     2133.451        1.146        0.655       93.948       34.196        0.132      346.881       25.448      868.204
10/03/2014  15:25:00       56.252       -6.163       50.901       72.134       98.699       42.383     5203.253     9741.533     1796.341        1.126        0.837       56.589       39.415        0.485      346.944       25.556      868.211
10/03/2014  15:26:00       12.652       34.090       75.521       33.498       72.543       36.113     1122.086     5262.509     1304.119        0.736        0.384       36.362       41.012        1.272      346.933       25.537      868.210
10/03/2014  15:27:00       79.172       38.555       23.280       54.545       85.567       50.480     2975.179     7321.642     2548.263        1.057        0.642       88.061       22.635        0.066      346.611       24.983      868.203
10/03/2014  15:28:00       74.480        1.036       13.082       67.033       31.406       30.589     4493.402      986.312      935.717        0.607        0.321       74.487       22.119        0.088      346.515       24.818      868.195
10/03/2014  15:29:00      108.793       67.366       29.155       78.735       51.443       37.507     6199.217     2646.429     1406.810        1.374        0.513      127.961       29.413        0.053      346.635       25.024      868.184
10/03/2014  15:30:00      138.389       89.863       26.103       85.750       65.089       46.251     7353.028     4236.545     2139.156        2.082        0.686      165.006       34.034        0.043      346.606       24.973      868.186
10/03/2014  15:31:00       98.542       85.887      -12.273       64.161       40.021       39.418     4116.598     1601.670     1553.764        1.225        0.364      130.717       15.739        0.014      346.633       25.021      868.199
10/03/2014  15:32:00       51.097       82.736       -1.961       46.033       54.379       31.162     2118.995     2957.077      971.081        0.775        0.302       97.243       22.791        0.055      346.579       24.930      868.188
10/03/2014  15:33:00       95.618       86.403       65.506       52.282       73.545       57.229     2733.427     5408.939     3275.171        1.616        0.571      128.873       52.277        0.165      346.601       24.965      868.162
10/03/2014  15:34:00       94.991       -0.498       81.214      126.823      119.873       65.499    16084.143    14369.635     4290.079        2.518        1.737       94.992       75.015        0.624      346.837       25.371      868.144
10/03/2014  15:35:00      131.392      -97.731       67.790      139.583      155.798       86.875    19483.281    24272.982     7547.258        4.135        2.565      163.754      104.814        0.410      346.456       24.714      868.149
10/03/2014  15:36:00       48.436      -40.808       19.834       42.406      106.030       53.661     1798.277    11242.377     2879.498        1.016        0.796       63.335       60.045        0.899      346.614       24.989      868.140
10/03/2014  15:37:00       85.712       65.294       74.957       85.293       76.819       73.138     7274.891     5901.094     5349.206        1.787        0.926      107.749       64.619        0.360      346.751       25.223      868.144
10/03/2014  15:38:00      103.224       83.814       76.353       85.421       62.197       50.956     7296.717     3868.441     2596.513        1.863        0.688      132.966       38.328        0.083      346.856       25.403      868.127
10/03/2014  15:39:00      165.435       72.004       21.902       90.537       83.651       55.241     8196.964     6997.453     3051.570        2.564        0.912      180.425       39.436        0.048      346.709       25.151      868.128
10/03/2014  15:40:00      165.070       89.547       31.301       66.863       58.014       44.156     4470.676     3365.574     1949.755        2.301        0.489      187.795       26.546        0.020      346.635       25.022      868.131
10/03/2014  15:41:00       91.457       57.508       10.024       76.289       51.897       38.691     5820.072     2693.268     1497.026        1.089        0.501      108.035       21.807        0.041      346.791       25.292      868.134
10/03/2014  15:42:00       87.116       28.032        7.647       82.702       40.783       26.040     6839.603     1663.223      678.062        0.881        0.459       91.515       21.062        0.053      346.730       25.187      868.134
10/03/2014  15:43:00       74.334       60.128        7.843       36.739       38.152       21.091     1349.768     1455.585      444.834        0.623        0.163       95.608       18.144        0.036      346.448       24.703      868.119
10/03/2014  15:44:00       44.767       62.499        3.496       35.869       56.874       32.131     1286.620     3234.661     1032.377        0.574        0.278       76.878       32.255        0.176      346.513       24.814      868.101
10/03/2014  15:45:00        4.325       38.226      -17.883       27.118       52.457       18.603      735.396     2751.703      346.066        0.282        0.192       38.470       17.098        0.198      346.562       24.898      868.078
10/03/2014  15:46:00       12.026       60.391       -6.989       30.288       34.562       18.352      917.336     1194.562      336.805        0.314        0.122       61.577        8.681        0.020      346.614       24.987      868.062
10/03/2014  15:47:00      108.783       69.822       33.499       36.508       37.751       36.937     1332.833     1425.140     1364.362        1.098        0.206      129.262       17.712        0.019      346.529       24.841      868.063
10/03/2014  15:48:00      130.942       47.824       16.748       92.176       62.264       61.815     8496.443     3876.754     3821.143        1.795        0.810      139.402       53.954        0.150      346.634       25.022      868.050
10/03/2014  15:49:00       81.938       31.181       29.882       58.517       53.935       43.375     3424.208     2908.945     1881.400        0.840        0.411       87.670       30.680        0.122      346.724       25.176      868.033
10/03/2014  15:50:00       65.612       51.715       58.367       88.314       54.750       54.134     7799.430     2997.616     2930.485        1.205        0.686       83.542       43.233        0.268      346.886       25.456      868.013
10/03/2014  15:51:00      151.231       79.472       24.730       80.256       60.874       51.639     6441.025     3705.674     2666.564        2.130        0.641      170.841       39.558        0.054      346.564       24.901      868.021
10/03/2014  15:52:00       49.411       39.313       25.186       61.912       44.938       36.219     3833.157     2019.395     1311.786        0.589        0.358       63.142       25.433        0.162      346.721       25.174      868.014
10/03/2014  15:53:00      177.416       95.759       17.592       36.891       29.940       30.324     1360.923      896.433      919.543        2.207        0.159      201.609       12.798        0.004      346.500       24.792      868.019
10/03/2014  15:54:00       93.135       78.808        8.127       51.471       37.327       42.551     2649.246     1393.306     1810.564        1.040        0.293      122.004       32.064        0.069      346.619       24.997      868.005
10/03/2014  15:55:00       -7.817       69.274      -17.721       43.933       33.833       21.285     1930.069     1144.677      453.040        0.435        0.176       69.714       19.033        0.075      346.545       24.869      867.990
10/03/2014  15:56:00       -2.817       55.760        1.956       46.454       43.754       28.432     2158.019     1914.384      808.366        0.400        0.244       55.831       31.977        0.328      346.663       25.071      867.967
10/03/2014  15:57:00       42.253       27.584       18.760       26.545       19.209       23.583      704.613      368.984      556.171        0.226        0.081       50.459       12.238        0.059      346.635       25.024      867.963
10/03/2014  15:58:00       35.809      -48.592        1.643       45.540       52.698       27.286     2073.854     2777.132      744.541        0.462        0.280       60.362       29.094        0.232      346.871       25.430      867.957
10/03/2014  15:59:00       45.721     -109.201      -25.665       37.138       37.839       27.244     1379.229     1431.754      742.236        0.911        0.178      118.386       22.076        0.035      346.757       25.234      867.942
10/03/2014  16:00:00       23.835      -46.574        6.704       56.049       66.301       25.867     3141.457     4395.818      669.118        0.549        0.410       52.319       34.542        0.436      346.781       25.277      867.941
10/03/2014  16:01:00       -9.644       41.145       -4.790       13.360       21.817       13.613      178.482      475.995      185.323        0.132        0.042       42.260        9.565        0.051      346.723       25.175      867.942
10/03/2014  16:02:00       32.920       87.474      -13.974       43.612       35.707       25.902     1902.020     1275.001      670.896        0.639        0.192       93.463       22.582        0.058      346.695       25.128      867.955
10/03/2014  16:03:00      -19.602      141.651      -21.826       21.700       49.682       19.896      470.885     2468.255      395.852        1.213        0.167      143.001       14.500        0.010      346.687       25.114      867.954
10/03/2014  16:04:00       45.866       66.291       -4.169       49.740       41.582       20.269     2474.042     1729.066      410.815        0.556        0.231       80.611       21.265        0.070      346.747       25.217      867.949
10/03/2014  16:05:00       74.273       16.700       12.671       60.788       31.930       33.105     3695.237     1019.524     1095.911        0.588        0.291       76.128       25.816        0.115      346.924       25.520      867.952
10/03/2014  16:06:00       29.425       20.275        8.393       31.720       49.305       34.827     1006.177     2431.016     1212.913        0.300        0.233       35.734       31.207        0.763      346.967       25.596      867.949
10/03/2014  16:07:00       83.712       19.644       36.842       65.047       81.175       59.890     4231.069     6589.414     3586.847        1.158        0.720       85.986       44.849        0.272      346.880       25.444      867.947
10/03/2014  16:08:00      105.404       80.026       46.203       77.349       56.111       55.972     5982.885     3148.406     3132.904        1.595        0.613      132.341       42.309        0.102      346.847       25.389      867.942
10/03/2014  16:09:00       97.800       51.790       40.920       68.564       57.733       46.558     4700.954     3333.055     2167.648        1.206        0.510      110.667       36.931        0.111      346.825       25.350      867.948
10/03/2014  16:10:00       73.342       49.619       26.619       42.794       37.103       43.060     1831.294     1376.638     1854.125        0.681        0.253       88.551       27.346        0.095      346.892       25.467      867.951
10/03/2014  16:11:00      170.401       75.449       65.532      120.138      103.619       73.615    14433.218    10736.891     5419.225        3.480        1.529      186.357       57.671        0.096      346.877       25.439      867.941
10/03/2014  16:12:00      214.004      135.798       30.184      114.516       76.019       72.578    13113.834     5778.880     5267.589        4.465        1.208      253.454       57.383        0.051      346.802       25.310      867.953
10/03/2014  16:13:00      132.810       75.714       22.252       52.606       41.348       37.936     2767.365     1709.627     1439.151        1.489        0.296      152.877       13.466        0.008      346.722       25.173      867.959
10/03/2014  16:14:00      107.465       50.372       17.409       59.776       61.133       35.042     3573.148     3737.264     1227.954        1.146        0.427      118.685       26.333        0.049      346.793       25.296      867.951
10/03/2014  16:15:00      125.265      106.686       68.388       81.991       65.001       46.215     6722.484     4225.138     2135.806        2.241        0.654      164.540       43.735        0.071      346.772       25.259      867.954
10/03/2014  16:16:00       30.491       62.442       72.946       72.052       59.006       51.887     5191.546     3481.719     2692.289        1.076        0.568       69.489       28.364        0.167      347.044       25.729      867.960
10/03/2014  16:17:00       75.795       71.854       46.854       60.066       47.856       55.264     3607.969     2290.209     3054.133        1.103        0.448      104.440       42.700        0.167      346.990       25.635      867.967
10/03/2014  16:18:00       41.522       48.803       50.115       66.343       67.965       58.649     4401.408     4619.307     3439.657        0.954        0.623       64.077       37.413        0.341      346.896       25.475      867.968
10/03/2014  16:19:00       89.114       15.933       37.721       60.040       52.988       35.668     3604.857     2807.725     1272.207        0.865        0.384       90.527       30.162        0.111      346.722       25.174      867.975
10/03/2014  16:20:00       84.082       70.902       37.681       73.906       57.346       50.885     5462.118     3288.574     2589.296        1.243        0.567      109.986       40.650        0.137      346.884       25.452      867.967
10/03/2014  16:21:00      160.291       93.819       24.878       70.196       61.928       52.502     4927.490     3835.057     2756.451        2.331        0.576      185.729       32.598        0.031      346.624       25.003      867.961
10/03/2014  16:22:00      159.153       76.053       30.619       83.589       78.265       60.128     6987.101     6125.336     3615.363        2.439        0.836      176.391       48.557        0.076      346.705       25.142      867.956
10/03/2014  16:23:00      143.857       58.399       28.640       83.505       76.187       51.158     6973.111     5804.479     2617.192        2.016        0.770      155.259       42.622        0.075      346.762       25.242      867.952
10/03/2014  16:24:00       32.203       39.481       60.383       57.703       60.350       52.925     3329.663     3642.098     2801.084        0.801        0.489       50.949       47.879        0.883      346.823       25.348      867.956
10/03/2014  16:25:00       74.583       62.110       67.015       72.272       60.861       38.431     5223.194     3704.066     1476.939        1.216        0.520       97.058       31.771        0.107      346.795       25.297      867.968
10/03/2014  16:26:00      171.093       71.781       43.906      112.157       62.195       56.961    12579.242     3868.244     3244.591        2.802        0.985      185.541       56.733        0.093      346.865       25.419      867.958
10/03/2014  16:27:00      127.457       40.578       38.111      117.297       77.129       65.060    13758.537     5948.872     4232.813        2.164        1.197      133.760       57.540        0.185      346.837       25.371      867.946
10/03/2014  16:28:00       59.993       89.385       98.606       82.959       57.344       41.960     6882.256     3288.315     1760.677        1.662        0.597      107.651       39.071        0.132      346.895       25.470      867.960
10/03/2014  16:29:00       89.180       71.007       31.319       40.106       52.686       46.839     1608.452     2775.799     2193.910        1.028        0.329      113.996       28.461        0.062      346.821       25.343      867.962
10/03/2014  16:30:00       33.562       20.048       -1.905       29.094       48.584       31.244      846.436     2360.379      976.210        0.286        0.209       39.094       20.260        0.269      346.957       25.577      867.964
10/03/2014  16:31:00       98.017       94.073        2.722       74.878       53.366       42.923     5606.785     2847.879     1842.351        1.438        0.515      135.857       30.433        0.050      346.791       25.292      867.972
10/03/2014  16:32:00      130.505      119.247        7.367       68.073       48.387       45.375     4633.877     2341.273     2058.857        2.017        0.452      176.781       28.553        0.026      346.706       25.145      867.959
10/03/2014  16:33:00      135.335       93.428       18.556       59.523       48.728       39.101     3542.990     2374.387     1528.860        1.742        0.372      164.451       26.208        0.025      346.745       25.213      867.957
10/03/2014  16:34:00       88.224       80.800        4.589       87.419       56.448       46.438     7642.142     3186.358     2156.487        1.366        0.649      119.634       34.804        0.085      346.891       25.463      867.963
10/03/2014  16:35:00      101.369      101.152        6.271       93.034       72.253       61.907     8655.293     5220.453     3832.454        1.912        0.885      143.204       47.665        0.111      346.841       25.377      867.969
10/03/2014  16:36:00       94.399      125.854        2.624       84.297       76.258       59.986     7105.976     5815.253     3598.362        2.064        0.826      157.323       45.131        0.082      346.821       25.341      867.967
10/03/2014  16:37:00      108.466       63.220       11.889       78.414       57.827       41.659     6148.694     3344.003     1735.472        1.356        0.561      125.546       37.732        0.090      346.820       25.343      867.962
10/03/2014  16:38:00      104.647       60.086       36.332       84.251       63.213       50.600     7098.206     3995.846     2560.350        1.477        0.683      120.671       33.019        0.075      346.782       25.276      867.955
10/03/2014  16:39:00       88.212      107.621       -9.286       86.065       67.545       56.604     7407.246     4562.295     3203.978        1.731        0.759      139.153       51.461        0.137      346.747       25.216      867.959
10/03/2014  16:40:00      111.097       85.557       23.665       93.547       51.091       42.163     8751.020     2610.255     1777.697        1.668        0.657      140.223       22.903        0.027      346.725       25.177      867.950
10/03/2014  16:41:00       80.758       77.438        2.207       71.185       55.456       39.370     5067.258     3075.357     1550.032        1.111        0.485      111.886       24.408        0.048      346.875       25.436      867.939
10/03/2014  16:42:00       56.474       32.743       22.315       51.214       39.548       27.347     2622.859     1564.052      747.861        0.485        0.247       65.280       16.083        0.061      346.799       25.308      867.934
10/03/2014  16:43:00      137.766       85.973       34.518       36.502       33.347       31.519     1332.381     1112.040      993.423        1.550        0.172      162.391       18.244        0.013      346.772       25.260      867.927
10/03/2014  16:44:00      122.106       86.535       23.356       28.097       22.823       21.675      789.415      520.911      469.814        1.236        0.089      149.660       14.805        0.010      346.747       25.217      867.920
10/03/2014  16:45:00       72.432       21.198       12.125       45.087       41.876       23.098     2032.804     1753.561      533.533        0.508        0.216       75.471       22.649        0.090      346.799       25.306      867.914
10/03/2014  16:46:00      100.278       56.719       10.430       43.122       36.784       30.045     1859.535     1353.055      902.683        0.875        0.206      115.207       24.111        0.044      346.820       25.343      867.907
10/03/2014  16:47:00       20.488       70.079       68.353       56.214       30.684       45.918     3159.958      941.479     2108.494        0.811        0.310       73.012       45.068        0.381      346.994       25.640      867.894
10/03/2014  16:48:00       54.405       47.822       27.691       50.139       58.807       48.873     2513.928     3458.226     2388.542        0.719        0.418       72.435       37.264        0.265      347.122       25.863      867.892
10/03/2014  16:49:00       51.111       43.522       39.580       63.662       42.945       32.481     4052.797     1844.278     1055.009        0.651        0.348       67.130       29.201        0.189      347.086       25.801      867.885
10/03/2014  16:50:00      101.770       60.199       30.918       46.734       45.493       44.028     2184.092     2069.578     1938.483        1.056        0.310      118.241       32.557        0.076      346.927       25.526      867.880
10/03/2014  16:51:00       44.746       41.198       30.716       45.617       34.739       31.589     2080.895     1206.777      997.868        0.446        0.214       60.824       31.933        0.276      346.965       25.591      867.870
10/03/2014  16:52:00       51.216       20.372       28.962       42.559       49.350       23.493     1811.284     2435.388      551.944        0.434        0.240       55.119       23.370        0.180      346.840       25.376      867.862
10/03/2014  16:53:00      113.582       51.411       11.702       32.737       46.392       23.940     1071.739     2152.221      573.115        0.974        0.190      124.675        8.900        0.005      346.836       25.369      867.856
10/03/2014  16:54:00       36.517       36.335        0.632       33.648       35.593       26.269     1132.162     1266.869      690.055        0.287        0.154       51.515       21.123        0.168      346.951       25.568      867.858
10/03/2014  16:55:00       81.409       84.992       13.986       77.783       45.858       37.285     6050.202     2102.983     1390.208        1.179        0.477      117.690       28.999        0.061      346.883       25.450      867.855
10/03/2014  16:56:00      162.263       81.738       19.201       57.714       44.560       31.945     3330.929     1985.600     1020.460        1.986        0.317      181.687       20.866        0.013      346.794       25.296      867.849
10/03/2014  16:57:00      149.993      107.869       14.639       75.226       51.152       42.555     5659.003     2616.532     1810.926        2.222        0.504      184.753       20.782        0.013      346.869       25.425      867.843
10/03/2014  16:58:00       96.160       77.406        3.010       64.796       41.074       35.441     4198.521     1687.085     1256.043        1.119        0.357      123.444       24.105        0.038      346.812       25.329      867.848
10/03/2014  16:59:00       70.951       80.695       -6.853       55.934       34.893       35.542     3128.632     1217.534     1263.223        0.860        0.280      107.451       25.483        0.056      346.754       25.229      867.847
10/03/2014  17:00:00       95.024       62.819        6.676       70.441       50.335       31.237     4961.887     2533.588      975.755        1.074        0.424      113.912       27.718        0.059      346.815       25.334      867.846
10/03/2014  17:01:00      105.080       54.854        2.173       88.924       53.712       41.026     7907.394     2884.974     1683.112        1.326        0.624      118.536       25.679        0.047      346.813       25.330      867.838
10/03/2014  17:02:00       45.171      111.485       -2.308       49.806       61.388       32.676     2480.603     3768.456     1067.719        1.089        0.366      120.289       29.893        0.062      346.822       25.345      867.842
10/03/2014  17:03:00       55.736      154.214      -21.974       58.472       93.867       46.780     3418.997     8810.936     2188.367        2.089        0.721      163.977       50.803        0.096      346.777       25.267      867.844
10/03/2014  17:04:00       59.134      164.017      -17.692       54.859       81.899       48.246     3009.559     6707.459     2327.660        2.138        0.602      174.352       46.139        0.070      346.774       25.260      867.838
10/03/2014  17:05:00      124.165       77.881       11.131       62.671       46.669       35.206     3927.695     2177.991     1239.429        1.447        0.367      146.568       21.503        0.022      346.886       25.456      867.839
10/03/2014  17:06:00      114.975       51.277        9.298       68.287       65.900       56.231     4663.093     4342.855     3161.897        1.405        0.608      125.891       37.014        0.086      346.871       25.429      867.842
10/03/2014  17:07:00       29.018       54.217        2.524       38.323       42.712       26.624     1468.678     1824.327      708.835        0.389        0.200       61.494       22.576        0.135      346.824       25.350      867.842
10/03/2014  17:08:00       68.093       43.712       19.851       46.375       39.743       38.993     2150.635     1579.521     1520.439        0.610        0.263       80.916       29.713        0.135      346.767       25.250      867.834
10/03/2014  17:09:00       99.815       72.384       -0.824       44.082       38.367       33.864     1943.201     1472.021     1146.746        0.988        0.228      123.299       17.314        0.020      346.859       25.410      867.833
10/03/2014  17:10:00       72.144       73.202        7.672       66.469       49.981       34.212     4418.144     2498.129     1170.441        0.935        0.404      102.778       24.878        0.059      346.905       25.489      867.827
10/03/2014  17:11:00       55.453       56.632        5.760       41.741       55.787       29.150     1742.314     3112.244      849.708        0.601        0.285       79.261       26.885        0.115      346.901       25.481      867.824
10/03/2014  17:12:00       29.849       46.746       -3.290       30.629       48.237       21.399      938.126     2326.814      457.929        0.340        0.186       55.463       20.119        0.132      346.818       25.340      867.830
10/03/2014  17:13:00       68.096       47.480        8.247       53.158       29.760       28.036     2825.770      885.674      786.010        0.573        0.225       83.014       10.597        0.016      346.883       25.450      867.824
10/03/2014  17:14:00      179.689      117.817       36.043       78.135       65.621       50.469     6105.020     4306.120     2547.106        3.021        0.648      214.870       23.368        0.012      346.773       25.258      867.824
10/03/2014  17:15:00      166.698      123.130       17.709       61.872       54.133       48.684     3828.196     2930.347     2370.171        2.619        0.456      207.242       20.760        0.010      346.794       25.296      867.825
10/03/2014  17:16:00       82.242       84.444       -1.451       52.193       55.571       47.047     2724.080     3088.177     2213.379        1.096        0.401      117.875       37.581        0.102      346.807       25.319      867.827
10/03/2014  17:17:00       99.599       92.947       -0.242       46.234       34.485       41.006     2137.563     1189.184     1681.512        1.178        0.250      136.232       24.044        0.031      346.784       25.281      867.828
10/03/2014  17:18:00      106.233       73.815        5.594       46.934       31.455       33.880     2202.754      989.419     1147.882        1.055        0.217      129.360       20.721        0.026      346.834       25.368      867.824
10/03/2014  17:19:00       64.298       50.907       13.659       59.392       28.569       24.639     3527.447      816.190      607.099        0.593        0.248       82.011       12.802        0.024      346.811       25.327      867.815
10/03/2014  17:20:00       58.824       59.611       12.973       50.708       53.276       35.875     2571.351     2838.372     1287.043        0.694        0.335       83.748       30.644        0.134      346.800       25.308      867.811
10/03/2014  17:21:00       94.822       62.909       -9.360       48.278       40.052       27.959     2330.812     1604.192      781.709        0.888        0.236      113.792       19.470        0.029      346.841       25.380      867.806
10/03/2014  17:22:00       42.138       63.005       -4.178       43.253       42.585       32.381     1870.833     1813.441     1048.503        0.525        0.237       75.797       25.360        0.112      346.817       25.338      867.798
10/03/2014  17:23:00       57.847       55.080        0.418       51.506       35.007       25.968     2652.891     1225.523      674.317        0.547        0.228       79.876       23.085        0.084      346.822       25.347      867.794
10/03/2014  17:24:00       20.353       48.515       -5.894       28.839       22.440       13.253      831.665      503.547      175.635        0.216        0.076       52.611        8.957        0.029      346.823       25.346      867.790
10/03/2014  17:25:00       59.524       41.627       25.360       46.384       35.780       32.255     2151.477     1280.195     1040.375        0.519        0.224       72.636       21.039        0.084      346.805       25.317      867.791
10/03/2014  17:26:00       99.964       51.151       12.476       39.840       27.854       28.720     1587.187      775.871      824.862        0.798        0.159      112.291       10.028        0.008      346.779       25.272      867.788
10/03/2014  17:27:00       59.222       59.875       -1.047       59.786       42.168       37.534     3574.351     1778.169     1408.830        0.693        0.338       84.216       26.080        0.096      346.852       25.398      867.799
10/03/2014  17:28:00      101.107       65.876        9.301       70.624       53.992       41.548     4987.687     2915.159     1726.251        1.214        0.481      120.674       28.577        0.056      346.840       25.376      867.791
10/03/2014  17:29:00      127.431       54.083       29.769       73.014       52.571       51.337     5331.106     2763.761     2635.516        1.539        0.537      138.433       31.455        0.052      346.816       25.334      867.789
10/03/2014  17:30:00       83.173       23.718       32.686       63.748       49.541       43.645     4063.785     2454.318     1904.921        0.848        0.421       86.488       28.984        0.112      346.825       25.352      867.800
10/03/2014  17:31:00       44.985       22.581       37.816       64.658       49.992       38.561     4180.653     2499.186     1486.970        0.606        0.408       50.334       38.864        0.596      346.920       25.514      867.793
10/03/2014  17:32:00       59.679       64.713        3.948       50.804       36.956       29.013     2581.015     1365.742      841.752        0.628        0.239       88.030       21.324        0.059      346.773       25.261      867.796
10/03/2014  17:33:00       64.453       44.318        4.862       34.654       31.230       21.084     1200.919      975.329      444.529        0.438        0.131       78.219        8.080        0.011      346.667       25.080      867.801
10/03/2014  17:34:00       56.350       86.562        1.204       47.620       56.825       32.716     2267.696     3229.051     1070.321        0.862        0.328      103.288       31.493        0.093      346.727       25.182      867.806
10/03/2014  17:35:00      109.769       93.804        4.601       77.631       52.571       34.305     6026.531     2763.672     1176.866        1.542        0.498      144.390       32.291        0.050      346.760       25.239      867.802
10/03/2014  17:36:00      124.486       80.362        5.133       55.868       38.781       38.818     3121.257     1503.974     1506.818        1.406        0.307      148.172       24.497        0.027      346.811       25.325      867.801
10/03/2014  17:37:00       74.961       34.046       -0.693       41.169       26.089       25.192     1694.899      680.617      634.626        0.489        0.151       82.331       16.442        0.040      346.719       25.168      867.810
10/03/2014  17:38:00       64.984       72.745       -6.212       63.212       58.651       40.715     3995.795     3439.951     1657.697        0.932        0.455       97.544       40.819        0.175      346.734       25.195      867.812
10/03/2014  17:39:00       81.980       33.519       11.806       45.889       29.017       22.088     2105.782      841.992      487.887        0.571        0.172       88.568       17.947        0.041      346.686       25.112      867.817
10/03/2014  17:40:00       97.866       83.486       17.851       65.408       46.655       42.701     4278.242     2176.722     1823.362        1.257        0.414      128.638       20.491        0.025      346.714       25.159      867.830
10/03/2014  17:41:00      131.370       98.255        6.424       69.614       33.039       33.799     4846.147     1091.545     1142.400        1.702        0.354      164.049       20.066        0.015      346.726       25.180      867.828
10/03/2014  17:42:00      133.250       78.868       25.751       83.096       60.716       43.252     6904.966     3686.463     1870.757        1.855        0.623      154.841       17.468        0.013      346.729       25.185      867.830
10/03/2014  17:43:00      108.040       76.785       26.936       48.892       34.789       31.231     2390.453     1210.261      975.359        1.143        0.229      132.546       20.432        0.024      346.704       25.144      867.836
10/03/2014  17:44:00      127.181       93.805       18.052       32.960       31.447       29.603     1086.375      988.902      876.354        1.413        0.148      158.033       13.424        0.007      346.683       25.107      867.837
10/03/2014  17:45:00      116.132       79.623       11.857       48.750       42.486       36.817     2376.596     1805.070     1355.467        1.275        0.277      140.806       28.050        0.040      346.735       25.198      867.834
10/03/2014  17:46:00       94.151       65.825       12.592       31.210       23.266       26.215      974.059      541.314      687.250        0.778        0.110      114.880       14.800        0.017      346.736       25.198      867.829
10/03/2014  17:47:00       70.785       59.537       18.755       50.437       28.206       25.250     2543.936      795.578      637.543        0.644        0.199       92.494       20.887        0.051      346.700       25.136      867.831
10/03/2014  17:48:00      119.051       69.412       21.682       48.781       26.509       32.360     2379.622      702.735     1047.154        1.179        0.206      137.808       22.376        0.026      346.674       25.092      867.826
10/03/2014  17:49:00      134.225       43.038       19.373       51.280       45.978       31.228     2629.600     2113.953      975.181        1.298        0.286      140.956       25.015        0.031      346.641       25.035      867.820
10/03/2014  17:50:00      114.871       60.949       22.339       40.330       30.278       30.640     1626.496      916.768      938.788        1.044        0.174      130.039       13.756        0.011      346.653       25.056      867.813
10/03/2014  17:51:00      107.727       49.178        9.494       43.057       35.055       28.291     1853.893     1228.849      800.394        0.900        0.194      118.421       14.646        0.015      346.666       25.079      867.817
10/03/2014  17:52:00       42.082       43.285        3.075       36.142       20.054       21.553     1306.242      402.172      464.530        0.291        0.109       60.369       14.814        0.060      346.605       24.972      867.823
10/03/2014  17:53:00       60.431       55.927        3.239       44.330       30.502       25.076     1965.127      930.392      628.827        0.516        0.176       82.339       18.718        0.052      346.597       24.958      867.827
10/03/2014  17:54:00       62.610       62.761        4.909       47.100       34.119       33.887     2218.413     1164.125     1148.296        0.621        0.227       88.651       22.462        0.064      346.611       24.982      867.828
10/03/2014  17:55:00       52.958       61.776        9.499       38.708       34.485       31.493     1498.329     1189.224      991.820        0.519        0.184       81.369       23.356        0.082      346.638       25.029      867.825
10/03/2014  17:56:00       32.070       53.198       -5.197       29.997       30.709       20.836      899.803      943.030      434.153        0.308        0.114       62.118       15.873        0.065      346.563       24.901      867.818
10/03/2014  17:57:00       22.024       75.324       -4.236       32.511       47.361       24.136     1056.957     2243.075      582.557        0.503        0.194       78.478       25.149        0.103      346.529       24.843      867.822
10/03/2014  17:58:00       39.655       49.689       -0.069       38.631       34.999       21.831     1492.339     1224.949      476.604        0.362        0.160       63.573       13.822        0.047      346.539       24.860      867.818
10/03/2014  17:59:00       86.965       66.481       10.983       42.981       33.160       27.891     1847.368     1099.584      777.897        0.791        0.186      109.466       23.905        0.048      346.507       24.804      867.813
10/03/2014  18:00:00       23.333       79.807       -4.205       36.097       33.732       22.451     1302.992     1137.840      504.036        0.494        0.147       83.148       22.558        0.074      346.422       24.659      867.812
10/03/2014  18:01:00       52.301      108.120        7.743       52.540       67.181       50.667     2760.436     4513.306     2567.098        1.216        0.492      120.106       44.213        0.136      346.387       24.597      867.807
10/03/2014  18:02:00       50.208      181.205      -26.124       37.730       72.571       40.522     1423.577     5266.609     1642.007        2.218        0.417      188.032       42.599        0.051      346.391       24.603      867.807
10/03/2014  18:03:00       79.900       56.595        3.919       37.638       26.469       23.088     1416.596      700.599      533.054        0.613        0.133       97.913       13.132        0.018      346.249       24.361      867.810
10/03/2014  18:04:00       22.516       41.433       -0.598       26.378       32.153       24.532      695.793     1033.799      601.820        0.228        0.117       47.155       14.425        0.094      346.254       24.369      867.808
10/03/2014  18:05:00       51.148       83.717       -6.750       44.007       37.627       29.449     1936.574     1415.824      867.238        0.694        0.211       98.106       25.973        0.070      346.335       24.510      867.804
10/03/2014  18:06:00       61.641       76.148       -1.194       41.984       44.802       30.007     1762.639     2007.225      900.418        0.713        0.234       97.970       30.272        0.095      346.357       24.547      867.800
10/03/2014  18:07:00       57.206       37.244       12.875       39.848       23.936       24.977     1587.836      572.945      623.854        0.380        0.139       68.262       15.712        0.053      346.295       24.440      867.800
10/03/2014  18:08:00       72.382       54.773       10.642       42.358       23.150       19.434     1794.191      535.925      377.689        0.553        0.135       90.770       16.021        0.031      346.256       24.373      867.809
10/03/2014  18:09:00       58.639       42.967        5.847       51.083       34.993       20.967     2609.460     1224.505      439.622        0.480        0.214       72.696       12.807        0.031      346.262       24.382      867.817
10/03/2014  18:10:00      111.003       88.363       12.838       63.262       36.912       35.337     4002.124     1362.465     1248.721        1.345        0.331      141.879       24.486        0.030      346.304       24.454      867.821
10/03/2014  18:11:00       61.541       35.475       15.707       44.710       29.143       21.776     1998.976      849.315      474.205        0.431        0.166       71.034       17.899        0.063      346.178       24.239      867.824
10/03/2014  18:12:00      111.684       80.150       16.409       45.785       33.714       35.658     2096.308     1136.605     1271.494        1.183        0.225      137.468       25.950        0.036      346.177       24.237      867.828
10/03/2014  18:13:00      108.848       63.384       13.807       34.790       28.055       27.641     1210.354      787.069      764.020        0.941        0.138      125.958        9.014        0.005      346.155       24.197      867.823
10/03/2014  18:14:00      120.545       80.780       30.970       46.568       40.089       31.898     2168.618     1607.113     1017.514        1.340        0.240      145.109       15.908        0.012      346.112       24.123      867.828
10/03/2014  18:15:00      142.241       89.857       18.006       51.989       31.906       26.902     2702.853     1018.011      723.742        1.654        0.222      168.247       17.213        0.010      346.180       24.242      867.845
10/03/2014  18:16:00      124.756       85.581       12.973       49.440       35.341       32.062     2444.277     1248.983     1027.982        1.389        0.236      151.288       23.910        0.025      346.127       24.149      867.844
10/03/2014  18:17:00       84.917       53.684        7.398       31.917       21.900       19.458     1018.721      479.592      378.611        0.601        0.094      100.463       14.008        0.019      345.978       23.894      867.854
10/03/2014  18:18:00       55.810       38.889        5.718       30.366       24.512       25.879      922.115      600.834      669.745        0.343        0.110       68.023       14.315        0.044      345.967       23.876      867.856
10/03/2014  18:19:00       84.679       70.859        4.072       45.368       38.529       27.165     2058.279     1484.501      737.949        0.824        0.214      110.415       20.544        0.035      346.028       23.981      867.865
10/03/2014  18:20:00      112.295       70.421       12.412       37.447       31.755       32.397     1402.315     1008.374     1049.540        1.059        0.173      132.550       19.560        0.022      345.990       23.915      867.868
10/03/2014  18:21:00       82.596       64.359       18.804       39.549       30.939       27.600     1564.159      957.245      761.783        0.730        0.164      104.710       16.857        0.026      345.941       23.832      867.873
10/03/2014  18:22:00      107.598       81.095       18.591       57.272       53.999       43.103     3280.099     2915.921     1857.849        1.328        0.403      134.736       23.246        0.030      345.925       23.804      867.872
10/03/2014  18:23:00      125.946       95.527        8.720       44.861       35.985       44.455     2012.520     1294.956     1976.241        1.517        0.264      158.076       27.695        0.031      345.890       23.743      867.868
10/03/2014  18:24:00      103.069       85.561        2.128       68.119       41.741       44.297     4640.163     1742.323     1962.256        1.315        0.417      133.955       25.257        0.036      345.837       23.653      867.873
10/03/2014  18:25:00      132.613       89.532        8.221       40.766       38.236       43.034     1661.864     1462.011     1851.886        1.532        0.249      160.007       28.392        0.031      345.776       23.550      867.876
10/03/2014  18:26:00       98.946       59.607       22.317       44.960       29.342       33.150     2021.378      860.960     1098.913        0.891        0.199      115.513       19.310        0.028      345.737       23.480      867.871
10/03/2014  18:27:00       78.572       69.093        9.814       67.781       38.299       33.816     4594.300     1466.800     1143.497        0.912        0.360      104.630       26.387        0.064      345.684       23.390      867.865
10/03/2014  18:28:00       73.459       59.210       10.530       50.653       30.922       29.529     2565.719      956.177      871.961        0.670        0.220       94.351       20.454        0.047      345.585       23.220      867.871
10/03/2014  18:29:00       75.832       68.777        4.766       47.558       36.112       33.344     2261.787     1304.099     1111.834        0.759        0.234      102.376       24.004        0.055      345.606       23.257      867.877
10/03/2014  18:30:00       55.562       69.626       10.739       48.192       36.609       37.105     2322.493     1340.204     1376.764        0.654        0.252       89.078       22.037        0.061      345.602       23.250      867.878
10/03/2014  18:31:00       81.035       68.815       18.134       49.729       40.581       41.030     2472.996     1646.810     1683.488        0.872        0.290      106.311       29.879        0.079      345.604       23.252      867.884
10/03/2014  18:32:00       70.852       70.385        4.063       48.501       36.806       37.026     2352.388     1354.661     1370.957        0.753        0.254       99.870       21.852        0.048      345.531       23.128      867.904
10/03/2014  18:33:00       67.363       51.613       17.416       42.693       27.045       30.697     1822.691      731.441      942.324        0.550        0.175       84.863       19.708        0.054      345.502       23.077      867.905
10/03/2014  18:34:00       67.049       54.938        3.160       51.968       44.213       33.840     2700.639     1954.769     1145.149        0.666        0.290       86.682       28.379        0.107      345.488       23.052      867.908
10/03/2014  18:35:00       50.615       58.830       -1.951       38.593       41.179       29.055     1489.410     1695.694      844.221        0.503        0.201       77.607       23.973        0.095      345.508       23.088      867.917
10/03/2014  18:36:00       87.885       69.718       13.600       43.126       33.222       33.819     1859.882     1103.719     1143.711        0.844        0.205      112.180       21.636        0.037      345.502       23.078      867.911
10/03/2014  18:37:00       91.661       67.900       24.498       45.492       31.434       34.723     2069.511      988.092     1205.684        0.894        0.213      114.070       20.480        0.032      345.498       23.069      867.913
10/03/2014  18:38:00       84.349       67.436       11.666       40.721       33.037       27.744     1658.224     1091.454      769.707        0.766        0.176      107.992       20.982        0.038      345.444       22.978      867.917
10/03/2014  18:39:00      116.615       78.779       18.902       41.001       35.200       27.922     1681.108     1239.013      779.654        1.193        0.185      140.731       18.224        0.017      345.451       22.991      867.914
10/03/2014  18:40:00       77.462       38.597        6.950       46.633       39.974       29.924     2174.608     1597.940      895.444        0.610        0.233       86.545       17.349        0.040      345.306       22.741      867.917
10/03/2014  18:41:00       72.688       60.560       10.999       36.779       29.816       29.068     1352.732      888.975      844.942        0.608        0.154       94.610       17.170        0.033      345.389       22.885      867.923
10/03/2014  18:42:00       63.053       59.196        2.905       37.774       35.237       28.877     1426.863     1241.655      833.870        0.549        0.175       86.486       24.538        0.080      345.387       22.881      867.930
10/03/2014  18:43:00       67.478       80.553       -2.023       35.422       47.512       35.002     1254.704     2257.368     1225.118        0.789        0.237      105.081       31.815        0.092      345.379       22.868      867.936
10/03/2014  18:44:00       28.403       69.815       -5.054       33.836       33.151       25.120     1144.883     1098.958      631.037        0.429        0.144       75.371       20.922        0.077      345.313       22.754      867.938
10/03/2014  18:45:00       47.430       43.408        9.181       36.059       37.144       28.373     1300.278     1379.678      805.010        0.385        0.174       64.295       22.498        0.122      345.301       22.733      867.951
10/03/2014  18:46:00       41.188       74.518       -1.131       44.517       38.311       26.079     1981.740     1467.763      680.089        0.569        0.206       85.143       25.166        0.087      345.304       22.738      867.959
10/03/2014  18:47:00       29.365       98.271       -7.086       35.753       49.498       30.198     1278.296     2450.085      911.907        0.760        0.232      102.565       29.646        0.084      345.299       22.730      867.971
10/03/2014  18:48:00       32.738       81.350       -2.237       29.551       42.590       25.617      873.289     1813.928      656.211        0.552        0.167       87.691       25.425        0.084      345.282       22.700      867.979
10/03/2014  18:49:00       49.684       88.875       -8.379       35.158       42.717       34.807     1236.066     1824.773     1211.547        0.735        0.214      101.820       28.195        0.077      345.217       22.590      867.980
10/03/2014  18:50:00       36.677      110.577      -12.089       37.044       48.138       27.796     1372.290     2317.296      772.598        0.909        0.223      116.501       26.850        0.053      345.223       22.599      867.993
10/03/2014  18:51:00       32.204       90.293       -6.261       37.911       46.352       31.675     1437.252     2148.510     1003.308        0.691        0.229       95.864       31.998        0.111      345.193       22.548      868.002
10/03/2014  18:52:00       38.842       61.404       -1.484       43.039       42.064       29.660     1852.393     1769.349      879.699        0.489        0.225       72.658       28.119        0.150      345.217       22.590      868.017
10/03/2014  18:53:00       21.285       74.414       -8.031       28.520       43.470       25.777      813.384     1889.680      664.465        0.471        0.168       77.398       22.191        0.082      345.192       22.547      868.017
10/03/2014  18:54:00       32.533      133.889      -21.111       22.203       22.031       19.258      492.992      485.371      370.883        1.039        0.067      137.785       13.760        0.010      345.174       22.516      868.032
10/03/2014  18:55:00       38.124      141.413      -27.129       29.810       35.665       22.602      888.642     1272.028      510.839        1.243        0.134      146.462       20.679        0.020      345.182       22.531      868.029
10/03/2014  18:56:00       14.707      149.237      -24.849       39.774       47.290       22.930     1581.999     2236.337      525.794        1.372        0.217      149.960       23.926        0.025      345.120       22.425      868.044
10/03/2014  18:57:00       25.818      106.874       -7.672       24.408       43.907       22.804      595.757     1927.800      520.041        0.760        0.152      109.949       23.964        0.048      344.988       22.198      868.047
10/03/2014  18:58:00       28.122      110.453      -12.953       26.282       40.663       20.341      690.730     1653.475      413.771        0.796        0.138      113.976       16.275        0.020      344.992       22.206      868.055
10/03/2014  18:59:00       26.133       84.875       -3.649       29.012       59.285       33.339      841.681     3514.742     1111.501        0.668        0.273       88.807       37.962        0.183      344.926       22.092      868.060
10/03/2014  19:00:00       36.505       96.154       -3.389       36.479       65.453       36.572     1330.707     4284.147     1337.520        0.877        0.348      102.851       37.723        0.135      344.985       22.193      868.063
10/03/2014  19:01:00       39.579      114.588      -13.437       32.282       39.397       24.063     1042.102     1552.087      579.016        0.902        0.159      121.231       23.142        0.036      344.903       22.052      868.063
10/03/2014  19:02:00       37.945      102.657       -6.203       35.127       52.193       31.468     1233.918     2724.091      990.228        0.848        0.247      109.445       33.274        0.092      344.895       22.038      868.067
10/03/2014  19:03:00       51.588       97.211      -11.640       35.115       55.807       31.058     1233.054     3114.453      964.615        0.878        0.266      110.051       32.003        0.085      344.909       22.063      868.067
10/03/2014  19:04:00       34.330       89.900       -0.277       44.311       62.761       35.842     1963.475     3938.979     1284.642        0.822        0.359       96.232       37.643        0.153      344.887       22.024      868.074
10/03/2014  19:05:00       38.437       73.613       -1.122       37.212       57.378       33.508     1384.760     3292.273     1122.766        0.635        0.290       83.044       30.503        0.135      344.813       21.897      868.074
10/03/2014  19:06:00       28.696      121.900      -14.185       30.911       37.776       23.456      955.496     1427.050      550.163        0.941        0.147      125.232       23.200        0.034      344.908       22.061      868.083
10/03/2014  19:07:00       24.587      143.040      -24.394       31.079       31.490       17.392      965.912      991.592      302.467        1.196        0.113      145.138       18.420        0.016      344.880       22.012      868.087
10/03/2014  19:08:00       14.285      140.294      -28.077       22.336       30.258       13.035      498.912      915.530      169.906        1.113        0.079      141.019       13.874        0.010      344.853       21.967      868.080
10/03/2014  19:09:00       26.726      140.422      -25.972       24.988       33.396       15.163      624.390     1115.262      229.928        1.154        0.098      142.943       16.017        0.013      344.889       22.028      868.089
10/03/2014  19:10:00       32.763      107.352      -16.249       24.646       44.068       20.090      607.437     1941.960      403.589        0.791        0.148      112.241       18.967        0.029      344.748       21.788      868.093
10/03/2014  19:11:00       31.307       87.248       -9.268       30.633       55.600       27.610      938.381     3091.407      762.331        0.673        0.240       92.695       32.232        0.121      344.681       21.672      868.104
10/03/2014  19:12:00       31.381      118.433      -10.984       37.285       38.580       25.089     1390.151     1488.380      629.451        0.932        0.175      122.520       22.707        0.034      344.666       21.647      868.096
10/03/2014  19:13:00       31.700       73.930       -2.004       43.372       51.339       36.272     1881.146     2635.743     1315.658        0.615        0.292       80.440       32.958        0.168      344.660       21.637      868.103
10/03/2014  19:14:00       29.027       88.857       -2.653       32.998       44.512       25.178     1088.869     1981.321      633.936        0.622        0.185       93.478       24.370        0.068      344.591       21.519      868.102
10/03/2014  19:15:00       35.907       92.366       -8.074       30.165       41.182       26.059      909.899     1695.942      679.087        0.658        0.164       99.100       20.586        0.043      344.627       21.580      868.107
10/03/2014  19:16:00       43.459       79.190        2.513       41.764       54.178       43.641     1744.272     2935.276     1904.564        0.737        0.329       90.331       35.902        0.158      344.623       21.573      868.112
10/03/2014  19:17:00       20.289      107.394       -9.150       29.061       46.587       24.019      844.514     2170.303      576.891        0.781        0.180      109.294       23.938        0.048      344.614       21.557      868.121
10/03/2014  19:18:00       29.741       99.865       -3.148       33.561       62.574       37.770     1126.308     3915.508     1426.583        0.867        0.323      104.200       36.868        0.125      344.596       21.527      868.125
10/03/2014  19:19:00       27.605      114.207      -12.572       31.486       43.703       24.826      991.358     1909.975      616.325        0.874        0.176      117.496       26.130        0.049      344.629       21.584      868.125
10/03/2014  19:20:00       -6.585      108.375      -16.657       25.197       20.794       16.476      634.881      432.389      271.467        0.670        0.067      108.575        6.106        0.003      344.584       21.508      868.138
10/03/2014  19:21:00      -35.546      113.370      -20.696       30.613       29.103       13.083      937.135      846.959      171.171        0.825        0.098      118.812        7.562        0.004      344.591       21.520      868.140
10/03/2014  19:22:00      -32.631       92.212      -17.725       18.158       29.745       12.753      329.705      884.778      162.638        0.563        0.069       97.815       10.463        0.011      344.577       21.494      868.154
10/03/2014  19:23:00      -49.071       13.312       -5.634       29.543       25.258       14.774      872.806      637.982      218.268        0.217        0.086       50.845       12.853        0.064      344.257       20.947      868.150
10/03/2014  19:24:00      -51.242       -0.944       -6.244       33.248       30.973       14.405     1105.429      959.326      207.503        0.247        0.114       51.250       12.783        0.062      344.372       21.145      868.154
10/03/2014  19:25:00      -37.263       15.027       -6.137       19.094       14.473       12.382      364.587      209.457      153.313        0.119        0.036       40.179       12.350        0.094      344.084       20.651      868.162
10/03/2014  19:26:00      -44.802       24.304      -13.024       48.307       32.902       14.033     2333.610     1082.516      196.913        0.319        0.181       50.969       10.927        0.046      344.205       20.859      868.168
10/03/2014  19:27:00      -67.249      -28.684      -11.370       14.694       16.254        9.407      215.918      264.207       88.486        0.302        0.028       73.111        5.946        0.007      343.942       20.410      868.183
10/03/2014  19:28:00      -78.558      -29.540       -9.310       24.307       24.021       12.453      590.834      577.023      155.072        0.423        0.066       83.928       11.642        0.019      343.818       20.197      868.184
10/03/2014  19:29:00      -71.774      -23.237      -10.258       16.998       18.717       11.840      288.928      350.322      140.181        0.329        0.039       75.442        8.969        0.014      343.756       20.093      868.199
10/03/2014  19:30:00      -87.176      -16.909       -8.696       29.924       27.442       13.868      895.443      753.077      192.329        0.490        0.092       88.800        3.344        0.001      343.768       20.112      868.200
10/03/2014  19:31:00      -63.247       -1.923      -10.202       19.892       24.607       12.918      395.685      605.507      166.884        0.264        0.058       63.276       10.855        0.029      343.774       20.122      868.215
10/03/2014  19:32:00      -72.854        5.132      -14.091       22.713       16.599       15.249      515.859      275.540      232.539        0.328        0.051       73.034       15.524        0.045      343.804       20.173      868.214
10/03/2014  19:33:00      -63.406        9.408      -13.847       29.822       27.316       17.154      889.361      746.141      294.260        0.311        0.096       64.101       13.254        0.043      343.971       20.459      868.223
10/03/2014  19:34:00      -87.784        5.363      -14.864       20.550       22.410       12.983      422.315      502.188      168.547        0.452        0.055       87.947        9.294        0.011      343.770       20.115      868.216
10/03/2014  19:35:00      -94.957       -0.460      -17.509       19.361       23.888       11.563      374.859      570.641      133.696        0.520        0.054       94.958        7.530        0.006      343.759       20.097      868.224
10/03/2014  19:36:00      -62.280        7.484      -12.895       25.394       20.825       19.502      644.848      433.688      380.334        0.278        0.073       62.729       18.194        0.084      343.565       19.766      868.223
10/03/2014  19:37:00      -82.467        7.294      -13.665       37.356       26.236       18.122     1395.483      688.345      328.399        0.473        0.121       82.789       17.542        0.045      343.718       20.028      868.233
10/03/2014  19:38:00      -83.677       16.255      -20.023       33.413       32.960       18.775     1116.445     1086.376      352.514        0.511        0.128       85.241       17.706        0.043      343.877       20.298      868.238
10/03/2014  19:39:00      -63.108       -8.683       -8.204       31.189       21.074       16.686      972.772      444.134      278.423        0.291        0.085       63.703       15.401        0.058      343.651       19.912      868.252
10/03/2014  19:40:00      -87.576       11.719      -11.652       41.313       25.653       16.282     1706.739      658.079      265.088        0.529        0.131       88.357       12.517        0.020      343.745       20.073      868.265
10/03/2014  19:41:00     -128.819       12.027      -14.002       36.088       26.788       24.955     1302.355      717.585      622.742        0.979        0.132      129.379       19.259        0.022      343.849       20.251      868.281
10/03/2014  19:42:00     -157.081        8.174      -13.987       32.143       30.559       18.308     1033.191      933.851      335.166        1.362        0.115      157.293       12.880        0.007      343.725       20.039      868.295
10/03/2014  19:43:00     -128.748        9.039      -20.329       35.378       33.242       21.888     1251.607     1105.057      479.068        0.995        0.142      129.065       21.942        0.029      343.589       19.806      868.310
10/03/2014  19:44:00      -92.998       -7.899      -10.585       23.776       25.199       16.646      565.282      634.997      277.089        0.515        0.074       93.333       15.379        0.027      343.621       19.862      868.318
10/03/2014  19:45:00     -104.965       -4.938      -15.775       25.554       30.159       20.270      652.996      909.552      410.869        0.663        0.099      105.081       11.688        0.012      343.501       19.658      868.340
10/03/2014  19:46:00     -101.680        6.280      -21.997       27.603       33.941       16.302      761.924     1152.007      265.768        0.652        0.109      101.874       15.627        0.024      343.682       19.965      868.345
10/03/2014  19:47:00      -90.340        3.999      -15.937       31.143       24.576       16.825      969.855      603.969      283.075        0.514        0.093       90.428        8.851        0.010      343.629       19.875      868.356
10/03/2014  19:48:00      -79.889       16.548      -19.937       31.061       29.042       17.385      964.776      843.446      302.242        0.458        0.106       81.585       14.766        0.033      343.675       19.952      868.354
10/03/2014  19:49:00      -61.714       11.325      -11.915       26.506       28.540       16.075      702.594      814.550      258.395        0.293        0.089       62.745        9.937        0.025      343.635       19.885      868.361
10/03/2014  19:50:00      -58.875        7.669      -13.390       28.126       21.789       16.320      791.054      474.770      266.344        0.262        0.077       59.372       13.167        0.049      343.640       19.894      868.363
10/03/2014  19:51:00      -63.617        8.943      -14.307       17.592       19.846       11.699      309.488      393.849      136.868        0.259        0.042       64.242        6.194        0.009      343.734       20.055      868.365
10/03/2014  19:52:00      -77.732        0.416      -14.973       17.747       21.560       13.485      314.943      464.819      181.842        0.361        0.048       77.733        9.013        0.013      343.569       19.773      868.357
10/03/2014  19:53:00      -55.910       13.459      -14.442       18.779       17.758       14.819      352.633      315.347      219.589        0.220        0.044       57.507        8.200        0.020      343.679       19.960      868.353
10/03/2014  19:54:00      -70.604        6.456       -8.408       19.522       19.879       12.362      381.104      395.192      152.819        0.301        0.046       70.899       10.630        0.022      343.655       19.920      868.362
10/03/2014  19:55:00      -75.369       -2.825      -15.711       31.280       22.434       16.498      978.417      503.297      272.169        0.384        0.088       75.421       17.979        0.057      343.344       19.390      868.374
10/03/2014  19:56:00      -77.658        8.941      -15.340       20.372       19.061       13.165      415.010      363.326      173.327        0.365        0.048       78.171       11.936        0.023      343.471       19.605      868.390
10/03/2014  19:57:00      -83.978      -14.393      -10.765       25.640       19.705       15.437      657.404      388.289      238.300        0.433        0.064       85.202       13.547        0.025      343.268       19.259      868.404
10/03/2014  19:58:00      -83.177      -30.606      -12.206       24.065       23.829       18.586      579.137      567.822      345.425        0.475        0.075       88.629       11.143        0.016      343.142       19.046      868.426
10/03/2014  19:59:00      -85.947      -29.825      -17.450       20.038       24.443       16.280      401.539      597.457      265.051        0.492        0.063       90.975       10.368        0.013      343.013       18.825      868.436
10/03/2014  20:00:00      -81.849      -30.604      -17.986       19.471       25.066       17.019      379.126      628.291      289.646        0.463        0.065       87.384        6.660        0.006      343.045       18.881      868.456
10/03/2014  20:01:00      -98.092      -11.700       -7.997       32.119       22.192       18.164     1031.637      492.498      329.942        0.584        0.093       98.787       16.905        0.029      342.978       18.768      868.463
10/03/2014  20:02:00      -98.763       -4.577       -8.189       36.761       26.495       22.556     1351.376      701.999      508.754        0.620        0.128       98.869       21.289        0.046      343.019       18.835      868.481
10/03/2014  20:03:00     -114.598      -13.469      -15.415       21.897       21.323       15.917      479.460      454.684      253.354        0.737        0.059      115.387       11.685        0.010      342.840       18.530      868.481
10/03/2014  20:04:00     -120.523       -5.721      -16.688       20.064       19.580       15.900      402.557      383.382      252.799        0.794        0.052      120.658       12.412        0.011      342.831       18.516      868.497
10/03/2014  20:05:00     -101.159       -2.295      -14.351       41.897       25.631       25.070     1755.330      656.934      628.516        0.674        0.152      101.186       27.090        0.072      342.847       18.544      868.500
10/03/2014  20:06:00      -83.949        3.082      -10.660       42.665       35.017       24.864     1820.301     1226.189      618.241        0.542        0.183       84.005       15.846        0.036      343.011       18.823      868.506
10/03/2014  20:07:00      -93.204       -0.738      -16.152       39.302       30.287       23.994     1544.649      917.297      575.695        0.599        0.152       93.207       16.620        0.032      343.068       18.919      868.499
10/03/2014  20:08:00      -95.578        4.174      -20.051       31.517       27.177       20.702      993.300      738.564      428.579        0.586        0.108       95.669       13.095        0.019      343.109       18.989      868.503
10/03/2014  20:09:00     -111.757      -12.724      -17.390       33.233       30.787       16.998     1104.434      947.819      288.949        0.765        0.117      112.479       13.724        0.015      342.883       18.604      868.493
10/03/2014  20:10:00      -99.258      -21.838      -16.501       44.176       34.840       20.889     1951.520     1213.829      436.346        0.710        0.180      101.632       20.426        0.040      342.875       18.591      868.494
10/03/2014  20:11:00     -111.203        2.778      -18.845       44.222       37.970       25.315     1955.596     1441.744      640.825        0.838        0.202      111.238       22.459        0.041      342.881       18.601      868.499
10/03/2014  20:12:00     -110.269       24.576      -19.436       49.945       37.662       24.331     2494.457     1418.394      592.009        0.882        0.225      112.975       21.625        0.037      342.930       18.683      868.514
10/03/2014  20:13:00      -86.109        7.785      -19.367       42.938       36.612       28.633     1843.712     1340.445      819.853        0.593        0.200       86.460       25.591        0.088      342.889       18.614      868.511
10/03/2014  20:14:00     -126.220       12.520      -20.094       49.384       38.225       26.605     2438.738     1461.153      707.830        1.055        0.230      126.839       28.066        0.049      342.911       18.652      868.525
10/03/2014  20:15:00      -73.952       -1.458      -14.093       44.899       32.230       21.706     2015.929     1038.779      471.145        0.460        0.176       73.967       23.084        0.097      342.833       18.520      868.529
10/03/2014  20:16:00      -81.265        6.620      -14.386       35.763       29.633       19.478     1279.019      878.093      379.386        0.470        0.127       81.534       12.086        0.022      343.020       18.837      868.538
10/03/2014  20:17:00      -83.539      -11.315      -17.374       32.611       25.852       17.997     1063.488      668.304      323.909        0.473        0.103       84.302       12.098        0.021      342.996       18.798      868.537
10/03/2014  20:18:00      -79.832        6.651      -17.920       39.164       28.115       20.006     1533.838      790.468      400.251        0.473        0.136       80.108       14.535        0.033      342.999       18.802      868.541
10/03/2014  20:19:00      -77.871        7.758      -17.194       36.922       33.006       24.305     1363.237     1089.409      590.755        0.473        0.152       78.257       20.764        0.070      342.979       18.767      868.535
10/03/2014  20:20:00     -105.106       10.808      -13.841       39.888       35.173       24.129     1591.024     1237.156      582.186        0.738        0.171      105.660       16.517        0.024      342.849       18.547      868.544
10/03/2014  20:21:00     -118.138       11.405      -16.534       57.805       29.641       26.126     3341.382      878.597      682.544        0.963        0.245      118.687       24.112        0.041      342.779       18.429      868.547
10/03/2014  20:22:00     -113.675        7.879      -24.387       33.155       32.337       18.475     1099.270     1045.702      341.321        0.803        0.124      113.948       16.292        0.020      342.740       18.361      868.562
10/03/2014  20:23:00      -87.319       -7.458      -19.732       24.978       23.650       14.242      623.908      559.312      202.848        0.473        0.069       87.637        7.633        0.008      342.663       18.230      868.572
10/03/2014  20:24:00      -82.619      -12.433      -15.002       18.724       24.096       12.746      350.600      580.626      162.457        0.415        0.055       83.550        9.517        0.013      342.596       18.116      868.577
10/03/2014  20:25:00      -71.780       -6.425      -13.336       41.123       31.235       22.796     1691.140      975.654      519.648        0.428        0.159       72.067       24.338        0.114      342.567       18.067      868.594
10/03/2014  20:26:00     -102.163       -4.815      -10.269       42.741       29.230       25.067     1826.771      854.385      628.358        0.694        0.165      102.276       17.489        0.029      342.599       18.121      868.602
10/03/2014  20:27:00      -88.486      -11.964      -20.598       40.077       30.877       23.263     1606.186      953.366      541.152        0.575        0.155       89.292       13.822        0.024      342.663       18.229      868.615
10/03/2014  20:28:00     -138.566        4.060      -19.657       46.257       34.190       25.124     2139.707     1168.963      631.220        1.177        0.197      138.625       18.110        0.017      342.620       18.157      868.617
10/03/2014  20:29:00     -111.869       14.052      -14.453       43.464       29.529       23.749     1889.081      871.954      563.999        0.812        0.166      112.748       22.732        0.041      342.565       18.065      868.632
10/03/2014  20:30:00      -92.263        0.937      -12.928       53.204       38.254       25.209     2830.664     1463.391      635.510        0.680        0.246       92.268       25.880        0.079      342.535       18.013      868.646
10/03/2014  20:31:00      -96.690       14.585      -12.366       62.790       37.987       22.463     3942.603     1443.042      504.580        0.780        0.295       97.784       25.031        0.066      342.577       18.084      868.657
10/03/2014  20:32:00     -122.907       16.976      -13.163       57.712       27.111       26.842     3330.726      734.984      720.473        1.018        0.239      124.074       31.285        0.064      342.587       18.101      868.656
10/03/2014  20:33:00     -104.494        8.190      -13.061       47.936       38.118       28.291     2297.892     1452.963      800.363        0.785        0.228      104.815       26.592        0.064      342.475       17.912      868.669
10/03/2014  20:34:00      -58.685       -3.309       -5.078       47.705       29.354       20.475     2275.792      861.641      419.211        0.352        0.178       58.778       20.979        0.127      342.485       17.927      868.675
10/03/2014  20:35:00      -79.749       -3.690      -20.425       30.196       16.623       13.851      911.814      276.319      191.856        0.409        0.069       79.834        9.812        0.015      342.455       17.877      868.690
10/03/2014  20:36:00      -95.984      -20.253      -13.943       18.668       33.827       15.834      348.476     1144.256      250.727        0.578        0.087       98.097       11.906        0.015      342.430       17.833      868.689
10/03/2014  20:37:00      -96.862        1.188       -9.003       36.020       29.017       21.079     1297.434      841.998      444.309        0.602        0.129       96.869       17.280        0.032      342.485       17.927      868.709
10/03/2014  20:38:00      -88.795       -3.192       -8.699       46.806       33.302       24.203     2190.795     1109.007      585.790        0.593        0.194       88.852       21.967        0.061      342.411       17.802      868.710
10/03/2014  20:39:00      -70.298       24.514      -19.706       25.569       36.987       16.878      653.793     1368.074      284.875        0.412        0.115       74.449       15.548        0.044      342.786       18.441      868.736
10/03/2014  20:40:00      -91.787        3.261       -7.613       23.258       34.385       20.166      540.938     1182.337      406.649        0.531        0.106       91.845       15.914        0.030      342.656       18.218      868.746
10/03/2014  20:41:00      -99.415      -28.486      -12.280       24.157       18.162       22.907      583.545      329.849      524.750        0.614        0.072      103.416       14.074        0.019      342.313       17.634      868.743
10/03/2014  20:42:00     -101.041       -2.047      -14.681       40.002       33.019       20.467     1600.121     1090.240      418.889        0.677        0.155      101.061       18.061        0.032      342.213       17.465      868.744
10/03/2014  20:43:00     -117.503        5.695      -18.146       36.774       27.139       23.136     1352.360      736.525      535.284        0.840        0.131      117.641       21.612        0.034      342.284       17.585      868.756
10/03/2014  20:44:00     -111.654       16.391      -20.455       49.803       24.386       25.741     2480.346      594.698      662.615        0.845        0.187      112.851       25.112        0.050      342.214       17.466      868.751
10/03/2014  20:45:00      -70.608        6.992      -20.702       19.906       17.474       14.819      396.240      305.343      219.588        0.319        0.046       70.953        9.128        0.017      342.132       17.327      868.770
10/03/2014  20:46:00      -70.899       41.340      -11.749       27.301       54.491       20.143      745.358     2969.227      405.752        0.550        0.206       82.071       14.221        0.030      342.475       17.911      868.773
10/03/2014  20:47:00      -94.521        6.906      -16.443       21.349       20.290        9.935      455.799      411.664       98.707        0.511        0.048       94.773        6.921        0.005      342.184       17.416      868.779
10/03/2014  20:48:00      -77.023       23.789      -16.307       25.482       51.504       24.231      649.344     2652.673      587.149        0.533        0.194       80.613       25.937        0.104      342.411       17.803      868.777
10/03/2014  20:49:00      -88.712       86.368      -15.253       32.924       62.120       26.855     1083.966     3858.926      721.197        1.061        0.283      123.811       25.204        0.041      343.068       18.919      868.782
10/03/2014  20:50:00      -74.078      -10.919      -12.991       25.058       34.087       21.906      627.928     1161.895      479.858        0.402        0.113       74.878       12.666        0.029      342.239       17.510      868.787
10/03/2014  20:51:00      -68.298       -8.330      -11.493       27.747       33.372       17.037      769.885     1113.702      290.273        0.352        0.109       68.804       15.618        0.052      342.176       17.403      868.791
10/03/2014  20:52:00      -64.584       -4.835       -5.546       30.142       27.863       18.730      908.531      776.346      350.825        0.313        0.102       64.765       12.189        0.035      342.169       17.392      868.798
10/03/2014  20:53:00      -96.285      -20.420      -12.902       29.177       18.308       12.487      851.287      335.168      155.919        0.560        0.067       98.427       11.064        0.013      342.074       17.230      868.801
10/03/2014  20:54:00     -105.202      -10.422      -14.374       30.294       26.110       18.446      917.715      681.728      340.264        0.666        0.097      105.717       15.416        0.021      342.133       17.330      868.811
10/03/2014  20:55:00     -120.035      -10.056      -15.940       29.760       25.580       16.199      885.643      654.335      262.422        0.828        0.090      120.456       13.217        0.012      342.174       17.398      868.808
10/03/2014  20:56:00     -112.957      -13.062      -11.068       37.461       27.623       21.394     1403.308      763.007      457.684        0.784        0.131      113.710       17.636        0.024      342.132       17.327      868.826
10/03/2014  20:57:00     -120.501      -21.892      -11.619       35.810       30.740       22.709     1282.340      944.961      515.718        0.894        0.137      122.474       18.926        0.024      342.135       17.333      868.837
10/03/2014  20:58:00     -125.511      -39.945      -14.579       29.151       27.781       19.084      849.764      771.785      364.203        0.977        0.099      131.714        9.918        0.006      342.119       17.306      868.843
10/03/2014  20:59:00      -68.292      -26.171       -3.643       49.575       19.872       25.095     2457.719      394.902      629.766        0.442        0.174       73.134       27.070        0.137      341.992       17.090      868.865
10/03/2014  21:00:00      -88.898      -53.148       -2.310       36.747       35.434       20.476     1350.377     1255.563      419.264        0.688        0.151      103.574       17.196        0.028      342.009       17.118      868.869
10/03/2014  21:01:00     -124.934      -42.611      -11.817       25.709       17.412       17.602      660.930      303.187      309.843        0.942        0.064      132.001       10.529        0.006      342.091       17.257      868.885
10/03/2014  21:02:00     -142.524      -63.093       -1.935       25.264       20.047       15.943      638.289      401.865      254.195        1.280        0.065      155.864       14.037        0.008      342.179       17.407      868.881
10/03/2014  21:03:00      -80.383      -52.816        1.189       45.495       21.472       19.835     2069.826      461.038      393.429        0.609        0.146       96.182       23.186        0.058      342.127       17.320      868.876
10/03/2014  21:04:00     -109.559      -69.121       -8.511       26.086       18.406       16.214      680.461      338.781      262.908        0.907        0.064      129.541       11.671        0.008      342.236       17.505      868.889
10/03/2014  21:05:00     -124.110      -39.105       -9.584       21.968       23.413       16.377      482.593      548.146      268.222        0.916        0.065      130.125        8.402        0.004      342.220       17.477      868.883
10/03/2014  21:06:00     -118.397      -38.185       -7.450       28.280       19.728        9.769      799.736      389.214       95.443        0.841        0.064      124.403       10.367        0.007      342.208       17.456      868.877
10/03/2014  21:07:00     -112.125      -41.191       -5.192       30.694       20.129       14.501      942.138      405.157      210.275        0.793        0.078      119.451       13.702        0.013      342.212       17.463      868.887
10/03/2014  21:08:00     -114.260      -56.441       -3.484       33.304       28.309       16.498     1109.123      801.414      272.175        0.922        0.109      127.440       16.363        0.016      342.163       17.380      868.876
10/03/2014  21:09:00     -105.472      -57.401        2.191       47.381       23.015       21.890     2244.937      529.667      479.169        0.884        0.163      120.080       22.348        0.035      342.068       17.219      868.875
10/03/2014  21:10:00      -86.748      -51.537       -0.452       37.298       28.835       20.746     1391.105      831.481      430.390        0.642        0.133      100.903       16.922        0.028      341.977       17.064      868.872
10/03/2014  21:11:00      -79.585      -57.152        1.802       53.079       35.929       20.172     2817.426     1290.868      406.919        0.706        0.226       97.980       17.048        0.030      341.980       17.070      868.860
10/03/2014  21:12:00      -92.469      -54.956       -4.145       33.967       26.844       17.069     1153.775      720.622      291.334        0.688        0.108      107.567       16.221        0.023      341.907       16.944      868.863
10/03/2014  21:13:00     -114.818      -56.100       -9.455       21.880       19.332       13.265      478.746      373.740      175.964        0.872        0.051      127.791        8.591        0.005      341.961       17.036      868.856
10/03/2014  21:14:00     -133.451      -68.127       -4.265       22.457       21.209       15.045      504.338      449.831      226.339        1.182        0.059      149.835       12.440        0.007      341.987       17.082      868.863
10/03/2014  21:15:00      -81.006      -54.820        2.663       34.840       24.475       21.584     1213.850      599.013      465.877        0.593        0.114       97.812       17.948        0.034      341.849       16.848      868.854
10/03/2014  21:16:00      -63.486      -60.870       -4.445       33.989       27.520       18.437     1155.261      757.344      339.919        0.500        0.113       87.953       14.047        0.026      341.879       16.898      868.859
10/03/2014  21:17:00      -81.468      -60.400       -2.210       32.429       29.057       19.273     1051.625      844.333      371.460        0.628        0.113      101.416       17.892        0.031      341.781       16.731      868.868
10/03/2014  21:18:00     -115.516      -66.879       -6.463       27.822       20.406       15.770      774.073      416.386      248.687        0.965        0.072      133.480       15.116        0.013      341.860       16.865      868.867
10/03/2014  21:19:00      -94.412      -59.985       -2.280       41.138       23.318       18.443     1692.334      543.709      340.156        0.755        0.129      111.856       19.701        0.031      341.781       16.731      868.880
10/03/2014  21:20:00      -80.161      -61.385        0.842       38.156       23.596       19.378     1455.874      556.776      375.503        0.629        0.119      100.965       18.543        0.034      341.780       16.731      868.867
10/03/2014  21:21:00      -98.563      -66.510        0.238       43.314       33.041       23.549     1876.112     1091.676      554.578        0.883        0.176      118.905       21.057        0.031      341.688       16.575      868.860
10/03/2014  21:22:00     -121.714      -80.294       -0.679       42.571       32.382       27.996     1812.297     1048.589      783.795        1.245        0.182      145.813       20.745        0.020      341.729       16.643      868.854
10/03/2014  21:23:00     -108.979      -67.162       -4.434       50.658       34.459       23.636     2566.255     1187.413      558.683        1.036        0.216      128.012       20.512        0.026      341.737       16.657      868.848
10/03/2014  21:24:00     -102.332      -73.295       -4.912       42.521       26.903       23.667     1808.020      723.754      560.111        0.948        0.155      125.873       19.984        0.025      341.760       16.697      868.844
10/03/2014  21:25:00     -109.717      -72.132       -1.667       37.396       30.413       23.845     1398.487      924.941      568.566        1.007        0.145      131.304       21.261        0.026      341.733       16.651      868.836
10/03/2014  21:26:00     -110.589      -76.904       -8.774       35.513       21.838       18.162     1261.203      476.895      329.855        1.014        0.103      134.700       12.789        0.009      341.716       16.622      868.838
10/03/2014  21:27:00     -122.410      -88.501       -3.857       34.678       21.483       20.521     1202.553      461.528      421.094        1.246        0.104      151.052       17.836        0.014      341.656       16.521      868.831
10/03/2014  21:28:00     -103.321      -78.464        5.544       52.162       34.426       30.929     2720.867     1185.170      956.612        1.086        0.243      129.737       32.441        0.063      341.641       16.495      868.833
10/03/2014  21:29:00      -89.529      -66.695       -2.952       46.944       37.013       23.752     2203.730     1369.962      564.168        0.830        0.207      111.641       18.983        0.029      341.626       16.471      868.840
10/03/2014  21:30:00     -108.440      -92.383       -4.738       32.794       32.175       21.245     1075.465     1035.233      451.356        1.144        0.128      142.457       14.589        0.010      341.635       16.484      868.847
10/03/2014  21:31:00     -108.667      -80.400       -6.659       34.774       22.685       19.024     1209.222      514.607      361.898        1.020        0.104      135.176       13.268        0.010      341.534       16.312      868.852
10/03/2014  21:32:00     -104.287      -50.176        3.807       38.713       28.906       22.928     1498.723      835.554      525.689        0.813        0.143      115.730       21.947        0.036      341.535       16.314      868.858
10/03/2014  21:33:00     -123.466      -68.473       -5.898       36.303       25.392       17.640     1317.900      644.743      311.165        1.112        0.114      141.182        9.039        0.004      341.520       16.290      868.865
10/03/2014  21:34:00     -155.829      -69.123       -6.700       34.561       31.183       21.627     1194.464      972.367      467.740        1.587        0.132      170.472       16.877        0.010      341.501       16.257      868.875
10/03/2014  21:35:00     -173.554      -66.321       -7.633       29.159       24.903       22.796      850.248      620.144      519.647        1.828        0.100      185.795       17.338        0.009      341.462       16.191      868.880
10/03/2014  21:36:00     -150.498      -68.346       -2.675       32.823       31.546       21.323     1077.349      995.139      454.681        1.493        0.126      165.290       17.602        0.011      341.424       16.128      868.891
10/03/2014  21:37:00     -135.195      -54.221       -2.620       30.120       27.550       18.837      907.227      758.996      354.828        1.162        0.101      145.662       15.924        0.012      341.389       16.068      868.898
10/03/2014  21:38:00     -141.987      -44.750       -0.871       22.858       23.711       16.651      522.502      562.216      277.264        1.176        0.068      148.872       12.275        0.007      341.428       16.132      868.915
10/03/2014  21:39:00     -153.744      -61.220       -8.082       28.044       20.399       13.931      786.480      416.117      194.083        1.442        0.070      165.484       14.161        0.007      341.368       16.031      868.916
10/03/2014  21:40:00     -134.234      -36.832       -2.143       26.231       24.300       14.956      688.091      590.506      223.677        1.044        0.075      139.195        9.698        0.005      341.363       16.023      868.928
10/03/2014  21:41:00     -119.395      -63.118       -6.383       32.448       19.471       15.336     1052.893      379.105      235.184        0.997        0.083      135.052       16.216        0.014      341.329       15.966      868.938
10/03/2014  21:42:00     -126.265      -57.148       -5.583       27.279       23.562       19.443      744.165      555.160      378.033        1.046        0.084      138.596       14.045        0.010      341.265       15.859      868.947
10/03/2014  21:43:00     -124.634      -51.081       -3.706       32.613       31.555       19.316     1063.578      995.726      373.092        1.029        0.122      134.695       15.942        0.014      341.366       16.029      868.950
10/03/2014  21:44:00     -105.771      -57.924       -5.075       38.608       32.574       16.210     1490.549     1061.095      262.772        0.869        0.141      120.593       13.983        0.013      341.349       16.000      868.958
10/03/2014  21:45:00      -70.766      -45.991        5.116       44.442       29.483       18.187     1975.076      869.228      330.755        0.516        0.159       84.397       19.679        0.054      341.379       16.051      868.967
10/03/2014  21:46:00      -94.425      -49.695       -0.470       50.077       27.491       19.951     2507.707      755.732      398.051        0.752        0.183      106.704       27.209        0.065      341.407       16.098      868.969
10/03/2014  21:47:00      -80.252      -72.788        5.934       35.751       28.341       24.495     1278.120      803.233      600.019        0.723        0.134      108.344       19.912        0.034      341.445       16.163      868.980
10/03/2014  21:48:00     -106.784      -80.537       -0.720       30.502       26.698       16.855      930.360      712.772      284.089        0.991        0.096      133.750       11.892        0.008      341.467       16.200      868.978
10/03/2014  21:49:00     -107.773      -70.367       -5.820       29.868       20.231       16.915      892.080      409.306      286.114        0.909        0.079      128.711       12.858        0.010      341.507       16.267      868.974
10/03/2014  21:50:00      -96.698      -53.160       -9.551       28.950       26.021       19.493      838.112      677.076      379.960        0.708        0.095      110.347       11.102        0.010      341.494       16.245      868.987
10/03/2014  21:51:00     -114.182      -65.478      -15.651       23.259       16.283       19.169      540.985      265.131      367.470        0.937        0.059      131.624       15.341        0.014      341.449       16.169      868.994
10/03/2014  21:52:00     -125.106      -57.444      -12.340       20.886       15.428       12.290      436.208      238.024      151.035        0.996        0.041      137.664        8.729        0.004      341.430       16.137      868.992
10/03/2014  21:53:00     -114.661      -61.834      -11.310       20.607       15.690       12.583      424.631      246.164      158.330        0.896        0.041      130.271        7.645        0.003      341.450       16.171      868.986
10/03/2014  21:54:00     -125.484      -63.288       -8.005       19.243       16.004       12.806      370.275      256.117      163.995        1.030        0.040      140.541        7.426        0.003      341.394       16.076      868.972
10/03/2014  21:55:00     -110.022      -64.428       -6.612       26.333       17.465       14.128      693.433      305.009      199.589        0.875        0.060      127.498       13.058        0.010      341.327       15.961      868.972
10/03/2014  21:56:00     -112.339      -64.915       -9.438       26.331       20.655       12.363      693.300      426.628      152.854        0.910        0.064      129.746        6.839        0.003      341.351       16.003      868.965
10/03/2014  21:57:00     -129.546      -47.391      -13.205       17.198       14.955       11.173      295.759      223.664      124.838        0.992        0.032      137.943        9.900        0.005      341.352       16.006      868.959
10/03/2014  21:58:00     -145.510      -32.198      -20.143       17.930       15.889       13.921      321.499      252.449      193.781        1.169        0.038      149.029       10.358        0.005      341.321       15.952      868.963
10/03/2014  21:59:00     -117.587      -53.118      -15.613       20.124       30.452       16.982      404.981      927.309      288.379        0.926        0.081      129.028       14.083        0.012      341.198       15.744      868.955
10/03/2014  22:00:00     -105.914      -49.454      -23.335       27.812       27.557       16.078      773.515      759.397      258.510        0.800        0.090      116.891       13.616        0.014      341.135       15.638      868.945
10/03/2014  22:01:00      -69.117      -52.425        1.207       34.027       30.724       23.793     1157.810      943.979      566.114        0.510        0.133       86.750       20.818        0.058      341.164       15.687      868.948
10/03/2014  22:02:00      -98.731      -32.307      -17.941       26.261       17.059       14.986      689.623      291.014      224.575        0.616        0.060      103.882       12.656        0.015      341.159       15.678      868.948
10/03/2014  22:03:00      -65.195      -20.485      -14.583       20.159       16.770       16.886      406.366      281.246      285.132        0.293        0.049       68.337        9.598        0.020      341.141       15.647      868.953
10/03/2014  22:04:00      -69.499      -19.626      -12.738       24.899       19.128       11.942      619.982      365.866      142.606        0.325        0.056       72.217        8.708        0.015      341.157       15.674      868.954
10/03/2014  22:05:00      -52.859      -30.125      -11.711       24.225       17.505       12.830      586.855      306.410      164.621        0.245        0.053       60.841        6.912        0.013      341.174       15.704      868.949
10/03/2014  22:06:00      -65.014      -16.807      -15.396       17.498       20.868       10.753      306.163      435.471      115.633        0.280        0.043       67.151        8.318        0.015      341.302       15.922      868.946
10/03/2014  22:07:00      -60.391      -11.446      -15.450       13.238       13.285        8.940      175.234      176.503       79.932        0.222        0.022       61.466        6.843        0.012      341.449       16.171      868.930
10/03/2014  22:08:00      -62.732      -29.190      -10.935       13.849       12.686        9.300      191.799      160.924       86.498        0.267        0.022       69.191        4.158        0.004      341.133       15.633      868.931
10/03/2014  22:09:00      -77.224      -34.841      -14.478       11.473       15.052        9.753      131.622      226.573       95.122        0.392        0.023       84.720        4.352        0.003      341.002       15.413      868.934
10/03/2014  22:10:00      -96.173      -22.529      -20.170       13.956       15.618       13.800      194.768      243.917      190.437        0.540        0.031       98.776        7.991        0.007      340.945       15.315      868.938
10/03/2014  22:11:00     -113.333       -8.653      -18.760       16.006       12.285        8.250      256.196      150.918       68.069        0.687        0.024      113.663        4.072        0.001      341.003       15.414      868.949
10/03/2014  22:12:00      -98.498      -28.608      -18.719       12.413       17.825       11.025      154.080      317.720      121.560        0.573        0.030      102.569        8.181        0.006      341.004       15.416      868.964
10/03/2014  22:13:00     -114.013      -31.194      -16.872       23.583       22.395       13.102      556.143      501.549      171.662        0.774        0.061      118.203       12.367        0.011      340.957       15.337      868.968
10/03/2014  22:14:00     -101.211      -39.205      -26.293       20.722       24.220       16.810      429.381      586.614      282.584        0.689        0.065      108.538       14.288        0.017      340.908       15.253      868.976
10/03/2014  22:15:00      -80.240      -36.455      -23.878       19.934       27.796       13.670      397.378      772.640      186.871        0.485        0.068       88.133       12.260        0.019      340.934       15.298      868.992
10/03/2014  22:16:00      -94.284      -27.044      -17.434       17.615       20.900       16.451      310.284      436.825      270.647        0.547        0.051       98.086       11.259        0.013      340.879       15.204      869.000
10/03/2014  22:17:00     -113.420      -24.112      -15.030       17.453       16.933       10.545      304.623      286.728      111.189        0.719        0.035      115.955        7.953        0.005      340.861       15.174      869.017
10/03/2014  22:18:00      -75.104      -34.100       -3.413       30.162       16.651       11.993      909.748      277.268      143.830        0.407        0.067       82.483       13.096        0.025      340.832       15.124      869.043
10/03/2014  22:19:00      -19.952      -23.932        8.302       21.756       17.183        8.239      473.333      295.271       67.878        0.094        0.042       31.158        9.737        0.098      340.921       15.274      869.051
10/03/2014  22:20:00      -50.625       -1.842       -6.155        9.866       10.384        7.248       97.337      107.823       52.526        0.143        0.013       50.659        4.212        0.007      340.886       15.216      869.060
10/03/2014  22:21:00      -65.015      -14.886      -11.001       14.473       12.937        9.544      209.473      167.358       91.091        0.252        0.023       66.697        4.574        0.005      340.918       15.271      869.065
10/03/2014  22:22:00      -56.126      -31.836       -6.762       15.440        9.426       11.396      238.407       88.854      129.873        0.233        0.023       64.526        9.891        0.023      340.902       15.242      869.071
10/03/2014  22:23:00      -18.745      -30.609       -7.406       17.609       13.133        9.119      310.065      172.486       83.156        0.095        0.028       35.893        7.005        0.038      340.840       15.140      869.094
10/03/2014  22:24:00      -50.379      -27.657       -9.831       14.115       10.691        9.255      199.238      114.306       85.651        0.190        0.020       57.472        7.528        0.017      340.860       15.170      869.094
10/03/2014  22:25:00      -76.380      -26.753       -8.531       14.534       11.635        7.818      211.224      135.378       61.128        0.352        0.020       80.930        5.243        0.004      340.745       14.979      869.107
10/03/2014  22:26:00      -78.637      -44.165       -9.065       21.441       11.447        9.094      459.702      131.044       82.709        0.444        0.034       90.191        5.858        0.004      340.683       14.874      869.117
10/03/2014  22:27:00      -53.079      -42.167       -2.121       29.577       16.841       15.753      874.773      283.623      248.152        0.300        0.070       67.790       16.063        0.056      340.592       14.719      869.128
10/03/2014  22:28:00      -87.543      -49.696      -10.587       21.885       19.201       13.679      478.953      368.675      187.110        0.564        0.052      100.665       10.384        0.011      340.527       14.610      869.149
10/03/2014  22:29:00     -115.788      -58.707      -11.163       13.572       12.240       10.747      184.199      149.821      115.495        0.871        0.022      129.820        5.006        0.001      340.521       14.598      869.157
10/03/2014  22:30:00      -91.568      -53.131       -7.234       19.236       16.558       12.015      370.007      274.152      144.349        0.602        0.039      105.866       10.966        0.011      340.500       14.565      869.160
10/03/2014  22:31:00      -65.987      -33.808       -6.835       20.794       12.528        9.184      432.379      156.942       84.350        0.311        0.034       74.143        5.716        0.006      340.547       14.644      869.171
10/03/2014  22:32:00      -98.254      -43.773      -11.915       11.926       10.183        9.708      142.234      103.693       94.248        0.603        0.017      107.564        6.238        0.003      340.580       14.699      869.169
10/03/2014  22:33:00      -87.135      -25.630      -10.571        7.590       15.183        8.891       57.609      230.526       79.048        0.436        0.018       90.827        3.996        0.002      340.562       14.668      869.168
10/03/2014  22:34:00      -83.195      -14.188      -16.613        6.377        8.367        6.757       40.669       70.001       45.660        0.378        0.008       84.396        2.525        0.001      340.583       14.704      869.176
10/03/2014  22:35:00      -85.806      -25.925      -14.411        5.298        6.905        6.301       28.065       47.686       39.706        0.418        0.006       89.636        3.144        0.001      340.570       14.684      869.165
10/03/2014  22:36:00      -76.691      -19.306       -8.800        7.352        8.142        5.388       54.058       66.299       29.035        0.324        0.007       79.084        1.723        0.000      340.546       14.641      869.174
10/03/2014  22:37:00      -79.528       -6.515      -15.846        7.570        7.151        7.031       57.312       51.133       49.440        0.339        0.008       79.794        4.158        0.003      340.586       14.709      869.178
10/03/2014  22:38:00      -71.377       -6.077      -10.167        7.891       10.125        7.250       62.268      102.510       52.559        0.273        0.011       71.635        3.027        0.002      340.559       14.664      869.180
10/03/2014  22:39:00      -78.835      -19.486      -12.803        6.849        6.654        4.515       46.908       44.275       20.388        0.344        0.006       81.208        3.763        0.002      340.493       14.547      869.192
10/03/2014  22:40:00      -83.485      -28.422      -15.633        7.756        5.265        5.742       60.160       27.719       32.973        0.407        0.006       88.190        4.072        0.002      340.420       14.431      869.186
10/03/2014  22:41:00      -80.158      -25.979      -13.454       14.338       11.270        9.440      205.581      127.020       89.123        0.385        0.021       84.262        3.277        0.002      340.321       14.261      869.185
10/03/2014  22:42:00      -89.235      -16.556      -16.227       10.987       13.058        9.514      120.714      170.516       90.521        0.444        0.019       90.758        5.602        0.004      340.313       14.247      869.191
10/03/2014  22:43:00      -93.171      -28.633      -13.553        8.709        6.554        8.242       75.845       42.961       67.935        0.494        0.009       97.472        5.961        0.004      340.357       14.322      869.187
10/03/2014  22:44:00      -90.990      -29.183      -14.700        9.430       11.430        8.743       88.930      130.656       76.445        0.482        0.015       95.555        4.412        0.002      340.387       14.372      869.203
10/03/2014  22:45:00      -90.894      -21.397      -17.339        8.587        8.688        7.851       73.729       75.473       61.635        0.462        0.011       93.379        4.549        0.002      340.438       14.458      869.207
10/03/2014  22:46:00      -97.251      -18.478      -17.097        9.143        9.742        7.786       83.592       94.899       60.622        0.517        0.012       98.991        3.330        0.001      340.361       14.327      869.201
10/03/2014  22:47:00      -95.013      -19.626      -14.421       12.154       11.905       11.950      147.708      141.731      142.803        0.503        0.022       97.019        6.862        0.005      340.377       14.355      869.202
10/03/2014  22:48:00      -96.904      -27.191      -10.510       11.226        8.897        6.560      126.015       79.162       43.036        0.524        0.012      100.646        3.856        0.001      340.405       14.403      869.206
10/03/2014  22:49:00      -90.514      -28.119      -14.857        8.213        8.999        5.974       67.460       80.988       35.688        0.469        0.009       94.781        3.301        0.001      340.469       14.512      869.202
10/03/2014  22:50:00      -83.631      -38.401      -11.369        8.412       10.355        5.354       70.755      107.219       28.665        0.440        0.010       92.027        1.396        0.000      340.391       14.379      869.209
10/03/2014  22:51:00      -80.994      -48.129      -11.121       12.751       12.955        8.417      162.586      167.837       70.854        0.470        0.020       94.214        6.873        0.005      340.390       14.377      869.207
10/03/2014  22:52:00      -94.670      -59.486      -12.921       12.972       13.846        9.140      168.264      191.719       83.539        0.656        0.022      111.808        6.382        0.003      340.298       14.221      869.202
10/03/2014  22:53:00      -83.769      -51.011      -18.121       15.657       12.248       10.028      245.146      150.025      100.567        0.522        0.025       98.078        4.455        0.002      340.289       14.207      869.200
10/03/2014  22:54:00      -86.454      -47.113      -17.201       14.616       11.808       10.745      213.622      139.437      115.463        0.523        0.023       98.458        4.294        0.002      340.267       14.169      869.199
10/03/2014  22:55:00      -96.669      -67.574      -10.402       24.148       25.024       16.708      583.116      626.187      279.163        0.775        0.074      117.946       17.745        0.023      340.119       13.920      869.206
10/03/2014  22:56:00      -86.697      -57.142       -2.972       35.955       23.490       19.327     1292.794      551.772      373.539        0.650        0.111      103.834       15.866        0.023      340.015       13.745      869.227
10/03/2014  22:57:00      -97.993      -66.727       -5.657       35.897       29.895       18.886     1288.617      893.737      356.688        0.831        0.127      118.554        4.229        0.001      340.128       13.934      869.240
10/03/2014  22:58:00     -101.380      -63.116       -3.177       31.419       30.511       16.969      987.170      930.899      287.962        0.824        0.110      119.422        9.493        0.006      340.147       13.964      869.245
10/03/2014  22:59:00     -100.939      -81.940       -4.911       32.354       34.639       23.228     1046.776     1199.871      539.532        0.986        0.139      130.011       15.495        0.014      340.082       13.857      869.258
10/03/2014  23:00:00     -120.868      -76.950       -8.175       47.187       47.701       22.000     2226.580     2275.376      484.005        1.279        0.249      143.284       20.080        0.020      340.064       13.826      869.270
10/03/2014  23:01:00     -139.061      -77.287       -2.844       46.835       37.892       24.440     2193.509     1435.832      597.323        1.477        0.211      159.095       24.634        0.024      340.037       13.782      869.268
10/03/2014  23:02:00     -136.841      -84.224       -3.415       48.131       28.366       26.299     2316.556      804.626      691.638        1.482        0.191      160.683       19.252        0.014      340.031       13.771      869.265
10/03/2014  23:03:00      -81.984      -56.267        3.365       59.600       37.453       24.678     3552.106     1402.732      608.985        0.773        0.278       99.436       23.643        0.057      339.958       13.649      869.270
10/03/2014  23:04:00      -97.139      -68.735       -9.332       29.582       27.653       20.792      875.092      764.688      432.320        0.816        0.104      118.997        9.661        0.007      339.979       13.683      869.266
10/03/2014  23:05:00     -118.450      -42.746       -7.714       27.293       24.363       15.632      744.881      593.545      244.355        0.875        0.079      125.928       11.143        0.008      339.953       13.639      869.270
10/03/2014  23:06:00     -145.999      -59.195       -7.399       19.111       21.862       13.735      365.249      477.940      188.656        1.295        0.052      157.543        9.616        0.004      339.984       13.692      869.283
10/03/2014  23:07:00     -150.506      -53.925      -10.807       14.503       20.312       15.144      210.347      412.570      229.352        1.326        0.043      159.874        9.725        0.004      339.941       13.619      869.275
10/03/2014  23:08:00     -142.783      -68.561       -7.150       21.313       20.158       15.104      454.253      406.325      228.140        1.311        0.054      158.391       12.364        0.006      339.833       13.437      869.279
10/03/2014  23:09:00     -122.642      -54.968      -13.524       23.882       25.700       16.313      570.331      660.515      266.129        0.987        0.075      134.397       13.994        0.011      339.745       13.290      869.291
10/03/2014  23:10:00      -94.874      -60.040       -5.638       33.784       24.835       20.374     1141.363      616.783      415.091        0.741        0.109      112.276       13.707        0.015      339.664       13.152      869.290
10/03/2014  23:11:00     -112.322      -39.945       -7.758       35.638       25.161       17.615     1270.040      633.062      310.289        0.824        0.111      119.213       11.692        0.010      339.628       13.094      869.287
10/03/2014  23:12:00     -101.558        7.575      -11.088       41.150       32.658       22.467     1693.292     1066.539      504.752        0.688        0.163      101.840       16.769        0.027      340.001       13.721      869.291
10/03/2014  23:13:00     -137.681        9.854      -11.665       32.623       33.796       21.276     1064.273     1142.158      452.676        1.092        0.133      138.033       13.607        0.010      340.101       13.889      869.283
10/03/2014  23:14:00     -127.905      -26.973      -11.952       29.460       29.414       19.080      867.885      865.189      364.064        0.966        0.105      130.718       14.317        0.012      340.000       13.718      869.283
10/03/2014  23:15:00      -69.949      -50.245        0.687       38.800       26.642       21.762     1505.426      709.812      473.598        0.505        0.134       86.124       16.674        0.037      339.825       13.424      869.281
10/03/2014  23:16:00     -146.468      -56.683       -9.705       21.386       24.801       16.617      457.364      615.104      276.140        1.305        0.067      157.053       10.347        0.004      339.779       13.347      869.274
10/03/2014  23:17:00     -141.444      -53.192       -7.359       28.421       21.125       14.569      807.726      446.285      212.249        1.218        0.073      151.115       14.060        0.009      339.766       13.325      869.283
10/03/2014  23:18:00     -117.578      -59.646       -1.303       27.997       20.205       16.472      783.817      408.237      271.339        0.942        0.073      131.842       16.018        0.015      339.799       13.380      869.277
10/03/2014  23:19:00     -107.755      -62.331      -10.469       20.555       14.559       12.771      422.504      211.977      163.088        0.820        0.040      124.484       10.957        0.008      339.853       13.470      869.283
10/03/2014  23:20:00     -107.355      -68.293       -3.623       24.358       19.768       16.605      593.330      390.770      275.723        0.873        0.063      127.236       15.021        0.014      339.896       13.543      869.291
10/03/2014  23:21:00     -120.263      -68.231       -8.067       21.536       13.126       14.900      463.819      172.294      222.000        1.002        0.043      138.270       13.979        0.010      339.856       13.476      869.284
10/03/2014  23:22:00      -92.853      -64.677        1.359       30.742       22.454       21.132      945.092      504.169      446.550        0.735        0.095      113.158       15.835        0.020      339.722       13.251      869.289
10/03/2014  23:23:00      -98.664      -76.560       -3.334       37.067       37.299       20.203     1373.943     1391.207      408.148        0.939        0.159      124.884       20.008        0.026      339.762       13.317      869.286
10/03/2014  23:24:00      -90.573      -76.437       -0.162       33.671       29.850       21.322     1133.720      891.019      454.617        0.826        0.124      118.516       16.324        0.019      339.791       13.367      869.285
10/03/2014  23:25:00      -98.662      -69.750        1.839       48.509       30.181       25.925     2353.132      910.867      672.119        0.927        0.197      120.828       23.343        0.037      339.793       13.372      869.294
10/03/2014  23:26:00      -57.909      -59.342       10.798       37.846       43.129       23.484     1432.333     1860.103      551.511        0.542        0.192       82.915       17.445        0.044      339.682       13.183      869.280
10/03/2014  23:27:00     -103.775      -48.691        2.459       36.945       37.264       19.241     1364.936     1388.632      370.197        0.813        0.156      114.630       23.108        0.041      339.725       13.255      869.279
10/03/2014  23:28:00      -62.536      -65.542        1.712       43.755       34.603       25.686     1914.528     1197.381      659.794        0.599        0.189       90.590       22.274        0.060      339.720       13.247      869.273
10/03/2014  23:29:00      -83.670      -57.978        5.710       53.824       31.617       22.916     2896.988      999.636      525.151        0.741        0.221      101.794       23.843        0.055      339.676       13.173      869.270
10/03/2014  23:30:00      -87.064      -55.247        0.889       46.591       34.882       25.682     2170.741     1216.781      659.572        0.734        0.202      103.114       27.593        0.072      339.669       13.162      869.280
10/03/2014  23:31:00      -86.636      -69.733        1.441       53.533       40.785       27.143     2865.808     1663.411      736.753        0.882        0.263      111.214       21.165        0.036      339.672       13.166      869.289
10/03/2014  23:32:00     -103.518      -73.429        6.565       46.707       42.116       27.172     2181.536     1773.788      738.344        1.042        0.235      126.916       25.304        0.040      339.694       13.202      869.297
10/03/2014  23:33:00      -74.721      -68.371        6.130       53.703       43.711       29.795     2884.052     1910.659      887.749        0.799        0.284      101.281       24.515        0.059      339.668       13.158      869.312
10/03/2014  23:34:00     -108.625      -90.698        7.602       49.921       44.631       30.852     2492.080     1991.899      951.843        1.276        0.272      141.511       26.261        0.034      339.642       13.115      869.317
10/03/2014  23:35:00     -125.022      -85.707       -2.070       49.516       40.593       31.166     2451.815     1647.819      971.291        1.402        0.254      151.579       25.202        0.028      339.642       13.116      869.305
10/03/2014  23:36:00     -127.747      -82.909        6.629       71.037       42.645       31.352     5046.262     1818.606      982.920        1.554        0.392      152.293       32.980        0.047      339.624       13.085      869.312
10/03/2014  23:37:00     -142.552      -82.768        3.910       58.509       39.907       31.935     3423.299     1592.547     1019.844        1.661        0.302      164.838       25.370        0.024      339.585       13.018      869.311
10/03/2014  23:38:00     -124.816      -87.705        0.876       63.205       39.675       31.216     3994.895     1574.100      974.439        1.491        0.327      152.549       34.581        0.051      339.578       13.007      869.312
10/03/2014  23:39:00     -107.434      -69.369        2.492       46.402       29.792       22.790     2153.155      887.566      519.378        0.996        0.178      127.883       23.053        0.032      339.587       13.023      869.313
10/03/2014  23:40:00     -112.957      -58.039       -0.621       52.241       33.193       28.360     2729.105     1101.795      804.262        1.038        0.232      126.995       29.609        0.054      339.644       13.118      869.321
10/03/2014  23:41:00     -136.190      -66.309       -6.006       28.809       28.869       15.429      829.948      833.410      238.069        1.244        0.095      151.475       10.411        0.005      339.677       13.177      869.320
10/03/2014  23:42:00     -121.151      -73.463      -10.375       27.039       18.823       15.544      731.107      354.304      241.612        1.075        0.066      141.684       10.680        0.006      339.661       13.146      869.331
10/03/2014  23:43:00     -129.415      -46.486      -10.255       19.456       23.044       13.186      378.540      531.031      173.863        1.005        0.054      137.510       10.191        0.005      339.587       13.021      869.343
10/03/2014  23:44:00     -118.903      -31.394       -3.272       29.703       20.619       14.912      882.241      425.130      222.365        0.833        0.076      122.978       16.846        0.019      339.514       12.900      869.342
10/03/2014  23:45:00     -117.353      -38.307       -1.722       23.511       23.038       13.535      552.790      530.728      183.191        0.825        0.063      123.447       13.142        0.011      339.466       12.817      869.354
10/03/2014  23:46:00      -81.723      -48.301       -5.870       21.230       19.679       14.311      450.728      387.262      204.816        0.504        0.052       94.930        9.908        0.011      339.417       12.736      869.376
10/03/2014  23:47:00      -51.656      -42.701       -4.672       23.101       23.782       14.450      533.660      565.598      208.814        0.291        0.065       67.021        7.638        0.013      339.448       12.788      869.375
10/03/2014  23:48:00      -64.940      -50.367       -3.679       36.143       22.953       17.247     1306.345      526.863      297.474        0.445        0.107       82.182       15.627        0.036      339.435       12.765      869.372
10/03/2014  23:49:00      -97.794      -70.392       -3.325       48.430       31.552       20.269     2345.503      995.538      410.822        0.914        0.188      120.494       14.877        0.015      339.396       12.700      869.380
10/03/2014  23:50:00      -75.152      -66.869        3.289       31.087       28.967       20.610      966.417      839.112      424.781        0.618        0.112      100.595        5.395        0.003      339.390       12.691      869.374
10/03/2014  23:51:00      -46.103      -31.602        8.050       40.789       24.081       20.208     1663.754      579.918      408.353        0.292        0.133       55.894       12.191        0.048      339.318       12.568      869.369
10/03/2014  23:52:00      -59.022      -55.288        3.790       45.223       43.504       24.053     2045.135     1892.604      578.524        0.553        0.226       80.873       23.153        0.082      339.373       12.662      869.366
10/03/2014  23:53:00      -95.766      -53.283        7.240       44.530       27.982       23.232     1982.903      782.981      539.725        0.768        0.165      109.591       17.438        0.025      339.375       12.664      869.376
10/03/2014  23:54:00     -101.763      -61.393        4.145       57.051       32.149       23.014     3254.869     1033.564      529.645        0.948        0.241      118.848       24.204        0.041      339.363       12.644      869.367
10/03/2014  23:55:00      -51.203      -38.700        9.832       64.626       43.581       23.884     4176.547     1899.327      570.433        0.543        0.332       64.183       27.761        0.187      339.319       12.570      869.367
10/03/2014  23:56:00      -43.015      -32.882        2.390       42.142       35.674       21.720     1775.967     1272.627      471.766        0.323        0.176       54.143       18.840        0.121      339.300       12.539      869.387
10/03/2014  23:57:00      -61.974      -39.167        8.576       33.232       32.381       24.104     1104.341     1048.500      580.996        0.409        0.137       73.314       19.529        0.071      339.327       12.584      869.390
10/03/2014  23:58:00      -79.988      -57.174       -0.289       31.702       21.921       17.601     1004.991      480.536      309.804        0.573        0.090       98.321       14.912        0.023      339.353       12.627      869.386
10/03/2014  23:59:00      -95.115      -49.421       -8.391       23.742       16.987       13.386      563.672      288.563      179.198        0.630        0.052      107.188        8.540        0.006      339.324       12.579      869.390
